[[{"header":{"parameterUnit":"m.s-1","parameterCategory":1,"la1":30.6,"la2":28.766,"lo1":-90.7593,"lo2":-88.6598,"dy":0.0162,"dx":0.0183,"nx":116,"ny":114,"refTime":"2023-06-16T12:00:00:Z","depth":0,"parameterNumber":2,"parameterNumberName":"U-component_of_WINDS"},"data":[0.0,0.0,0.0,0.0,0.0,0.0,0.0,0.0,0.0,0.0,0.0,0.0,0.0,0.0,0.0,0.0,0.0,0.0,0.0,0.0,0.0,0.0,0.0,0.0,0.0,0.0,0.0,0.0,0.0,0.0,0.0,0.0,0.0,0.0,0.0,0.0,0.0,0.0,0.0,0.0,0.0,0.0,0.0,0.0,0.0,0.0,0.0,0.0,0.0,0.0,0.0,0.0,0.0,0.0,0.0,0.0,0.0,0.0,0.0,0.0,0.0,0.0,0.0,0.0,0.0,0.0,0.0,0.0,0.0,0.0,0.0,0.0,0.0,0.0,0.0,0.0,0.0,0.0,0.0,0.0,0.0,0.0,0.0,0.0,0.0,0.0,0.0,0.0,0.0,0.0,0.0,0.0,0.0,0.0,0.0,0.0,0.0,0.0,0.0,0.0,0.0,0.0,0.0,0.0,0.0,0.0,0.0,0.0,0.0,0.0,0.0,0.0,0.0,0.0,0.0,0.0,0.0,0.0,0.0,0.0,0.0,0.0,0.0,0.0,0.0,0.0,0.0,0.0,0.0,0.0,0.0,0.0,0.0,0.0,0.0,0.0,0.0,0.0,0.0,0.0,0.0,0.0,0.0,0.0,0.0,0.0,0.0,0.0,0.0,0.0,0.0,0.0,0.0,0.0,0.0,0.0,0.0,0.0,0.0,0.0,0.0,0.0,0.0,0.0,0.0,0.0,0.0,0.0,0.0,0.0,0.0,0.0,0.0,0.0,0.0,0.0,0.0,0.0,0.0,0.0,0.0,0.0,0.0,0.0,0.0,0.0,0.0,0.0,0.0,0.0,0.0,0.0,0.0,0.0,0.0,0.0,0.0,0.0,0.0,0.0,0.0,0.0,0.0,0.0,0.0,0.0,0.0,0.0,0.0,0.0,0.0,0.0,0.0,0.0,0.0,0.0,0.0,0.0,0.0,0.0,0.0,0.0,0.0,0.0,0.0,0.0,0.0,0.0,0.0,0.0,0.0,0.0,0.0,0.0,0.0,0.0,0.0,0.0,0.0,0.0,0.0,0.0,0.0,0.0,0.0,0.0,0.0,0.0,0.0,0.0,0.0,0.0,0.0,0.0,0.0,0.0,0.0,0.0,0.0,0.0,0.0,0.0,0.0,0.0,0.0,0.0,0.0,0.0,0.0,0.0,0.0,0.0,0.0,0.0,0.0,0.0,0.0,0.0,0.0,0.0,0.0,0.0,0.0,0.0,0.0,0.0,0.0,0.0,0.0,0.0,0.0,0.0,0.0,0.0,0.0,0.0,0.0,0.0,0.0,0.0,0.0,0.0,0.0,0.0,0.0,0.0,0.0,0.0,0.0,0.0,0.0,0.0,0.0,0.0,0.0,0.0,0.0,0.0,0.0,0.0,0.0,0.0,0.0,0.0,0.0,0.0,0.0,0.0,0.0,0.0,0.0,0.0,0.0,0.0,0.0,0.0,0.0,0.0,0.0,0.0,0.0,0.0,0.0,0.0,0.0,0.0,0.0,0.0,0.0,0.0,0.0,0.0,0.0,0.0,0.0,0.0,0.0,0.0,0.0,0.0,0.0,0.0,0.0,0.0,0.0,0.0,0.0,0.0,0.0,0.0,0.0,0.0,0.0,0.0,0.0,0.0,0.0,0.0,0.0,0.0,0.0,0.0,0.0,0.0,0.0,0.0,0.0,0.0,0.0,0.0,0.0,0.0,0.0,0.0,0.0,0.0,0.0,0.0,0.0,0.0,0.0,0.0,0.0,0.0,0.0,0.0,0.0,0.0,0.0,0.0,0.0,0.0,0.0,0.0,0.0,0.0,0.0,0.0,0.0,0.0,0.0,0.0,0.0,0.0,0.0,0.0,0.0,0.0,0.0,0.0,0.0,0.0,0.0,0.0,0.0,0.0,0.0,0.0,0.0,0.0,0.0,0.0,0.0,0.0,0.0,0.0,0.0,0.0,0.0,0.0,0.0,0.0,0.0,0.0,0.0,0.0,0.0,0.0,0.0,0.0,0.0,0.0,0.0,0.0,0.0,0.0,0.0,0.0,0.0,0.0,0.0,0.0,0.0,0.0,0.0,0.0,0.0,0.0,0.0,0.0,0.0,0.0,0.0,0.0,0.0,0.0,0.0,0.0,0.0,0.0,0.0,0.0,0.0,0.0,0.0,0.0,0.0,0.0,0.0,0.0,0.0,0.0,0.0,0.0,0.0,0.0,0.0,0.0,0.0,0.0,0.0,0.0,0.0,0.0,0.0,0.0,0.0,0.0,0.0,0.0,0.0,0.0,0.0,0.0,0.0,0.0,0.0,0.0,0.0,0.0,0.0,0.0,0.0,0.0,0.0,0.0,0.0,0.0,0.0,0.0,0.0,0.0,0.0,0.0,0.0,0.0,0.0,0.0,0.0,0.0,0.0,0.0,0.0,0.0,0.0,0.0,0.0,0.0,0.0,0.0,0.0,0.0,0.0,0.0,0.0,0.0,0.0,0.0,0.0,0.0,0.0,0.0,0.0,0.0,0.0,0.0,0.0,0.0,0.0,0.0,0.0,0.0,0.0,0.0,0.0,0.0,0.0,0.0,0.0,0.0,0.0,0.0,0.0,0.0,0.0,0.0,0.0,0.0,0.0,0.0,0.0,0.0,0.0,0.0,0.0,0.0,0.0,0.0,0.0,0.0,0.0,0.0,0.0,0.0,0.0,0.0,0.0,0.0,0.0,0.0,0.0,0.0,0.0,0.0,0.0,0.0,0.0,0.0,0.0,0.0,0.0,0.0,0.0,0.0,0.0,0.0,0.0,0.0,0.0,0.0,0.0,0.0,0.0,0.0,0.0,0.0,0.0,0.0,0.0,0.0,0.0,0.0,0.0,0.0,0.0,0.0,0.0,0.0,0.0,0.0,0.0,0.0,0.0,0.0,0.0,0.0,0.0,0.0,0.0,0.0,0.0,0.0,0.0,0.0,0.0,0.0,0.0,0.0,0.0,0.0,0.0,0.0,0.0,0.0,0.0,0.0,0.0,0.0,0.0,0.0,0.0,0.0,0.0,0.0,0.0,0.0,0.0,0.0,0.0,0.0,0.0,0.0,0.0,0.0,0.0,0.0,0.0,0.0,0.0,0.0,0.0,0.0,0.0,0.0,0.0,0.0,0.0,0.0,0.0,0.0,0.0,0.0,0.0,0.0,0.0,0.0,0.0,0.0,0.0,0.0,0.0,0.0,0.0,0.0,0.0,0.0,0.0,0.0,0.0,0.0,0.0,0.0,0.0,0.0,0.0,0.0,0.0,0.0,0.0,0.0,0.0,0.0,0.0,0.0,0.0,0.0,0.0,0.0,0.0,0.0,0.0,0.0,0.0,0.0,0.0,0.0,0.0,0.0,0.0,0.0,0.0,0.0,0.0,0.0,0.0,0.0,0.0,0.0,0.0,0.0,0.0,0.0,0.0,0.0,0.0,0.0,0.0,0.0,0.0,0.0,0.0,0.0,0.0,0.0,0.0,0.0,0.0,0.0,0.0,0.0,0.0,0.0,0.0,0.0,0.0,0.0,0.0,0.0,0.0,0.0,0.0,0.0,0.0,0.0,0.0,0.0,0.0,0.0,0.0,0.0,0.0,0.0,0.0,0.0,0.0,0.0,0.0,0.0,0.0,0.0,0.0,0.0,0.0,0.0,0.0,0.0,0.0,0.0,0.0,0.0,0.0,0.0,0.0,0.0,0.0,0.0,0.0,0.0,0.0,0.0,0.0,0.0,0.0,0.0,0.0,0.0,0.0,0.0,0.0,0.0,0.0,0.0,0.0,0.0,0.0,0.0,0.0,0.0,0.0,0.0,0.0,0.0,0.0,0.0,0.0,0.0,0.0,0.0,0.0,0.0,0.0,0.0,0.0,0.0,0.0,0.0,0.0,0.0,0.0,0.0,0.0,0.0,0.0,0.0,0.0,0.0,0.0,0.0,0.0,0.0,0.0,0.0,0.0,0.0,0.0,0.0,0.0,0.0,0.0,0.0,0.0,0.0,0.0,0.0,0.0,0.0,0.0,0.0,0.0,0.0,0.0,0.0,0.0,0.0,0.0,0.0,0.0,0.0,0.0,0.0,0.0,0.0,0.0,0.0,0.0,0.0,0.0,0.0,0.0,0.0,0.0,0.0,0.0,0.0,0.0,0.0,0.0,0.0,0.0,0.0,0.0,0.0,0.0,0.0,0.0,0.0,0.0,0.0,0.0,0.0,0.0,0.0,0.0,0.0,0.0,0.0,0.0,0.0,0.0,0.0,0.0,0.0,0.0,0.0,0.0,0.0,0.0,0.0,0.0,0.0,0.0,0.0,0.0,0.0,0.0,0.0,0.0,0.0,0.0,0.0,0.0,0.0,0.0,0.0,0.0,0.0,0.0,0.0,0.0,0.0,0.0,0.0,0.0,0.0,0.0,0.0,0.0,0.0,0.0,0.0,0.0,0.0,0.0,0.0,0.0,0.0,0.0,0.0,0.0,0.0,0.0,0.0,0.0,0.0,0.0,0.0,0.0,0.0,0.0,0.0,0.0,0.0,0.0,0.0,0.0,0.0,0.0,0.0,0.0,0.0,0.0,0.0,0.0,0.0,0.0,0.0,0.0,0.0,0.0,0.0,0.0,0.0,0.0,0.0,0.0,0.0,0.0,0.0,0.0,0.0,0.0,0.0,0.0,0.0,0.0,0.0,0.0,0.0,0.0,0.0,0.0,0.0,0.0,0.0,0.0,0.0,0.0,0.0,0.0,0.0,0.0,0.0,0.0,0.0,0.0,0.0,0.0,0.0,0.0,0.0,0.0,0.0,0.0,0.0,0.0,0.0,0.0,0.0,0.0,0.0,0.0,0.0,0.0,0.0,0.0,0.0,0.0,0.0,0.0,0.0,0.0,0.0,0.0,0.0,0.0,0.0,0.0,0.0,0.0,0.0,0.0,0.0,0.0,0.0,0.0,0.0,0.0,0.0,0.0,0.0,0.0,0.0,0.0,0.0,0.0,0.0,0.0,0.0,0.0,0.0,0.0,0.0,0.0,0.0,0.0,0.0,0.0,0.0,0.0,0.0,0.0,0.0,0.0,0.0,0.0,0.0,0.0,0.0,0.0,0.0,0.0,0.0,0.0,0.0,0.0,0.0,0.0,0.0,0.0,0.0,0.0,0.0,0.0,0.0,0.0,0.0,0.0,0.0,0.0,0.0,0.0,0.0,0.0,0.0,0.0,0.0,0.0,0.0,0.0,0.0,0.0,0.0,0.0,0.0,0.0,0.0,0.0,0.0,0.0,0.0,0.0,0.0,0.0,0.0,0.0,0.0,0.0,0.0,0.0,0.0,0.0,0.0,0.0,0.0,0.0,0.0,0.0,0.0,0.0,0.0,0.0,0.0,0.0,0.0,0.0,0.0,0.0,0.0,0.0,0.0,0.0,0.0,0.0,0.0,0.0,0.0,0.0,0.0,0.0,0.0,0.0,0.0,0.0,0.0,0.0,0.0,0.0,0.0,0.0,0.0,0.0,0.0,0.0,0.0,0.0,0.0,0.0,0.0,0.0,0.0,0.0,0.0,0.0,0.0,0.0,0.0,0.0,0.0,0.0,0.0,0.0,0.0,0.0,0.0,0.0,0.0,0.0,0.0,0.0,0.0,0.0,0.0,0.0,0.0,0.0,0.0,0.0,0.0,0.0,0.0,0.0,0.0,0.0,0.0,0.0,0.0,0.0,0.0,0.0,0.0,0.0,0.0,0.0,0.0,0.0,0.0,0.0,0.0,0.0,0.0,0.0,0.0,0.0,0.0,0.0,0.0,0.0,0.0,0.0,0.0,0.0,0.0,0.0,0.0,0.0,0.0,0.0,0.0,0.0,0.0,0.0,0.0,0.0,0.0,0.0,0.0,0.0,0.0,0.0,0.0,0.0,0.0,0.0,0.0,0.0,0.0,0.0,0.0,0.0,0.0,0.0,0.0,0.0,0.0,0.0,0.0,0.0,0.0,0.0,0.0,0.0,0.0,0.0,0.0,0.0,0.0,0.0,0.0,0.0,0.0,0.0,0.0,0.0,0.0,0.0,0.0,0.0,0.0,0.0,0.0,0.7307,0.6453,0.0,0.0,0.0,0.0,0.0,0.0,0.0,0.0,0.0,0.0,0.0,0.0,0.0,0.0,0.0,0.0,0.0,0.0,0.0,0.0,0.0,0.0,0.0,0.0,0.0,0.0,0.0,0.0,0.0,0.0,0.0,0.0,0.0,0.0,0.0,0.0,0.0,0.0,0.0,0.0,0.0,0.0,0.0,0.0,0.0,0.0,0.0,0.0,0.0,0.0,0.0,0.0,0.0,0.0,0.0,0.0,0.0,0.0,0.0,0.0,0.0,0.0,0.0,0.0,0.0,0.0,0.0,0.0,0.0,0.0,0.0,0.0,0.0,0.0,0.0,0.0,0.0,0.0,0.0,0.0,0.0,0.0,0.0,0.0,0.0,0.0,0.0,0.0,0.0,0.0,0.0,0.0,0.0,0.0,0.0,0.0,0.0,0.0,0.0,0.0,0.0,0.0,0.0,0.0,0.0,0.0,0.0,0.0,0.0,0.0,0.0,0.0,0.0,0.0,0.8668,0.764,0.0,0.0,0.0,0.0,0.0,0.0,0.0,0.0,0.0,0.0,0.0,0.0,0.0,0.0,0.0,0.0,0.0,0.0,0.0,0.0,0.0,0.0,0.0,0.0,0.0,0.0,0.0,0.0,0.0,0.0,0.0,0.0,0.0,0.0,0.0,0.0,0.0,0.0,0.0,0.0,0.0,0.0,0.0,0.0,0.0,0.0,0.0,0.0,0.0,0.0,0.0,0.0,0.0,0.0,0.0,0.0,0.0,0.0,0.0,0.0,0.0,0.0,0.0,0.0,0.0,0.0,0.0,0.0,0.0,0.0,0.0,0.0,0.0,0.0,0.0,0.0,0.0,0.0,0.0,0.0,0.0,0.0,0.0,0.0,0.0,0.0,0.0,0.0,0.0,0.0,0.0,0.0,0.0,0.0,0.0,0.0,0.0,0.0,0.0,0.0,0.0,0.0,0.0,0.0,0.0,0.0,0.0,0.0,1.4027,1.3903,1.3657,1.314,1.2694,1.2188,1.053,0.9366,0.861,0.8143,0.0,0.0,0.0,0.0,0.0,0.0,0.0,0.0,0.0,0.0,0.0,0.0,0.0,0.0,0.0,0.0,0.0,0.0,0.0,0.0,0.0,0.0,0.0,0.0,0.0,0.0,0.0,0.0,0.0,0.0,0.0,0.0,0.0,0.0,0.0,0.0,0.0,0.0,1.7839,1.8202,1.8358,1.8195,0.0,0.0,0.0,0.0,0.0,0.0,0.0,0.0,0.0,0.0,0.0,0.0,0.0,0.0,0.0,0.0,0.0,0.0,0.0,0.0,0.0,0.0,0.0,0.0,0.0,0.0,0.0,0.0,0.0,0.0,0.0,0.0,0.0,0.0,0.0,0.0,0.0,0.0,0.0,0.0,0.0,0.0,0.0,0.0,1.4204,1.395,0.0,0.0,0.0,0.0,0.0,0.0,0.0,0.0,0.0,0.0,0.0,0.0,0.0,1.5242,1.5618,1.5908,1.5846,1.5404,1.5817,1.5689,1.5234,1.5153,1.466,1.3911,1.3421,0.0,1.033,0.9654,0.0,0.0,0.0,0.0,0.0,0.0,0.0,0.0,0.0,0.0,0.0,0.0,0.0,0.0,0.0,0.0,0.0,0.0,0.0,0.0,0.0,0.0,0.0,0.0,0.0,0.0,0.0,0.0,0.0,0.0,0.0,0.0,0.0,0.0,0.0,0.0,1.7324,1.8533,1.9144,1.9559,1.9953,2.0181,1.8968,1.7952,1.7154,1.6127,0.0,0.0,0.0,0.0,0.0,0.0,0.0,0.0,0.0,0.0,0.0,0.0,0.0,0.0,0.0,0.0,0.0,0.0,0.0,0.0,0.0,0.0,0.0,0.0,0.0,0.0,0.0,0.0,0.0,0.0,0.0,0.0,0.0,0.0,0.0,0.0,0.0,0.0,0.0,1.4775,1.5277,1.5742,1.5901,1.5908,0.0,0.0,0.0,0.0,0.0,0.0,0.0,0.0,0.0,1.702,1.6857,1.6893,1.7094,1.7467,1.7451,1.7138,1.7169,1.6999,1.68,1.6294,1.5778,1.5425,1.4831,1.4018,1.3016,1.1491,1.0472,0.9764,0.0,0.0,0.0,0.0,0.6653,0.6223,0.0,0.0,0.0,0.0,0.0,0.0,0.0,0.0,0.0,0.0,0.0,0.0,0.0,0.0,0.0,1.342,0.0,0.0,0.0,0.0,0.0,0.0,0.0,0.0,0.0,0.0,0.0,0.0,1.8618,1.9534,2.021,2.0528,2.0828,2.1119,2.0316,1.9321,1.8172,1.7408,1.6475,0.0,0.0,0.0,0.0,0.0,0.0,0.0,0.0,0.0,0.0,0.0,0.0,0.0,0.0,0.0,0.0,0.0,0.0,0.0,0.0,0.0,0.0,0.0,0.0,0.0,0.0,0.0,0.0,0.0,0.0,0.0,0.0,0.0,0.0,0.0,0.0,0.0,0.0,1.5975,1.6495,1.7334,1.7543,1.7623,0.0,0.0,0.0,0.0,0.0,0.0,1.7625,1.7619,1.7963,1.8692,1.8488,1.8452,1.862,1.8789,1.8785,1.8634,1.8387,1.8177,1.8176,1.7461,1.7056,1.6865,1.6141,1.5688,1.5337,1.3163,1.1882,1.1211,1.0387,0.9621,0.895,0.8396,0.7836,0.7354,0.0,0.0,0.0,0.0,0.0,0.0,0.0,0.0,0.0,0.0,0.0,0.0,0.0,0.0,1.3312,1.4342,1.4477,1.458,0.0,0.0,0.0,0.0,0.0,0.0,0.0,0.0,0.0,1.9441,1.9399,1.9871,2.0742,2.0779,2.0677,2.0517,2.0469,2.0177,1.9571,1.7897,1.6898,1.6391,0.0,0.0,0.0,0.0,0.0,0.0,0.0,0.0,0.0,0.0,0.0,0.0,0.0,0.0,0.0,0.0,0.0,0.0,0.0,0.0,0.0,0.0,0.0,0.0,0.0,0.0,0.0,0.0,0.0,0.0,0.0,0.0,0.0,0.0,0.0,0.0,0.0,0.0,0.0,1.8328,1.919,0.0,0.0,0.0,0.0,1.8742,1.9283,1.9573,1.9377,1.9573,1.9989,2.0434,2.0068,1.987,2.0102,1.9894,1.9661,1.965,1.9419,1.9266,1.9178,1.9186,1.8785,1.8203,1.8105,1.7619,1.654,1.4359,1.3207,1.2692,1.1987,1.1133,1.0235,0.9976,0.9278,0.8491,0.0,0.0,0.0,0.0,0.0,0.0,0.0,0.0,0.0,0.0,0.0,0.0,0.0,1.3651,1.4425,1.4911,1.5264,1.5409,1.52,0.0,0.0,0.0,0.0,0.0,0.0,0.0,1.8545,1.9263,2.0089,2.0672,2.0997,2.1284,2.1244,2.1075,2.0686,2.0393,2.0074,1.8819,1.8043,1.7532,1.6551,1.5653,0.0,0.0,0.0,0.0,0.0,0.0,0.0,0.0,0.0,0.0,0.0,0.0,0.0,0.0,0.0,0.0,0.0,0.0,0.0,0.0,0.0,0.0,0.0,0.0,0.0,0.0,0.0,0.0,0.0,0.0,0.0,0.0,0.0,0.0,0.0,0.0,0.0,1.975,2.0328,0.0,2.0706,2.0849,2.086,2.0522,2.0878,2.0991,2.0769,2.0755,2.0813,2.0955,2.0801,2.0674,2.0571,2.0553,2.0606,2.0629,2.0263,2.0162,2.0183,1.9878,1.9369,1.8799,1.8405,1.7903,1.7179,1.6064,1.4949,1.3752,1.3053,1.2237,1.1431,1.0895,1.0353,0.9804,0.0,0.0,0.0,0.0,0.0,0.0,0.0,0.0,0.0,0.0,0.0,1.2317,1.3021,1.4229,1.5145,1.5567,1.5804,1.5928,1.5844,0.0,0.0,0.0,0.0,0.0,0.0,1.8316,1.9186,1.9725,2.0617,2.1054,2.1108,2.1397,2.1423,2.1135,2.0802,2.0499,2.0171,1.9506,1.8854,1.8152,1.7464,1.6658,1.5849,0.0,0.0,0.0,0.0,0.0,0.0,0.0,0.0,0.0,0.0,0.0,0.0,0.0,0.0,0.0,0.0,0.0,0.0,0.0,0.0,0.0,0.0,0.0,0.0,0.0,0.0,0.0,0.0,0.0,0.0,0.0,0.0,0.0,0.0,1.9714,2.0336,2.1251,2.1572,2.1838,2.2168,2.2242,2.2161,2.1852,2.214,2.2209,2.203,2.1928,2.1873,2.2015,2.185,2.1642,2.1472,2.1445,2.1437,2.1515,2.1037,2.0861,2.085,2.0541,2.0016,1.943,1.9029,1.852,1.7806,1.7406,1.6327,1.4955,1.413,1.3383,1.2617,1.205,1.1426,1.0782,0.0,0.0,0.0,0.0,0.0,0.0,0.0,0.0,0.0,0.0,1.1686,1.2726,1.3771,1.4494,1.5314,1.6301,1.6035,1.6053,1.673,1.6292,0.0,0.0,0.0,0.0,1.8869,1.8822,1.9471,2.0887,2.0899,2.0985,2.1158,2.1158,2.1042,2.0669,2.0669,2.0411,1.9901,1.9901,1.9301,1.834,1.8468,1.7611,1.6255,0.0,0.0,0.0,0.0,0.0,0.0,0.0,0.0,0.0,0.0,0.0,0.0,0.0,0.0,0.0,0.0,0.0,0.0,0.0,0.0,0.0,0.0,0.0,0.0,0.0,0.0,0.0,0.0,0.0,0.0,0.0,0.0,0.0,2.061,2.0922,2.1615,2.2741,2.2908,2.3026,2.3115,2.3335,2.3296,2.2583,2.2986,2.3172,2.3154,2.3028,2.3256,2.3663,2.313,2.2857,2.2857,2.247,2.2176,2.2194,2.1718,2.1345,2.123,2.123,2.0801,2.0078,2.0078,1.9457,1.8401,1.8107,1.736,1.62,1.5413,1.4593,1.3868,1.3577,1.271,1.1381,0.0,0.0,0.0,0.0,0.0,0.0,0.0,0.0,0.0,0.0,1.199,1.3162,1.3818,1.4771,1.5463,1.5702,1.5641,1.5662,1.5849,0.0,0.0,0.0,0.0,0.0,1.8614,1.9551,2.0263,2.0694,2.083,2.0957,2.0967,2.0914,2.0733,2.0475,2.0475,2.0333,2.0083,2.0211,1.9883,1.9197,1.9016,1.8476,1.7763,0.0,0.0,0.0,0.0,0.0,0.0,0.0,0.0,0.0,0.0,0.0,0.0,0.0,0.0,0.0,0.0,0.0,0.0,0.0,0.0,0.0,0.0,0.0,0.0,0.0,0.0,0.0,0.0,0.0,0.0,0.0,2.0807,2.1458,2.1483,2.2309,2.3116,2.3616,2.3766,2.3863,2.4094,2.4019,2.395,2.3911,2.4082,2.4068,2.4043,2.3712,2.3559,2.3672,2.313,2.2857,2.2857,2.265,2.2509,2.2602,2.232,2.1931,2.1585,2.1585,2.1017,2.0078,2.0078,1.9457,1.8415,1.8331,1.7671,1.6571,1.589,1.5095,1.4174,1.3868,1.291,1.1728,0.0,0.0,0.0,0.0,0.0,0.0,0.0,0.0,0.0,0.0,1.2197,1.343,1.3732,1.4771,1.5517,1.574,1.5598,1.5608,1.5843,0.0,0.0,0.0,0.0,1.8885,1.9051,2.0016,2.0626,2.0834,2.0882,2.0839,2.0786,2.0669,2.0475,2.027,2.027,2.0216,2.0074,2.0216,2.0105,1.983,1.9805,1.9365,1.8661,1.8532,1.8306,1.7999,1.7479,1.7294,1.7264,1.6999,0.0,0.0,0.0,0.0,0.0,0.0,0.0,0.0,0.0,0.0,0.0,0.0,0.0,0.0,0.0,0.0,0.0,0.0,0.0,0.0,0.0,0.0,0.0,0.0,2.197,2.2731,2.297,2.3453,2.3949,2.4426,2.4324,2.4388,2.4597,2.4661,2.4567,2.4474,2.4686,2.4796,2.4668,2.4229,2.4023,2.4193,2.3734,2.3455,2.3455,2.3253,2.308,2.301,2.2723,2.2338,2.1725,2.1725,2.1105,2.0078,2.0078,1.9457,1.8422,1.8422,1.7681,1.6698,0.0,0.0,0.0,0.0,1.2987,1.204,0.0,0.0,0.0,0.0,0.0,0.0,0.0,0.0,0.0,0.0,0.0,1.3524,1.3581,1.4552,1.5428,1.5939,1.5648,1.5727,0.0,0.0,0.0,1.7885,1.8724,1.9436,1.9912,2.03,2.071,2.1221,2.0967,2.085,2.0669,2.0475,2.0281,2.0085,2.0085,2.0085,2.0085,2.014,2.0162,2.0271,2.0751,2.0324,1.9282,1.9293,1.9354,1.9287,1.9043,1.8908,1.8885,1.8704,0.0,0.0,0.0,0.0,0.0,0.0,0.0,0.0,0.0,0.0,0.0,0.0,0.0,0.0,0.0,0.0,0.0,0.0,0.0,0.0,0.0,0.0,0.0,0.0,2.3074,2.4126,2.4658,2.4374,2.4412,2.5113,2.4787,2.4619,2.4988,2.5072,2.5009,2.4655,2.5028,2.5255,2.5212,2.4679,0.0,0.0,0.0,2.4152,2.4152,2.3954,2.3655,2.3447,2.3147,2.2535,2.1725,2.1725,2.1105,2.0078,2.0078,1.9457,1.8422,1.8422,1.7681,1.673,1.6518,1.5885,1.4798,1.3508,1.2901,1.2558,0.0,0.0,0.0,0.0,0.0,0.0,0.0,0.0,0.0,1.0478,1.1877,1.3066,1.3547,1.4198,1.4773,1.5257,1.5211,1.5591,0.0,0.0,1.7739,1.8675,1.9252,1.9828,2.0312,2.0756,2.1129,2.1221,2.0914,2.0733,2.0669,2.0346,2.0151,2.0085,2.0085,2.0085,2.0107,2.0555,2.0729,2.0762,2.1254,2.1114,2.0567,2.0643,2.0709,2.0599,1.9901,1.976,1.9791,1.9481,1.9425,1.9435,1.9183,0.0,0.0,0.0,0.0,0.0,0.0,0.0,0.0,0.0,0.0,0.0,0.0,0.0,0.0,0.0,0.0,0.0,0.0,0.0,0.0,2.3109,2.3838,2.4456,2.4986,2.4962,2.5107,2.5481,2.5083,2.4998,2.5375,2.5259,2.5265,2.552,2.5651,2.562,2.5586,2.5111,2.4846,2.4932,2.4449,2.4152,2.4152,2.3954,2.3655,2.3447,2.3147,0.0,2.1725,2.1725,2.1105,2.0078,2.0078,1.9457,1.8422,1.8422,1.7681,1.6624,1.5672,1.5143,1.4815,1.3696,1.3249,1.3023,0.0,0.0,0.0,0.0,0.0,0.0,0.0,0.0,0.0,0.0,1.1511,1.2548,1.3089,1.3643,1.4189,1.4706,1.497,0.0,0.0,1.6853,1.7565,1.8839,1.9413,1.9918,2.04,2.0905,2.1221,2.1221,2.085,2.0669,2.0669,2.0281,2.0205,2.05,2.05,2.0642,2.0882,2.1123,2.1221,2.1265,2.1756,2.1811,2.1559,2.1388,2.1369,2.1303,2.0941,2.0885,2.0872,2.0583,2.0444,2.032,1.9993,1.9541,1.9142,0.0,0.0,0.0,0.0,0.0,0.0,0.0,0.0,0.0,0.0,0.0,0.0,0.0,0.0,2.0865,2.1124,0.0,2.3406,2.392,2.4403,2.4872,2.5094,2.5105,2.5126,2.5211,2.5073,2.5049,2.5357,2.5341,2.5482,2.5782,2.5929,2.5777,2.5528,2.5137,2.4833,2.4735,2.435,2.4152,2.4152,2.3954,2.3655,2.3447,2.3147,2.2535,2.1725,2.1725,2.1105,2.0078,2.0078,1.9457,1.8318,1.7786,1.7259,1.6624,1.5464,1.5041,1.4821,1.3748,1.3315,1.3098,0.0,0.0,0.0,0.0,0.0,0.0,0.0,0.0,0.0,0.0,1.1,1.1952,1.2449,1.3026,1.3655,0.0,0.0,0.0,0.0,1.6615,1.7397,1.8908,1.9459,1.9964,2.0549,2.0951,2.1158,2.1158,2.0952,2.0815,2.0738,2.0512,2.0631,2.107,2.107,2.1221,2.1592,2.1691,2.1734,2.1778,2.2258,2.2455,2.2411,2.2007,2.1865,2.1832,2.1776,2.1768,2.1749,2.133,2.1059,2.0835,2.0563,2.0217,1.9912,1.9598,1.9165,0.0,0.0,0.0,0.0,0.0,0.0,0.0,0.0,0.0,2.0093,2.0951,2.1809,2.2373,2.2362,2.3441,2.434,2.4389,2.4818,2.5094,2.5093,2.4911,2.4708,2.4708,2.4732,2.4919,2.5129,2.5329,2.5574,2.5819,2.5998,2.581,2.5333,2.503,2.4735,2.4538,2.4341,2.4152,2.4152,2.3854,2.3555,2.3347,2.3046,2.2443,2.1725,2.1725,2.1105,2.0086,1.9872,1.9146,1.8213,1.7153,1.6624,1.6411,1.5357,1.4934,1.4713,1.364,1.3315,1.3098,0.0,0.0,0.0,0.0,0.0,0.0,0.0,0.0,0.0,0.0,0.0,0.0,0.0,0.0,0.0,0.0,0.0,0.0,1.6165,1.6802,1.7761,1.9258,1.9584,2.0125,2.1118,2.1198,2.1094,2.0903,2.1171,2.1252,2.103,2.1289,2.1461,2.1505,2.1505,2.1538,2.1614,2.2051,2.2237,2.228,2.2739,2.2925,2.2925,2.2859,2.2848,2.2739,2.1887,2.171,2.1705,2.0798,2.0584,2.0722,2.0666,2.0443,2.0148,2.0262,0.0,1.9773,1.9819,1.9947,1.9947,1.9794,2.0059,2.0568,0.0,0.0,2.1965,2.2717,2.3271,2.3482,2.3243,2.3896,2.4514,2.45,2.4734,2.4872,2.4636,2.4433,2.4155,2.3937,2.411,2.4533,2.5118,2.524,2.5428,2.6058,2.5868,2.5606,2.5333,2.4833,2.4529,2.4529,2.4341,2.4053,2.3854,2.3546,2.3347,2.3046,2.2745,2.2342,2.1725,2.1725,2.1105,2.0078,1.9042,1.8213,1.7687,1.6942,1.6418,1.5891,1.525,1.4713,1.4169,1.3527,1.3098,1.2772,0.0,0.0,0.0,0.0,0.0,0.0,0.0,0.0,0.0,0.0,0.0,0.0,0.0,0.0,0.0,0.0,0.0,0.0,1.5729,1.6317,1.745,1.9219,1.9369,1.9905,2.0892,2.0914,2.085,2.0786,2.1085,2.1174,2.1107,2.1421,2.1745,2.2018,2.2018,2.216,2.2422,2.263,2.2717,2.2728,2.2925,2.3001,2.2968,2.2706,2.2608,2.2553,2.216,2.1892,0.0,0.0,2.082,2.0896,2.0629,2.0523,2.0493,2.0545,2.0257,0.0,2.0323,2.0631,2.1034,2.1498,2.1585,2.1776,2.2765,2.2837,2.2885,2.3403,2.3853,2.4095,2.4015,2.4477,2.486,2.4564,2.4598,2.4544,2.417,2.4013,2.3911,2.364,2.3801,2.4234,2.5148,2.5087,2.5252,2.5828,2.5616,2.5323,2.4833,2.4637,2.4332,2.4143,2.4053,2.3854,2.3555,2.3347,2.3147,2.2946,2.2544,2.2131,2.1725,2.142,2.0609,1.9576,1.8736,1.8108,1.7582,1.6942,1.6418,1.5891,1.525,1.4713,1.4169,1.3532,1.2989,1.255,0.0,0.0,0.0,0.0,0.0,0.0,0.0,0.0,0.0,0.0,0.0,0.0,0.0,0.0,0.0,0.0,0.0,0.0,0.0,1.5775,1.6888,1.8639,1.9044,1.9582,2.0434,2.0602,2.0669,2.0604,2.0941,2.1174,2.1261,2.1618,2.2051,2.251,2.251,2.2695,2.3001,2.3001,2.3001,2.3001,2.3001,2.2925,2.2772,2.2444,2.2078,2.1849,2.192,2.1603,0.0,0.0,2.0522,2.0577,2.0246,2.0364,2.0604,2.0604,2.0448,2.0351,2.0886,2.134,2.1856,2.2694,2.2783,2.2875,2.3708,2.3656,2.3467,2.3953,2.424,2.4388,2.4305,2.4556,2.468,2.4402,2.433,2.4129,2.373,2.361,2.3604,2.3446,2.3515,2.3916,2.4888,2.4805,2.4912,2.545,2.5226,2.4833,2.443,2.4341,2.4143,2.3646,2.3655,2.3546,2.3247,2.3147,2.2946,2.2846,2.2333,2.1928,2.1725,2.1019,2.0094,1.916,1.8632,1.8003,1.7364,1.6836,1.6311,1.5571,1.5143,1.4606,1.3846,1.3423,1.2881,1.2219,0.0,0.0,0.0,0.0,0.0,0.0,0.0,0.0,0.0,0.0,0.0,0.0,0.0,0.0,0.0,0.0,0.0,0.0,0.0,1.529,1.642,1.7523,1.8617,1.9414,1.9907,2.0411,2.0604,2.041,2.0875,2.1283,2.1581,2.2062,2.2542,2.2979,2.2979,2.299,2.3001,2.3001,2.3001,2.3001,2.3001,2.2739,2.2335,2.2324,2.1583,2.0701,2.0904,0.0,0.0,0.0,1.9462,1.9452,1.9441,1.9896,0.0,2.041,2.0742,2.1239,2.1964,2.2356,2.2617,2.3033,2.3413,2.3892,2.4381,2.423,2.419,2.4405,2.4337,2.409,2.3907,2.3831,2.382,2.3846,2.38,2.3774,2.3573,2.3271,2.3181,2.3335,2.3215,2.3383,2.4259,2.4307,2.4477,2.4903,2.4637,2.443,2.4134,2.3945,2.3646,2.3447,2.3447,2.3247,2.3046,2.3046,2.2846,2.2653,2.2232,2.1928,2.1623,2.0593,1.9665,1.8826,1.852,1.7786,1.673,1.673,1.5992,1.5035,1.5041,1.4283,1.3315,1.3315,1.2767,1.2005,0.0,0.0,0.0,0.0,0.0,0.0,0.0,0.0,0.0,0.0,0.0,0.0,0.0,0.0,0.0,0.0,0.0,0.0,0.0,1.4258,1.5361,1.6968,1.7402,1.7991,1.8772,1.9271,1.9457,1.9393,2.0191,2.0733,2.0986,2.1393,2.1951,2.2553,2.2553,2.2717,2.3001,2.3001,2.2742,2.2375,2.2375,2.1948,2.1414,2.1124,2.054,1.9873,0.0,0.0,0.0,1.8781,1.862,1.8674,1.8985,1.92,1.9523,2.0159,2.114,2.1994,2.2232,2.2819,2.3466,2.3682,2.375,2.3908,2.4209,2.4047,2.3917,2.3983,2.4013,2.3937,2.3841,2.3841,2.3744,2.3647,2.3414,2.3327,2.3378,2.3164,2.321,2.3514,2.3601,2.3629,2.3749,2.4125,2.4303,2.4402,2.4332,2.4035,2.3646,2.3546,2.3447,2.3147,2.3402,2.3329,2.3023,2.3023,2.2929,2.2612,2.1747,2.1113,2.0593,1.9887,1.9153,1.852,1.8108,1.747,1.673,1.653,1.5891,1.5041,1.5041,1.4283,1.3315,1.3315,1.2663,1.1678,0.0,0.0,0.0,0.0,0.0,0.0,0.0,0.0,0.0,0.0,0.0,0.0,0.0,0.0,0.0,0.0,0.0,0.0,0.0,0.0,1.4384,1.5659,1.6279,1.6969,1.7631,1.8267,1.8585,1.8647,1.9424,1.9959,2.0275,2.0689,2.1231,2.1826,2.1826,2.1988,2.2258,2.2258,2.2013,2.165,2.165,2.1193,2.0456,2.0169,1.9603,0.0,0.0,0.0,0.0,1.798,1.8041,1.8243,1.8552,1.8998,1.9584,2.053,2.1417,2.2239,2.2587,2.3081,2.3608,2.3887,2.3926,2.3829,2.4039,2.3851,2.3627,2.3467,2.3352,2.3216,2.3047,2.3071,2.3006,2.292,2.2882,2.2979,2.3223,2.3085,2.3094,2.361,2.3654,2.3601,2.3483,2.3758,2.3966,2.3818,2.3836,2.3646,2.3247,2.3379,2.3358,2.3054,2.3427,2.3418,2.3114,2.3114,2.2942,2.2391,2.1401,2.0609,2.0078,1.9583,1.8959,1.8422,1.7793,1.7259,1.6624,1.6318,1.5678,1.4928,1.4821,1.4175,1.3315,1.3207,1.255,1.1568,0.0,0.0,0.0,0.0,0.0,0.0,0.0,0.0,0.0,0.0,0.0,0.0,0.0,0.0,0.0,0.0,0.0,0.0,0.0,0.0,0.0,1.3641,1.533,1.6342,1.6585,1.741,1.7933,1.8055,1.8532,1.9009,1.9552,1.9931,2.0445,2.0881,2.0881,2.0892,2.0913,2.0913,2.0892,2.0881,2.0881,2.0339,1.9475,1.9475,0.0,0.0,0.0,0.0,0.0,1.736,1.7828,1.8203,1.8203,1.9189,2.0525,2.1405,2.1711,2.1999,2.2876,2.3206,2.3328,2.3644,2.3754,2.3754,2.3754,2.356,2.3268,2.2948,2.251,2.2015,0.0,0.0,2.1807,2.1826,2.2148,2.252,2.2909,2.2799,2.2927,0.0,0.0,0.0,0.0,0.0,2.3356,2.3373,2.3382,2.3282,2.2972,2.3245,2.335,2.3039,2.3502,2.3487,2.3185,2.3185,2.278,2.1877,2.1219,2.0624,2.0086,1.9472,1.8959,1.8318,1.7793,1.7265,1.6624,1.6099,1.5571,1.4928,1.4385,1.3846,1.3315,1.2989,1.2332,1.1568,0.0,0.0,0.0,0.0,0.0,0.0,0.0,0.0,0.0,0.0,0.0,0.0,0.0,0.0,0.0,0.0,0.0,0.0,0.0,0.0,0.0,0.0,0.0,0.0,0.0,0.0,0.0,0.0,0.0,1.7544,1.826,1.8375,1.8807,1.9521,1.9521,1.9703,2.0012,2.0012,1.9754,1.9325,0.0,1.8847,1.8197,0.0,0.0,0.0,0.0,0.0,0.0,0.0,0.0,1.8592,1.8461,1.9634,2.1043,2.1267,2.2046,2.2889,2.3122,2.3432,2.3614,2.3377,2.3319,2.3232,2.2872,2.2466,2.2217,2.2112,2.174,2.1398,2.1284,2.1351,2.1447,2.1779,2.1752,2.2013,2.2802,2.2686,0.0,2.3329,0.0,2.3125,2.2745,2.2736,2.2655,2.2543,2.2972,2.3074,2.2766,2.2913,2.2911,2.2911,2.3253,2.3328,2.3328,2.3119,2.2476,2.1554,2.0934,2.0233,1.948,1.8952,1.8318,1.7793,1.7153,1.663,1.6105,1.569,1.5256,1.4713,1.4277,1.3846,1.3207,1.2767,1.2114,1.1568,0.0,0.0,0.0,0.0,0.0,0.0,0.0,0.0,0.0,0.0,0.0,0.0,0.0,0.0,0.0,0.0,0.0,0.0,0.0,0.0,0.0,0.0,0.0,0.0,0.0,0.0,0.0,0.0,0.0,0.0,0.0,1.7042,1.7492,1.7936,1.8145,1.8427,1.8657,1.8657,0.0,0.0,0.0,0.0,0.0,0.0,0.0,0.0,0.0,0.0,0.0,0.0,0.0,1.8816,1.9465,2.0326,2.1121,2.15,2.2125,2.2764,2.2764,2.2985,2.3135,2.2882,2.2794,2.2658,2.2214,2.1845,2.1447,2.1087,2.0589,2.0231,2.0042,2.0226,2.0447,0.0,0.0,0.0,2.2419,2.2478,2.253,0.0,2.3033,0.0,2.2215,2.2274,2.2364,2.227,2.2599,2.2778,2.2728,2.2873,2.3062,2.3062,2.3417,2.3488,2.3156,2.2774,2.2174,2.1472,2.078,2.0186,1.9696,1.8835,1.8191,1.7868,1.7213,1.6671,1.6132,1.5805,1.5195,1.4549,1.4107,1.3505,1.2891,1.2435,1.1917,1.1266,0.0,0.0,0.0,0.0,0.0,0.0,0.0,0.0,0.0,0.0,0.0,0.0,0.0,0.0,0.0,0.0,0.0,0.0,0.0,0.0,0.0,0.0,0.0,0.0,0.0,0.0,0.0,0.0,0.0,0.0,0.0,0.0,0.0,0.0,0.0,0.0,0.0,0.0,0.0,0.0,0.0,0.0,0.0,0.0,0.0,0.0,0.0,0.0,0.0,0.0,1.7982,1.8874,2.0522,2.0966,2.0977,2.1781,2.2078,2.216,2.2074,2.2254,2.2353,2.2264,2.2217,2.2086,2.1738,2.1231,2.0649,1.9944,1.935,1.8759,1.8397,1.8755,1.9143,1.9462,0.0,2.0902,2.183,2.2012,2.218,2.2315,2.241,2.2155,2.1689,2.1993,2.2223,2.2217,2.2225,2.2356,2.2782,2.3018,2.3206,2.3096,2.3525,2.3352,2.2901,2.2258,2.1865,2.1494,2.0656,2.0172,2.0019,1.8919,1.8366,1.8255,1.7353,1.6794,1.6464,1.5896,1.5205,1.4473,1.38,1.3125,1.2435,1.2176,1.1677,1.0908,0.0,0.0,0.0,0.0,0.0,0.0,0.0,0.0,0.0,0.0,0.6474,0.6513,0.0,0.0,0.0,0.0,0.0,0.0,0.0,0.0,0.0,0.0,0.0,0.0,0.0,0.0,0.0,0.0,0.0,0.0,0.0,0.0,0.0,0.0,0.0,0.0,0.0,0.0,0.0,0.0,0.0,0.0,0.0,0.0,0.0,0.0,0.0,0.0,0.0,0.0,1.7919,1.9219,2.0081,2.0726,2.1234,2.174,2.2092,2.2328,2.2161,2.2129,2.2097,2.166,2.1307,2.1044,2.0806,1.9874,0.0,1.8931,1.8348,1.7845,1.7773,1.7796,1.8118,1.8736,1.9244,1.9903,2.0829,2.1331,2.1585,0.0,2.186,2.1783,2.1441,2.1562,2.1581,2.172,2.1759,2.2112,2.2824,2.2736,2.2589,2.2363,2.2418,2.2335,2.2222,2.2168,2.1662,2.0832,2.0669,2.005,1.9133,1.8588,1.8144,1.7706,1.7024,1.6346,1.589,1.5214,1.4745,1.4385,1.3468,1.2984,1.2729,1.174,1.129,1.0954,0.0,0.0,0.0,0.0,0.0,0.0,0.0,0.5723,0.6127,0.6331,0.6465,0.6649,0.6899,0.6983,0.0,0.0,0.0,0.0,0.0,0.0,0.0,0.0,0.0,0.0,0.0,0.0,1.0514,1.074,0.0,0.0,1.2304,1.2776,1.3171,1.3537,0.0,0.0,0.0,0.0,0.0,0.0,0.0,0.0,0.0,0.0,0.0,0.0,0.0,0.0,0.0,0.0,1.7307,1.8231,1.9712,2.0517,2.0978,2.1447,2.1673,2.1624,2.1544,2.1544,2.1409,2.1042,2.0756,2.0443,1.9742,0.0,0.0,1.7623,1.6856,1.6315,1.6315,1.6723,0.0,1.7784,1.8329,1.9019,2.0159,2.054,2.0786,2.0974,2.1113,2.1187,2.0949,2.1187,2.1294,2.1574,2.1653,2.1864,2.2425,2.2363,2.223,2.2116,2.2116,2.2002,2.166,2.166,2.1237,2.0508,2.0174,1.9642,1.9045,1.8483,1.7913,1.7563,1.699,1.6414,1.5715,1.5368,1.4714,1.3803,1.3336,1.2689,1.2038,1.1562,1.0899,1.0325,0.0,0.0,0.0,0.0,0.0,0.0,0.0,0.5551,0.6013,0.6321,0.6673,0.7018,0.734,0.7347,0.736,0.0,0.0,0.0,0.0,0.0,0.0,0.0,0.0,0.0,0.0,0.0,0.0,0.9681,1.0188,0.0,0.0,0.0,0.0,0.0,1.2995,1.3287,1.3393,0.0,0.0,0.0,0.0,1.3508,0.0,0.0,0.0,0.0,0.0,0.0,0.0,0.0,1.6422,1.7051,1.8784,1.9706,2.0271,2.0916,2.098,2.0801,2.0799,2.0727,2.0639,2.0272,2.0053,1.9659,1.8652,1.7716,0.0,1.6272,1.5536,1.4994,1.4994,1.5493,1.6158,0.0,1.7295,1.8059,1.9326,1.9678,1.9939,2.0249,2.0467,0.0,2.0382,2.0647,2.0907,2.1145,2.1232,2.1425,2.1759,2.1767,2.1767,2.1767,2.1767,2.1539,2.0974,2.0974,2.0737,2.0046,1.9584,1.9236,1.9004,1.8194,1.7726,1.7361,1.6903,1.6312,1.5601,1.5359,1.4538,1.3433,1.3198,1.2399,1.1354,1.1146,1.0487,0.9669,0.0,0.0,0.0,0.0,0.0,0.0,0.0,0.5747,0.625,0.6551,0.7083,0.7479,0.7665,0.7296,0.7108,0.0,0.0,0.0,0.0,0.0,0.0,0.0,0.0,0.0,0.0,0.0,0.0,0.9003,0.9419,0.0,0.0,0.0,0.0,0.0,0.0,1.1935,1.2086,1.2186,0.0,0.0,0.0,0.0,0.0,0.0,0.0,0.0,0.0,0.0,0.0,0.0,0.0,1.6228,1.6379,1.7578,1.9074,1.9982,0.0,0.0,2.0017,2.0019,1.9835,1.9287,1.8696,1.8079,1.7654,0.0,1.5518,1.5443,1.478,1.4272,1.4272,1.433,0.0,0.0,0.0,1.683,1.8017,1.8604,1.913,1.9781,0.0,1.9427,1.9799,1.9867,1.9975,1.9907,2.0209,2.05,2.0831,2.0831,2.0723,2.05,2.0507,2.0385,2.0385,2.0385,2.004,1.9352,1.9359,1.8881,1.8052,1.7713,1.7361,1.6997,1.607,1.572,1.5477,1.4406,1.3794,1.3536,1.2453,1.184,1.1587,1.04,0.9923,0.9562,0.0,0.0,0.0,0.0,0.0,0.0,0.4906,0.5498,0.6034,0.6553,0.6963,0.728,0.7496,0.7356,0.7363,0.7671,0.0,0.0,0.0,0.0,0.0,0.0,0.0,0.0,0.0,0.0,0.8537,0.8586,0.8766,0.0,0.0,0.0,0.0,0.0,0.0,1.1418,1.1528,1.1678,0.0,0.0,0.0,0.0,0.0,0.0,0.0,0.0,0.0,0.0,1.3168,0.0,0.0,0.0,1.4763,1.5599,0.0,0.0,1.886,1.8975,1.8861,1.8814,1.8555,1.8102,1.7633,1.7049,1.6272,0.0,1.449,1.4044,1.3567,1.3163,1.3163,1.3397,1.3777,1.4498,1.5138,1.583,1.6865,1.7612,1.8195,1.8505,1.8831,1.9078,1.9208,1.9273,1.9248,1.9253,1.9387,1.9455,1.9339,2.0033,2.0378,2.027,2.004,1.9931,1.97,1.9577,1.9229,1.8771,1.8421,1.8064,1.759,1.7003,1.6414,1.6183,1.5591,1.4997,1.4406,1.3928,1.3209,1.2479,1.1997,1.1273,1.0547,0.994,0.9332,0.8601,0.0,0.0,0.0,0.0,0.0,0.4069,0.468,0.5214,0.5731,0.6356,0.6717,0.6985,0.7245,0.7293,0.7454,0.7739,0.7814,0.0,0.0,0.0,0.0,0.0,0.0,0.0,0.0,0.0,0.8209,0.8209,0.831,0.8692,0.0,0.0,0.9963,1.0706,0.0,0.0,0.0,0.0,0.0,0.0,0.0,0.0,0.0,0.0,0.0,0.0,0.0,0.0,0.0,0.0,0.0,0.0,0.0,0.0,0.0,0.0,1.7438,1.7563,1.7674,1.7447,1.7282,1.6838,1.6417,1.592,0.0,0.0,1.3497,1.2796,1.2321,1.2088,1.2149,1.2406,1.2893,1.3711,1.4347,1.5002,1.5936,1.676,1.7333,1.768,1.8003,1.8297,1.8527,1.8509,1.8518,1.8609,1.8642,1.8525,1.8181,1.8997,1.9577,1.9693,1.9461,1.9236,1.9004,1.8765,1.8415,1.8188,1.7596,1.7244,1.6891,1.6301,1.5709,1.5121,1.4878,1.4162,1.3444,1.3204,1.2479,1.1514,1.1273,1.0547,0.9579,0.9332,0.8723,0.7872,0.0,0.0,0.0,0.0,0.0,0.0,0.4396,0.4954,0.5465,0.5954,0.6429,0.6774,0.6872,0.709,0.7216,0.7216,0.7405,0.0,0.0,0.0,0.0,0.0,0.0,0.0,0.0,0.0,0.7719,0.7719,0.8164,0.8415,0.8438,0.9179,0.9588,0.9751,0.0,0.0,0.0,0.0,0.0,0.0,0.0,0.0,0.0,0.0,0.0,0.0,0.0,0.0,0.0,0.0,0.0,0.0,0.0,0.0,0.0,0.0,1.5785,1.6141,1.6237,1.6156,1.5904,1.558,1.5006,1.4352,0.0,1.3057,1.2343,1.1762,1.1365,1.1204,1.1383,1.1391,1.1783,1.292,1.37,1.4416,1.5193,1.5866,1.6573,1.7335,1.6961,1.6983,1.7575,1.7644,1.7678,1.7904,1.7929,1.7818,1.7479,1.7479,1.7837,1.8421,1.8421,1.8421,1.8421,1.8052,1.7818,1.7485,1.712,1.6532,1.5596,1.5601,1.5121,1.4172,1.3813,1.3324,1.2719,1.2118,1.1394,1.0789,1.0061,0.9579,0.9214,0.8238,0.7872,0.775,0.0,0.0,0.0,0.0,0.0,0.0,0.0,0.4454,0.493,0.5647,0.5902,0.615,0.652,0.666,0.6738,0.6738,0.7154,0.0,0.0,0.0,0.0,0.0,0.0,0.0,0.0,0.0,0.7298,0.7497,0.7739,0.8095,0.8606,0.8945,0.9305,0.9621,0.9784,0.9888,0.0,0.0,0.0,0.0,0.0,0.0,1.0667,0.0,0.0,0.0,0.0,0.0,0.0,0.0,0.0,0.0,0.0,0.0,0.0,0.0,0.0,0.0,1.4137,1.417,1.4107,1.3801,1.3411,1.2878,1.2269,1.166,1.1113,1.0712,1.0553,1.0544,1.0664,1.0894,1.127,1.22,1.2848,1.3443,1.4016,1.4972,1.5715,1.5973,1.6233,1.653,1.6649,1.6636,1.6757,1.6973,1.6997,1.6885,1.6532,1.6532,1.6885,1.7713,1.759,1.7467,1.7467,1.712,1.6767,1.6532,1.6183,1.5828,1.5235,1.4644,1.4167,1.3808,1.2964,1.2479,1.1997,1.1394,1.0668,1.0061,0.9326,0.8842,0.8238,0.7752,0.7141,0.6528,0.0,0.0,0.0,0.0,0.0,0.0,0.0,0.3953,0.4387,0.4963,0.528,0.5577,0.5906,0.6126,0.6264,0.6313,0.6696,0.0,0.0,0.0,0.0,0.0,0.0,0.0,0.0,0.6781,0.6909,0.7193,0.7491,0.7882,0.8493,0.876,0.9022,0.9309,0.9309,0.9368,0.0,0.0,0.0,0.0,0.0,0.0,1.0146,0.0,0.0,0.0,0.0,0.0,0.0,0.0,0.0,0.0,0.0,0.0,0.0,0.0,1.0277,1.1469,0.0,1.2395,1.2348,1.2172,1.1911,0.0,0.0,1.0568,1.0127,0.9732,0.9654,0.9654,0.9827,1.0157,1.0684,1.1472,1.2161,1.2748,1.3107,1.4091,1.4754,1.4914,1.5463,1.5731,1.5725,1.5733,1.5817,1.5919,1.5811,1.5704,1.5353,1.5229,1.5467,1.6059,1.6295,1.6414,1.6414,1.6177,1.5941,1.5704,1.524,1.4883,1.452,1.3803,1.3324,1.2964,1.2359,1.1635,0.0,1.0547,0.994,0.9089,0.8599,0.7989,0.7258,0.7018,0.6405,0.5669,0.0,0.0,0.0,0.0,0.0,0.0,0.0,0.3453,0.3819,0.404,0.461,0.504,0.5157,0.5507,0.5776,0.5933,0.0,0.0,0.0,0.0,0.0,0.0,0.0,0.0,0.0,0.6349,0.6518,0.6863,0.7333,0.7756,0.8075,0.8515,0.8752,0.8752,0.8752,0.8804,0.0,0.0,0.0,0.0,0.0,0.0,0.0,0.0,0.0,0.0,0.0,0.0,0.0,0.0,0.0,0.0,0.0,0.0,0.0,0.0,0.0,0.0,0.0,1.0777,1.0748,1.073,1.0478,1.0167,0.0,0.0,0.0,0.8747,0.8646,0.8705,0.8881,0.9328,0.9931,1.0685,1.1519,1.2167,1.2511,1.3224,1.3824,1.4048,1.4511,1.4786,1.4786,1.473,1.4769,1.4976,1.4624,1.4396,1.4052,1.3808,1.3569,1.3569,1.4764,1.5359,1.5483,1.5116,1.4997,1.4997,1.4406,1.3933,1.3569,1.3204,1.2599,1.1756,1.1635,1.091,0.97,0.97,0.8967,0.7872,0.775,0.7138,0.6283,0.5916,0.5546,0.5176,0.0,0.0,0.0,0.0,0.0,0.0,0.0,0.0,0.0,0.0,0.3872,0.4276,0.4707,0.4948,0.5173,0.0,0.0,0.0,0.0,0.0,0.0,0.0,0.0,0.0,0.0,0.603,0.6287,0.6681,0.7031,0.744,0.7787,0.8013,0.809,0.809,0.809,0.8256,0.0,0.0,0.0,0.0,0.0,0.0,0.0,0.0,0.0,0.0,0.8114,0.7903,0.0,0.0,0.0,0.0,0.0,0.0,0.0,0.0,0.6924,0.6924,0.7546,0.0,0.9048,0.8786,0.884,0.8805,0.0,0.0,0.0,0.0,0.0,0.8059,0.8304,0.8832,0.9468,1.0184,1.0743,1.1282,1.1669,1.2444,1.2924,1.289,1.3148,1.3388,1.3459,1.3303,1.331,1.3606,1.3329,1.3066,1.2719,1.2599,1.2479,1.2238,1.2599,1.32,1.4167,1.4047,1.3923,1.3679,1.3444,1.3084,1.2599,1.2238,1.1756,1.1031,1.0547,0.994,0.9335,0.8604,0.8116,0.775,0.6773,0.6285,0.5914,0.5054,0.4561,0.419,0.0,0.0,0.0,0.0,0.0,0.0,0.0,0.0,0.0,0.0,0.0,0.0,0.0,0.0,0.0,0.0,0.0,0.0,0.0,0.0,0.0,0.0,0.0,0.0,0.5507,0.5721,0.5997,0.6433,0.6667,0.701,0.7402,0.7503,0.7557,0.7557,0.767,0.783,0.0,0.0,0.0,0.0,0.8368,0.0,0.0,0.0,0.0,0.0,0.7462,0.7298,0.0,0.7147,0.7105,0.6982,0.0,0.0,0.0,0.0,0.6108,0.5906,0.5895,0.6766,0.7657,0.7466,0.7596,0.766,0.0,0.0,0.0,0.0,0.0,0.0,0.7482,0.8127,0.0,0.0,0.967,1.0278,1.0869,1.1458,1.183,1.1754,1.1777,1.1941,1.2014,1.1661,1.1744,1.2063,1.1776,1.1507,1.139,1.1148,1.1031,1.091,1.091,1.1514,1.2844,1.2844,1.2724,1.2599,1.2359,1.2118,1.1511,1.1273,1.0789,1.0061,0.9572,0.9089,0.8604,0.7747,0.7258,0.6893,0.579,0.5298,0.493,0.4193,0.3824,0.3576,0.0,0.0,0.0,0.0,0.0,0.0,0.0,0.0,0.0,0.0,0.0,0.0,0.0,0.0,0.0,0.0,0.0,0.0,0.0,0.0,0.0,0.0,0.0,0.5213,0.5247,0.5454,0.5719,0.6139,0.6345,0.667,0.703,0.7067,0.7062,0.7084,0.7322,0.7461,0.0,0.0,0.0,0.0,0.7771,0.0,0.0,0.0,0.0,0.0,0.0,0.0,0.0,0.657,0.6576,0.6544,0.6228,0.0,0.0,0.0,0.0,0.0,0.4934,0.5557,0.6358,0.6358,0.651,0.6601,0.0,0.0,0.0,0.0,0.0,0.0,0.0,0.7198,0.0,0.0,0.848,0.9204,0.9862,1.0272,1.0552,1.0367,1.0301,1.0304,1.0351,1.015,1.0058,1.0365,1.0089,0.9943,0.994,0.9697,0.9457,0.9457,0.9457,1.0061,1.1148,1.1394,1.1514,1.1514,1.1152,1.091,1.0547,1.0179,0.9697,0.9092,0.872,0.8233,0.7627,0.7013,0.6403,0.5669,0.5049,0.4435,0.3821,0.3454,0.3332,0.3208,0.0,0.0,0.0,0.0,0.0,0.0,0.0,0.0,0.0,0.0,0.0,0.0,0.0,0.0,0.0,0.0,0.0,0.0,0.0,0.0,0.0,0.0,0.4539,0.4785,0.496,0.5161,0.5413,0.577,0.6146,0.6398,0.6596,0.6895,0.7002,0.6987,0.7018,0.6982,0.7036,0.7192,0.7241,0.7241,0.7241,0.0,0.0,0.0,0.0,0.0,0.0,0.0,0.0,0.6054,0.6159,0.6228,0.5959,0.0,0.0,0.0,0.0,0.0,0.4616,0.4621,0.4642,0.4884,0.5148,0.5348,0.5147,0.0,0.0,0.0,0.0,0.0,0.0,0.6091,0.6523,0.0,0.7784,0.8361,0.8386,0.8577,0.8605,0.841,0.8433,0.8553,0.8686,0.8521,0.8491,0.8766,0.8512,0.8253,0.8236,0.8236,0.8236,0.8236,0.8236,0.8236,0.8477,0.9576,1.0061,1.0061,1.0061,0.9822,0.9579,0.9204,0.8717,0.8113,0.775,0.7261,0.6648,0.616,0.5667,0.4926,0.4312,0.3946,0.3826,0.3085,0.2838,0.2838,0.0,0.0,0.0,0.0,0.0,0.0,0.0,0.0,0.0,0.0,0.0,0.0,0.0,0.0,0.0,0.0,0.0,0.0,0.0,0.0,0.0,0.3834,0.4055,0.4317,0.4684,0.4964,0.5255,0.5601,0.5884,0.6133,0.6407,0.6447,0.6567,0.6644,0.6483,0.644,0.6544,0.6652,0.6707,0.6707,0.0,0.0,0.0,0.0,0.0,0.0,0.0,0.0,0.0,0.0,0.5802,0.5905,0.5631,0.0,0.0,0.0,0.0,0.0,0.4183,0.4082,0.3969,0.3842,0.4193,0.4526,0.4316,0.0,0.0,0.0,0.0,0.0,0.0,0.0,0.5612,0.6138,0.6543,0.6822,0.6976,0.7003,0.7013,0.7022,0.6914,0.6908,0.7133,0.6874,0.6775,0.703,0.6912,0.6785,0.6773,0.6768,0.6766,0.6766,0.6766,0.6766,0.6766,0.7375,0.8108,0.8723,0.8723,0.8604,0.8238,0.7867,0.75,0.7013,0.6526,0.6035,0.554,0.5053,0.4684,0.4316,0.3452,0.333,0.3209,0.1727,0.1234,0.1111,0.0,0.0,0.0,0.0,0.0,0.0,0.0,0.0,0.0,0.0,0.0,0.0,0.0,0.0,0.0,0.0,0.0,0.0,0.0,0.0,0.3281,0.3463,0.3639,0.3955,0.4478,0.4735,0.5026,0.5405,0.5592,0.5914,0.6252,0.6075,0.6084,0.6196,0.6003,0.5941,0.605,0.6218,0.6277,0.6277,0.0,0.0,0.0,0.0,0.0,0.0,0.0,0.0,0.0,0.0,0.0,0.0,0.0,0.0,0.0,0.4629,0.4408,0.4225,0.387,0.3701,0.3595,0.3211,0.0,0.3862,0.3553,0.0,0.0,0.0,0.0,0.0,0.0,0.4295,0.4671,0.4982,0.5069,0.5182,0.5636,0.5582,0.5623,0.581,0.5706,0.559,0.5695,0.558,0.5427,0.5675,0.5679,0.5679,0.5673,0.5542,0.5416,0.5416,0.5416,0.5416,0.5416,0.5416,0.6151,0.738,0.738,0.7258,0.7016,0.6644,0.6276,0.6033,0.5297,0.4928,0.4558,0.4067,0.3824,0.3455,0.259,0.2221,0.2097,-0.0,-0.0617,-0.0741,0.0,0.0,0.0,0.0,0.0,0.0,0.0,0.0,0.0,0.0,0.0,0.0,0.0,0.0,0.0,0.0,0.0,0.0,0.0,0.0,0.2823,0.3031,0.3294,0.3714,0.441,0.4435,0.4649,0.5132,0.5303,0.567,0.6167,0.5833,0.5739,0.5916,0.5728,0.5622,0.5677,0.5791,0.585,0.585,0.585,0.0,0.0,0.0,0.0,0.0,0.0,0.0,0.0,0.0,0.0,0.0,0.0,0.0,0.4574,0.4519,0.4079,0.3688,0.386,0.3511,0.3124,0.3239,0.3289,0.0,0.2754,0.2761,0.0,0.0,0.0,0.0,0.0,0.3273,0.3629,0.3613,0.3838,0.4058,0.4579,0.4433,0.4369,0.4599,0.4599,0.4597,0.459,0.476,0.4818,0.4942,0.4942,0.494,0.4935,0.4438,0.4067,0.4067,0.4067,0.4067,0.4067,0.4067,0.4681,0.6031,0.6031,0.6029,0.6029,0.5293,0.5049,0.4926,0.4312,0.3822,0.3579,0.3826,0.3455,0.259,0.1356,0.0617,-0.0,-0.2097,-0.259,-0.2467,0.0,0.0,0.0,0.0,0.0,0.0,0.0,0.0,0.0,0.0,0.0,0.0,0.0,0.0,0.0,0.0,0.0,0.0,0.0,0.0,0.2534,0.2752,0.2948,0.3262,0.3776,0.4082,0.4448,0.4826,0.5199,0.5571,0.5807,0.5483,0.5396,0.557,0.5276,0.5175,0.5175,0.5293,0.5348,0.5348,0.5454,0.5342,0.0,0.0,0.0,0.0,0.0,0.0,0.0,0.0,0.4571,0.4632,0.0,0.4519,0.4245,0.4024,0.3801,0.3608,0.3527,0.3253,0.3098,0.311,0.0,0.0,0.0,0.0,0.0,0.0,0.2393,0.0,0.0,0.0,0.272,0.2804,0.245,0.2178,0.2437,0.2233,0.213,0.2242,0.2242,0.2242,0.2353,0.2294,0.2368,0.2462,0.247,0.2469,0.2468,0.2219,0.2341,0.2712,0.2712,0.2959,0.333,0.333,0.3576,0.4067,0.4435,0.4679,0.4681,0.4438,0.4316,0.4193,0.3576,0.3331,0.3085,0.259,0.1727,0.0864,-0.0863,-0.1603,-0.1727,-0.2838,-0.3085,-0.2961,0.0,0.0,0.0,0.0,0.0,0.0,0.0,0.0,0.0,0.0,0.0,0.0,0.0,0.0,0.0,0.0,0.0,0.0,0.1928,0.2061,0.2229,0.2413,0.252,0.2763,0.313,0.3582,0.4053,0.4424,0.489,0.5226,0.5348,0.5047,0.4968,0.5083,0.4823,0.4736,0.4791,0.4904,0.5014,0.5069,0.5117,0.5046,0.0,0.0,0.0,0.0,0.0,0.0,0.0,0.0,0.4235,0.0,0.0,0.0,0.0,0.3697,0.355,0.3426,0.3236,0.3107,0.298,0.0,0.0,0.0,0.0,0.0,0.0,0.0,0.1777,0.0,0.1491,0.0,0.1555,0.1603,0.1193,0.077,0.0671,0.0561,0.0224,-0.0224,-0.0224,-0.0224,-0.0224,-0.0224,-0.0231,-0.0246,-0.0247,-0.0247,-0.0247,-0.0123,0.037,0.0986,0.1109,0.148,0.2097,0.2097,0.2097,0.2097,0.3085,0.3576,0.3575,0.3208,0.2961,0.2837,0.2344,0.2097,0.1974,0.1233,0.0247,-0.0987,-0.2468,-0.2961,-0.2961,-0.3331,-0.3454,-0.3454,0.0,0.0,0.0,0.0,0.0,0.0,0.0,0.0,0.0,0.0,0.0,0.0,0.0,0.0,0.0,0.0,0.0,0.0,0.1794,0.1794,0.1862,0.1964,0.2118,0.2293,0.2517,0.289,0.3339,0.3872,0.4367,0.4691,0.4755,0.4546,0.4418,0.4406,0.4257,0.4301,0.4519,0.4632,0.4794,0.4897,0.4897,0.4794,0.4673,0.0,0.0,0.0,0.0,0.0,0.0,0.0,0.372,0.3622,0.0,0.0,0.0,0.3585,0.3323,0.3017,0.3177,0.2958,0.2767,0.0,0.0,0.0,0.0,0.0,0.0,0.1515,0.0,-0.0102,-0.0104,-0.0105,-0.0107,-0.0,-0.0,-0.011,-0.0559,-0.0673,-0.1121,-0.2581,-0.2693,-0.2693,-0.2693,-0.2693,-0.2769,-0.295,-0.2965,-0.2964,-0.2961,-0.2343,-0.1849,-0.1356,-0.074,-0.037,-0.0,-0.0,-0.0,-0.0,0.1977,0.2964,0.2961,0.1849,0.1109,0.0616,0.0123,-0.0,-0.0,-0.0,-0.1111,-0.2714,-0.3085,-0.3332,-0.3579,-0.3821,-0.4067,-0.4439,0.0,0.0,0.0,0.0,0.0,0.0,0.0,0.0,0.0,0.0,0.0,0.0,0.0,0.0,0.0,0.0,0.0,0.0,0.1299,0.1389,0.1488,0.1559,0.1816,0.1983,0.2124,0.2429,0.2926,0.3633,0.376,0.3919,0.4099,0.3882,0.3867,0.3977,0.3928,0.3965,0.4018,0.4132,0.4242,0.4242,0.4242,0.4242,0.4174,0.0,0.0,0.0,0.0,0.0,0.0,0.0,0.0,0.0,0.0,0.0,0.0,0.3137,0.3147,0.3116,0.2961,0.2883,0.0,0.0,0.0,0.0,0.0,0.0,0.0,0.0,-0.0,-0.1262,-0.1269,-0.1287,-0.1413,-0.1858,-0.1767,-0.1785,-0.2242,-0.2132,-0.2244,-0.2693,-0.2693,-0.2693,-0.2693,-0.2693,-0.2715,-0.2882,-0.289,-0.2962,-0.2961,-0.2837,-0.2714,-0.2714,-0.222,-0.1973,-0.2097,-0.2097,-0.2097,-0.2097,-0.148,-0.0493,0.0864,0.0494,-0.0,-0.074,-0.1727,-0.2097,-0.2097,-0.2591,-0.2962,-0.3332,-0.3824,-0.407,-0.4193,-0.4439,-0.4808,-0.5176,0.0,0.0,0.0,0.0,0.0,0.0,0.0,0.0,0.0,0.0,0.0,0.0,0.0,0.0,0.0,0.0,0.0,0.0,0.0,0.1164,0.1254,0.1308,0.1463,0.1672,0.1846,0.2001,0.2332,0.2909,0.3103,0.3324,0.3503,0.3399,0.3406,0.3516,0.3516,0.3574,0.3633,0.3744,0.3802,0.3858,0.3858,0.3802,0.3732,0.0,0.0,0.0,0.0,0.0,0.0,0.0,0.0,0.0,0.0,0.0,0.0,0.2904,0.2907,0.2985,0.2785,0.0,0.0,0.0,0.0,0.0,0.2029,0.0,0.0,0.0,-0.0,-0.1508,-0.1725,-0.1858,-0.2099,-0.2432,-0.2564,-0.2581,-0.2807,-0.2807,-0.2806,-0.3029,-0.3029,-0.3141,-0.3363,-0.3365,-0.3478,-0.3587,-0.3574,-0.3702,-0.3701,-0.3701,-0.3701,-0.3701,-0.3453,-0.333,-0.333,-0.333,-0.333,-0.333,-0.333,-0.2713,-0.1603,-0.1357,-0.1727,-0.2343,-0.3083,-0.333,-0.3453,-0.3948,-0.407,-0.4069,-0.4561,-0.493,-0.5176,-0.5423,-0.5669,-0.6037,0.0,0.0,0.0,0.0,0.0,0.0,0.0,0.0,0.0,0.0,0.0,0.0,0.0,0.0,0.0,0.0,0.0,0.0,0.0,0.0,0.1069,0.1156,0.1168,0.1315,0.157,0.1572,0.1682,0.1959,0.2493,0.2806,0.2928,0.2964,0.304,0.3038,0.306,0.3132,0.3302,0.3357,0.3413,0.3527,0.3527,0.3466,0.3332,0.3174,0.0,0.0,0.0,0.0,0.0,0.0,0.0,0.0,0.0,0.0,0.2809,0.2789,0.2705,0.2688,0.2581,0.0,0.0,0.0,0.0,0.0,0.1696,0.123,0.0935,0.1249,0.0,-0.1096,-0.1644,-0.1999,-0.2244,-0.2244,-0.2468,-0.2806,-0.2806,-0.2806,-0.303,-0.3587,-0.3699,-0.3923,-0.448,-0.4485,-0.4599,-0.4714,-0.477,-0.4815,-0.4933,-0.4933,-0.4808,-0.4561,-0.4561,-0.4436,-0.4066,-0.4066,-0.4066,-0.4066,-0.4066,-0.4066,-0.4066,-0.3577,-0.3579,-0.395,-0.4069,-0.4067,-0.4067,-0.4438,-0.4805,-0.5049,-0.5419,-0.5912,-0.6526,-0.6526,-0.6773,-0.7021,0.0,0.0,0.0,0.0,0.0,0.0,0.0,0.0,0.0,0.0,0.0,0.0,0.0,0.0,0.0,0.0,0.0,0.0,0.0,0.0,0.0792,0.0804,0.0906,0.1106,0.1346,0.1347,0.1402,0.1458,0.1931,0.2229,0.2343,0.2384,0.2377,0.2375,0.2583,0.2633,0.2689,0.2907,0.3019,0.3074,0.3074,0.3028,0.2904,0.2775,0.2554,0.0,0.0,0.0,0.0,0.0,0.0,0.0,0.217,0.2303,0.2329,0.2354,0.242,0.2501,0.0,0.2464,0.0,0.0,0.0,0.1918,0.1702,0.123,0.0417,-0.0846,-0.0981,-0.1115,-0.1674,-0.2014,-0.2244,-0.2581,-0.2805,-0.3139,-0.3701,-0.3701,-0.3813,-0.4257,-0.4257,-0.437,-0.4485,-0.4484,-0.4596,-0.4714,-0.5,-0.5174,-0.5293,-0.5538,-0.5663,-0.554,-0.554,-0.5538,-0.5416,-0.5416,-0.5416,-0.5416,-0.5416,-0.5416,-0.5416,-0.4312,-0.3946,-0.4316,-0.4807,-0.5051,-0.5174,-0.5665,-0.6033,-0.6156,-0.6405,-0.6775,-0.7141,-0.7141,-0.7505,-0.8113,0.0,0.0,0.0,0.0,0.0,0.0,0.0,0.0,0.0,0.0,0.0,0.0,0.0,0.0,0.0,0.0,0.0,0.0,0.0,0.0,0.0559,0.0553,0.0798,0.0993,0.1122,0.1122,0.1122,0.1122,0.1345,0.1569,0.1793,0.185,0.1962,0.2018,0.2184,0.2296,0.2352,0.2517,0.2573,0.2569,0.2581,0.2539,0.2491,0.2307,0.217,0.204,0.2002,0.0,0.0,0.0,0.0,0.0,0.0,0.0,0.2202,0.2148,0.2256,0.232,0.0,0.0,0.0,0.0,0.0,0.1735,0.1603,0.1435,0.0729,-0.0946,-0.1291,-0.1427,-0.166,-0.2106,-0.2446,-0.269,-0.3027,-0.3475,-0.3924,-0.4038,-0.4148,-0.4594,-0.4704,-0.4817,-0.5048,-0.5158,-0.527,-0.55,-0.5716,-0.591,-0.602,-0.6267,-0.6394,-0.6403,-0.6403,-0.6401,-0.6646,-0.6646,-0.6646,-0.6888,-0.6888,-0.6888,-0.6766,-0.5663,-0.5174,-0.5421,-0.5914,-0.6158,-0.6403,-0.6773,-0.7016,-0.738,-0.7505,-0.7875,-0.8119,-0.8119,-0.8363,-0.8604,0.0,0.0,0.0,0.0,0.0,0.0,0.0,0.0,0.0,0.0,0.0,0.0,0.0,0.0,0.0,0.0,0.0,0.0,0.0,0.0,0.0,0.0349,0.0573,0.0756,0.0833,0.0838,0.0841,0.0841,0.0898,0.0,0.0,0.0,0.1637,0.1741,0.186,0.1971,0.2073,0.2073,0.2073,0.2124,0.2118,0.2085,0.2061,0.1892,0.1792,0.1773,0.1717,0.1687,0.1676,0.1676,0.0,0.0,0.0,0.0,0.2028,0.1989,0.2021,0.2057,0.0,0.0,0.0,0.0,0.1593,0.0,0.1596,0.1633,0.1137,-0.0517,-0.1262,-0.1714,-0.1737,-0.2178,-0.2629,-0.2674,-0.3239,-0.3798,-0.4035,-0.4148,-0.4372,-0.4931,-0.5043,-0.5268,-0.5721,-0.5835,-0.6058,-0.6393,-0.66,-0.6698,-0.6872,-0.6977,-0.7104,-0.7266,-0.7268,-0.7388,-0.763,-0.763,-0.7752,-0.8116,-0.8116,-0.8116,-0.8236,-0.738,-0.6891,-0.6648,-0.7018,-0.7266,-0.763,-0.763,-0.7994,-0.8599,-0.8599,-0.8848,-0.9098,-0.9098,-0.9217,-0.922,0.0,0.0,0.0,0.0,0.0,0.0,0.0,0.0,0.0,0.0,0.0,0.0,0.0,0.0,0.0,0.0,0.0,0.0,0.0045,0.0,0.0,0.0048,0.0103,0.0213,0.0482,0.0442,0.0449,0.0449,0.0,0.0,0.0,0.0,0.0,0.1348,0.0,0.1441,0.1458,0.1628,0.1684,0.1684,0.1675,0.1643,0.1597,0.1423,0.1339,0.1301,0.1294,0.1265,0.1181,0.1181,0.1204,0.0,0.0,0.0,0.1332,0.1387,0.147,0.1504,0.0,0.0,0.0,0.0,0.1484,0.1535,0.0,0.0,0.1115,-0.0507,-0.1251,-0.1601,-0.171,-0.2245,-0.2582,-0.2627,-0.3292,-0.3969,-0.436,-0.4594,-0.4931,-0.5268,-0.5495,-0.5721,-0.5833,-0.6061,-0.6279,-0.6369,-0.6649,-0.708,-0.7588,-0.7851,-0.8205,-0.8604,-0.861,-0.861,-0.8732,-0.8732,-0.8732,-0.8732,-0.897,-0.9214,-0.9576,-0.9454,-0.8723,-0.7747,-0.8113,-0.8233,-0.8236,-0.8607,-0.8851,-0.9214,-0.9214,-0.9579,-1.0061,-1.0061,-1.0304,-1.0568,0.0,0.0,0.0,0.0,0.0,0.0,0.0,0.0,0.0,0.0,0.0,0.0,0.0,0.0,0.0,-0.0584,-0.0584,-0.045,-0.0225,-0.0229,-0.0233,-0.0239,-0.0247,-0.0101,0.0155,0.0161,0.0272,0.0381,0.0,0.0,0.0,0.0769,0.0952,0.0,0.0,0.0,0.0,0.1357,0.1459,0.1457,0.1429,0.1405,0.1383,0.1302,0.1228,0.121,0.121,0.1197,0.1131,0.1131,0.115,0.112,0.1166,0.0,0.0,0.0,0.1326,0.0,0.1418,0.0,0.1457,0.0,0.1431,0.1487,0.1535,0.0687,-0.0298,-0.0696,-0.1219,-0.1662,-0.1677,-0.2205,-0.2534,-0.258,-0.3368,-0.4054,-0.4416,-0.4679,-0.5043,-0.5607,-0.5721,-0.5947,-0.6286,-0.64,-0.673,-0.7043,-0.7257,-0.7576,-0.7916,-0.8272,-0.8503,-0.8735,-0.8933,-0.9217,-0.946,-0.9579,-0.9822,-0.9943,-1.0065,-1.0183,-1.0304,-1.0304,-0.9819,-0.8967,-0.9089,-0.9332,-0.9451,-0.9579,-0.9822,-1.0183,-1.0183,-1.0304,-1.0547,-1.0789,-1.097,-1.131,0.0,0.0,0.0,0.0,0.0,0.0,0.0,0.0,0.0,0.0,0.0,0.0,0.0,0.0,0.0,0.0,-0.0724,-0.0629,-0.0494,-0.0494,-0.0456,-0.047,-0.0475,-0.0387,-0.0199,-0.0104,-0.0,0.0,0.0,0.0,0.0393,0.0416,0.0545,0.0,0.0835,0.0,0.0,0.0,0.0,0.0,0.1212,0.1204,0.1201,0.1127,0.112,0.112,0.112,0.1107,0.1141,0.1141,0.1056,0.102,0.11,0.1088,0.0,0.0,0.0,0.0,0.0,0.0,0.1239,0.1308,0.1369,0.1339,0.0,-0.0191,-0.1456,-0.1078,-0.1292,-0.1615,-0.1645,-0.2165,-0.2487,-0.2533,-0.3329,-0.4134,-0.4371,-0.477,-0.5268,-0.5721,-0.5833,-0.617,-0.6626,-0.6847,-0.7062,-0.7601,-0.77,-0.794,-0.8335,-0.8615,-0.8809,-0.9004,-0.9382,-0.9822,-1.0061,-1.0425,-1.0668,-1.1031,-1.1152,-1.1148,-1.1273,-1.1273,-1.1027,-1.0547,-1.0304,-1.0304,-1.0547,-1.0668,-1.091,-1.1148,-1.1148,-1.1148,-1.1277,-1.1566,-1.1792,-1.2044,0.0,0.0,0.0,0.0,0.0,0.0,0.0,0.0,0.0,0.0,0.0,0.0,-0.08,-0.0778,-0.081,-0.081,-0.0736,-0.0674,-0.0674,-0.0674,-0.0675,-0.0677,-0.0702,0.0,-0.0671,-0.0463,-0.0373,0.0,0.0,0.0,0.0393,0.0407,0.042,0.0431,0.0493,0.0666,0.0941,0.0,0.0,0.0,0.0,0.0938,0.0,0.0,0.0918,0.0918,0.0918,0.0,0.0893,0.0893,0.0853,0.0804,0.0806,0.0806,0.0805,0.0,0.0,0.0,0.0,0.1081,0.0,0.1239,0.1389,0.0,0.0,-0.0733,-0.1408,-0.156,-0.1573,-0.1583,-0.1613,-0.2022,-0.244,-0.2486,-0.3479,-0.4293,-0.4365,-0.4993,-0.5493,-0.5721,-0.6054,-0.6391,-0.6626,-0.7173,-0.7601,-0.7581,-0.7805,-0.8217,-0.8628,-0.9093,-0.9573,-0.9961,-1.0466,-1.0789,-1.0789,-1.1031,-1.1394,-1.1756,-1.1997,-1.2234,-1.2599,-1.2599,-1.2599,-1.2479,-1.1635,-1.1273,-1.1273,-1.1635,-1.1877,-1.2118,-1.2118,-1.2359,-1.2621,-1.2808,-1.2886,-1.2947,0.0,0.0,0.0,0.0,0.0,0.0,0.0,0.0,0.0,0.0,0.0,0.0,0.0,-0.0798,-0.0791,-0.0791,-0.0765,-0.074,-0.072,-0.0719,-0.0719,-0.0719,-0.0684,-0.0698,-0.0764,-0.0703,0.0,0.0,0.0,-0.0617,-0.0449,-0.0232,-0.0119,-0.012,0.012,0.0241,0.0364,0.0528,0.0,0.0,0.0,0.0,0.0,0.0,0.0,0.0,0.0,0.0,0.0554,0.0554,0.0698,0.0865,0.0865,0.0838,0.076,0.057,0.0541,0.0,0.0,0.0,0.0,0.1157,0.0845,0.0244,-0.0671,-0.0877,-0.1093,-0.1387,-0.153,-0.1674,-0.1784,-0.2203,-0.2427,-0.2443,-0.3448,-0.4271,-0.4298,-0.4958,-0.5607,-0.6061,-0.6172,-0.6502,-0.6945,-0.7374,-0.7697,-0.7805,-0.8143,-0.8513,-0.8815,-0.9274,-0.9648,-0.9923,-1.0554,-1.1113,-1.147,-1.1827,-1.2001,-1.2,-1.2242,-1.2421,-1.2548,-1.2906,-1.2964,-1.3084,-1.3084,-1.2844,-1.2238,-1.2359,-1.2599,-1.284,-1.284,-1.3084,-1.3352,-1.3798,-1.4076,-1.4227,0.0,0.0,0.0,0.0,0.0,0.0,0.0,0.0,0.0,-0.0818,0.0,0.0,0.0,0.0,-0.0818,-0.0808,-0.0789,-0.0766,-0.0736,-0.0735,-0.0735,-0.0735,-0.0735,-0.0748,-0.0778,-0.0807,-0.0832,0.0,0.0,0.0,0.0,-0.0688,-0.0583,-0.0589,-0.0408,-0.0236,0.0,0.0,0.0,0.0118,0.0,0.0,0.0066,0.0,0.0,0.0,0.0,0.0,0.0269,0.0267,0.0504,0.0706,0.0757,0.0769,0.0722,0.0159,-0.0054,0.0,0.0116,0.0,0.0,0.0,0.0216,-0.0303,-0.0955,-0.1,-0.0953,-0.1338,-0.1483,-0.1631,-0.1958,-0.2182,-0.2403,-0.2519,-0.3519,-0.4232,-0.4257,-0.4907,-0.556,-0.6168,-0.6286,-0.6505,-0.7157,-0.7476,-0.7805,-0.8033,-0.8374,-0.8712,-0.9047,-0.9521,-1.0016,-1.0528,-1.0992,-1.152,-1.1987,-1.2342,-1.2508,-1.2373,-1.2628,-1.2844,-1.303,-1.34,-1.3618,-1.3684,-1.4172,-1.3933,-1.3204,-1.3324,-1.3444,-1.3688,-1.3688,-1.3851,-1.4183,-1.4759,-1.5097,-1.5317,0.0,0.0,0.0,0.0,0.0,0.0,0.0,0.0,-0.0819,-0.0902,0.0,0.0,0.0,0.0,0.0,-0.0811,-0.0808,-0.0796,-0.0816,-0.0814,-0.0814,-0.0814,-0.0814,-0.0828,-0.0807,-0.0889,-0.0906,0.0,0.0,0.0,0.0,0.0,-0.0913,-0.094,-0.0911,-0.0742,-0.0412,0.0,-0.0531,-0.0535,0.0,-0.0608,-0.0612,0.0,0.0,0.0,-0.0,-0.0,-0.0,-0.0,0.0136,0.0387,0.0374,0.0579,0.064,-0.0533,-0.0906,-0.0811,0.0,0.0,0.0,-0.0527,-0.0539,-0.0555,-0.0613,-0.0941,-0.129,-0.1406,-0.1433,-0.1554,-0.1939,-0.2253,-0.2465,-0.2714,-0.3585,-0.4174,-0.4247,-0.4843,-0.5471,-0.6158,-0.6286,-0.6502,-0.7157,-0.7703,-0.8033,-0.8045,-0.8605,-0.9047,-0.9379,-0.9857,-1.058,-1.1667,-1.168,-1.1795,-1.2131,-1.2479,-1.2708,-1.3041,-1.3279,-1.3739,-1.4301,-1.4306,-1.4432,-1.4655,-1.4655,-1.453,-1.4291,-1.4535,-1.4655,-1.4655,-1.4655,-1.4786,-1.5126,-1.5597,-1.5951,-1.6302,0.0,0.0,0.0,0.0,0.0,0.0,-0.0366,-0.0682,-0.0904,0.0,0.0,0.0,-0.0871,-0.0923,-0.0897,-0.0897,-0.0892,-0.0878,-0.0946,-0.0945,-0.0994,-0.1143,-0.1143,-0.1164,-0.1154,-0.1167,-0.1187,-0.1162,0.0,0.0,0.0,0.0,0.0,0.0,-0.1183,-0.1128,-0.1027,-0.0897,0.0,-0.0922,-0.1006,-0.1065,0.0,0.0,0.0,0.0,0.0,-0.0481,-0.0472,-0.0461,-0.0369,-0.0278,-0.0191,-0.0118,-0.0111,-0.0442,-0.0706,-0.086,-0.0787,0.0,0.0,0.0,0.0,0.0,-0.0932,-0.1134,-0.1266,-0.13,-0.1375,-0.1533,-0.202,-0.2263,-0.2516,-0.2958,-0.3656,-0.4154,-0.4176,-0.4762,-0.5345,-0.6054,-0.6158,-0.6371,-0.7041,-0.7595,-0.8042,-0.8045,-0.8605,-0.9047,-0.9379,-1.0085,-1.0759,-1.149,-1.1845,-1.2078,-1.2285,-1.2622,-1.2772,-1.2947,-1.3208,-1.3512,-1.4083,-1.4472,-1.4907,-1.5364,-1.5607,-1.572,-1.5828,-1.5235,-1.5235,-1.5709,-1.5709,-1.597,-1.6458,-1.6708,-1.7083,-1.7323,0.0,0.0,0.0,0.0,0.0,-0.0109,-0.0388,-0.0732,-0.0915,0.0,0.0,0.0,-0.0962,-0.0962,-0.0947,-0.1083,-0.1065,-0.1042,-0.1165,-0.1145,-0.1187,-0.129,-0.129,-0.1313,-0.1306,-0.1307,-0.132,-0.1291,0.0,0.0,-0.1319,-0.1319,0.0,0.0,0.0,0.0,0.0,0.0,0.0,0.0,-0.138,0.0,0.0,-0.1422,-0.1404,0.0,0.0,0.0,-0.1015,-0.091,-0.0942,-0.0875,-0.0728,-0.0683,-0.0654,-0.0645,-0.08,-0.095,-0.0911,-0.092,-0.0931,-0.0962,0.0,0.0,-0.1093,-0.1153,-0.1211,-0.1249,-0.1313,-0.1544,-0.2027,-0.2185,-0.2435,-0.2959,-0.3537,-0.394,-0.4135,-0.4548,-0.5181,-0.592,-0.6055,-0.6241,-0.6885,-0.7583,-0.7941,-0.7959,-0.8569,-0.9047,-0.9596,-1.0239,-1.085,-1.1407,-1.1733,-1.2073,-1.2298,-1.263,-1.2898,-1.3103,-1.3427,-1.3984,-1.4561,-1.5023,-1.5487,-1.5952,-1.6194,-1.6543,-1.6891,-1.6295,-1.6177,-1.6307,-1.6533,-1.6846,-1.7341,-1.7854,-1.8238,-1.8481,0.0,0.0,-0.0,-0.0,-0.0,-0.0118,-0.0473,-0.0789,-0.0988,0.0,-0.0994,-0.0998,-0.0998,-0.0998,-0.1121,-0.1304,-0.1268,-0.1288,-0.1421,-0.1375,-0.1348,-0.1348,-0.1343,-0.136,-0.1346,-0.1347,-0.1347,-0.1347,-0.1361,-0.1339,-0.1339,-0.1393,-0.1393,0.0,0.0,0.0,0.0,0.0,0.0,-0.1703,-0.17,-0.1808,0.0,0.0,-0.1622,-0.1527,-0.1502,-0.1511,-0.153,-0.1497,-0.14,-0.1353,-0.126,-0.1135,-0.1096,-0.1065,-0.1032,-0.1066,-0.1007,-0.0986,-0.0972,-0.1004,-0.1033,0.0,-0.113,-0.1099,-0.1144,-0.1226,-0.1328,-0.1442,-0.1956,-0.2105,-0.2333,-0.2929,-0.327,-0.3577,-0.4091,-0.4373,-0.4896,-0.5803,-0.5955,-0.6212,-0.6634,-0.7372,-0.7877,-0.7816,-0.8606,-0.924,-0.9786,-1.0351,-1.1021,-1.1568,-1.1568,-1.1896,-1.2436,-1.2792,-1.3024,-1.3355,-1.3909,-1.4585,-1.5393,-1.5604,-1.6065,-1.6537,-1.6537,-1.7009,-1.7602,-1.7602,-1.7244,-1.6796,-1.7296,-1.7682,-1.806,-1.8951,-1.9468,-1.9705,-0.0,0.0,-0.0,-0.0,-0.0,-0.0119,-0.0427,-0.08,-0.105,-0.0988,-0.1029,-0.1059,-0.1059,-0.1191,-0.1246,-0.128,-0.1367,-0.1523,-0.1635,-0.1648,-0.1677,-0.1788,-0.1746,-0.1729,-0.1685,-0.1685,-0.1685,-0.1685,-0.1729,-0.1724,-0.1724,-0.1831,-0.1885,0.0,0.0,0.0,0.0,0.0,0.0,-0.2286,-0.1869,-0.1826,-0.1946,-0.2029,-0.2034,-0.2028,-0.2146,-0.2162,-0.2157,-0.2079,-0.1938,-0.1785,-0.1724,-0.1627,-0.1526,-0.1482,-0.1439,-0.1405,-0.1405,-0.1398,-0.1402,-0.1446,-0.1336,0.0,-0.1268,-0.1167,-0.1126,-0.1144,-0.1206,-0.142,-0.1841,-0.199,-0.2231,-0.272,-0.2959,-0.3248,-0.3834,-0.42,-0.4645,-0.5295,-0.5658,-0.5944,-0.6297,-0.7156,-0.77,-0.7678,-0.8773,-0.9507,-0.9615,-1.0284,-1.1021,-1.1568,-1.1568,-1.1896,-1.2436,-1.2937,-1.3352,-1.3583,-1.4137,-1.4826,-1.5632,-1.5676,-1.6187,-1.6903,-1.7132,-1.7491,-1.7966,-1.8188,-1.8181,-1.8096,-1.8495,-1.8772,-1.9041,-1.9442,-1.9971,-2.0354,-0.0,-0.0,-0.0,-0.0,-0.0121,-0.031,-0.0504,-0.0832,-0.1104,-0.1052,-0.1093,-0.1121,-0.1121,-0.1331,-0.1394,-0.1512,-0.1674,-0.1833,-0.1935,-0.1944,-0.1899,-0.1928,-0.1871,-0.1897,-0.1954,-0.1922,-0.1906,-0.2018,-0.1984,-0.2022,-0.2022,-0.2075,-0.2073,0.0,0.0,0.0,0.0,0.0,-0.2598,-0.2602,-0.2341,-0.2251,-0.2326,-0.2346,-0.2357,-0.2354,-0.2402,-0.2308,-0.2276,-0.2185,-0.2064,-0.194,-0.1874,-0.1864,-0.1778,-0.173,-0.1666,-0.1611,-0.1611,-0.1576,-0.1483,-0.1569,-0.1529,0.0,0.0,-0.1413,-0.1378,-0.1397,-0.1447,-0.1567,-0.189,-0.2048,-0.2203,-0.2559,-0.2723,-0.3001,-0.3492,-0.3791,-0.4332,-0.5037,-0.5347,-0.5713,-0.6019,-0.6914,-0.7654,-0.8052,-0.8871,-0.9481,-0.9559,-1.0189,-1.082,-1.1564,-1.1568,-1.1946,-1.2602,-1.3145,-1.3588,-1.382,-1.4717,-1.5352,-1.5941,-1.6181,-1.678,-1.7497,-1.7732,-1.8077,-1.8428,-1.8532,-1.8881,-1.916,-1.9483,-1.9624,-1.9922,-2.0591,-2.1101,-2.1362,-0.0,0.0,-0.0,-0.0,-0.0249,-0.0518,-0.0521,-0.0867,-0.1097,-0.1126,-0.1161,-0.1258,-0.1258,-0.1486,-0.1639,-0.1789,-0.1957,-0.2115,-0.2208,-0.2138,-0.2135,-0.2072,-0.201,-0.2031,-0.2197,-0.2128,-0.2148,-0.2261,-0.224,-0.2202,-0.2202,-0.2255,-0.2264,0.0,0.0,0.0,0.0,0.0,0.0,-0.2928,-0.2856,-0.2869,-0.279,-0.2661,-0.2678,-0.2771,-0.2641,-0.2528,-0.2468,-0.2388,-0.229,-0.2101,-0.2098,-0.2031,-0.1897,-0.1924,-0.1847,-0.1843,-0.1766,-0.1705,-0.1642,-0.1632,-0.166,-0.169,0.0,0.0,0.0,-0.1661,-0.1676,-0.1764,-0.1948,-0.2103,-0.2244,-0.24,-0.2568,-0.274,-0.304,-0.35,-0.4023,-0.4777,-0.5106,-0.5426,-0.5786,-0.6637,-0.7463,-0.823,-0.8799,-0.9302,-0.9462,-1.0071,-1.0712,-1.1402,-1.1551,-1.1995,-1.2651,-1.3354,-1.3826,-1.4053,-1.5198,-1.5892,-1.6252,-1.6809,-1.7379,-1.7972,-1.8083,-1.8421,-1.8881,-1.8997,-1.9345,-1.9877,-2.0246,-2.0362,-2.0551,-2.1638,-2.2237,-2.223,-0.0,-0.0,0.0,-0.0,-0.0253,-0.0521,-0.0468,-0.0892,-0.1197,-0.1157,-0.1211,-0.1325,-0.1559,-0.1746,-0.1927,-0.2249,-0.2311,-0.2397,-0.239,-0.2285,-0.2266,-0.2336,-0.2271,-0.2332,-0.2456,-0.238,-0.2341,-0.2399,-0.2264,-0.2227,-0.2227,-0.2395,-0.249,0.0,-0.27,0.0,0.0,0.0,-0.3163,-0.3242,-0.3399,-0.336,-0.33,-0.3243,-0.3272,-0.3257,-0.3179,-0.3048,-0.3048,-0.3033,-0.2914,-0.2674,-0.2609,-0.2512,-0.241,-0.2352,-0.2291,-0.2231,-0.2178,-0.2154,-0.2132,-0.2147,-0.2004,-0.1874,-0.1874,0.0,-0.1616,-0.1621,0.0,-0.1755,-0.1971,0.0,0.0,-0.2281,-0.2409,-0.2529,-0.2844,-0.3123,-0.3541,-0.4182,-0.4807,-0.5238,-0.5353,-0.6278,-0.7047,-0.7589,-0.8212,-0.8762,-0.9123,-0.9723,-1.0325,-1.1001,-1.1372,-1.1885,-1.2315,-1.3399,-1.4058,-1.4275,-1.5451,-1.6155,-1.6497,-1.6891,-1.7379,-1.7966,-1.8311,-1.8532,-1.8997,-1.9461,-1.97,-1.9877,-2.0479,-2.0832,-2.115,-2.188,-2.2487,-2.2988,-0.0,-0.0,0.0,-0.0,-0.0257,-0.0532,-0.0471,-0.0908,-0.1238,-0.1288,-0.1257,-0.137,-0.1633,0.0,0.0,0.0,0.0,-0.2601,0.0,-0.2523,-0.2521,-0.26,-0.2633,-0.2673,-0.2792,-0.271,-0.2683,-0.265,-0.2555,-0.2514,-0.2465,-0.263,-0.2673,0.0,-0.2873,0.0,-0.3179,0.0,-0.3437,-0.3569,-0.3741,-0.3808,-0.386,-0.3696,-0.3553,-0.3557,-0.3414,-0.3251,-0.3144,-0.3144,-0.2931,-0.2779,-0.2753,-0.2661,-0.2557,-0.2533,-0.2458,-0.2379,-0.2353,-0.2322,-0.2283,-0.2222,-0.2137,-0.2059,-0.2095,-0.2018,-0.1951,-0.1951,0.0,0.0,0.0,0.0,0.0,0.0,-0.2332,-0.2371,-0.2519,-0.2819,-0.3217,-0.3776,-0.4452,-0.5142,-0.5714,-0.6338,-0.6873,-0.7295,-0.7921,-0.847,-0.8922,-0.9557,-1.0216,-1.086,-1.1363,-1.1828,-1.2479,-1.3482,-1.4164,-1.4508,-1.5784,-1.6425,-1.6537,-1.7015,-1.7602,-1.8194,-1.8305,-1.8655,-1.9243,-1.9584,-1.9924,-2.0204,-2.0753,-2.1265,-2.1845,-2.2414,-2.3068,-2.3736,-0.0,0.0,0.0,0.0,-0.0324,-0.0542,-0.0688,-0.1009,-0.121,-0.1263,-0.131,-0.1431,-0.1795,-0.2019,0.0,0.0,-0.2727,-0.2794,0.0,-0.2791,-0.2876,-0.2887,-0.2972,-0.307,-0.3128,-0.3064,-0.2937,-0.2936,-0.2887,-0.2828,-0.2764,-0.283,-0.2877,-0.2968,0.0,-0.3245,-0.3413,0.0,-0.3739,-0.3899,-0.4024,-0.423,-0.4334,-0.4085,-0.3826,-0.3736,-0.3736,-0.3558,-0.3358,-0.334,-0.3137,-0.3002,-0.2967,-0.2891,-0.2808,-0.2773,-0.2697,-0.2614,-0.2581,-0.2539,-0.2491,-0.2426,-0.2397,-0.2371,-0.2393,-0.2367,-0.2354,-0.2354,-0.2288,0.0,0.0,0.0,-0.2219,-0.2219,0.0,-0.2286,-0.2357,-0.2644,-0.3045,-0.3428,-0.4205,-0.4936,-0.5734,-0.613,-0.6545,-0.699,-0.748,-0.8119,-0.875,-0.9236,-0.9912,-1.0674,-1.1177,-1.1815,-1.2483,-1.3412,-1.4094,-1.4655,-1.5715,-1.6301,-1.6537,-1.7132,-1.7719,-1.8421,-1.8421,-1.8771,-1.9475,-1.9815,-2.0155,-2.0522,-2.1097,-2.1737,-2.2424,-2.2961,-2.3512,-2.4109,-0.0,-0.0,0.0,0.0,0.0,-0.0755,-0.1083,-0.1215,-0.1266,-0.1297,-0.1377,0.0,0.0,0.0,0.0,0.0,0.0,-0.2951,-0.2947,-0.3012,-0.317,-0.3268,-0.3445,-0.3475,-0.3616,-0.3356,-0.322,-0.3213,-0.3036,-0.3009,-0.3007,-0.3009,-0.3121,-0.3409,-0.3447,-0.3614,-0.3862,-0.402,-0.4128,-0.4166,-0.427,-0.4453,-0.4696,-0.4407,-0.4164,-0.4033,-0.4033,-0.3983,-0.3905,-0.3837,-0.376,-0.3668,-0.352,-0.3469,-0.3437,-0.329,-0.3243,-0.3209,-0.3066,-0.2949,-0.3004,-0.3003,-0.2855,-0.28,-0.2797,-0.2739,-0.2686,-0.2686,-0.2555,-0.2424,-0.2424,-0.229,-0.2224,-0.2224,-0.2227,0.0,0.0,-0.2634,-0.2884,-0.3034,-0.3927,-0.4678,-0.4958,-0.5405,-0.5914,-0.6514,-0.6719,-0.7363,-0.8571,-0.8852,-0.9295,-1.016,-1.0877,-1.1573,-1.2254,-1.3065,-1.3862,-1.4655,-1.5245,-1.5952,-1.6537,-1.6903,-1.7485,-1.8421,-1.8421,-1.8881,-1.9815,-2.0155,-2.05,-2.0723,-2.1439,-2.2,-2.2602,-2.2999,-2.3483,-2.4159,0.0,0.0,0.0,0.0,0.0,0.0,-0.1215,-0.1322,-0.129,0.0,-0.1416,0.0,0.0,-0.2323,-0.2661,0.0,0.0,-0.3219,-0.3274,-0.3429,0.0,-0.3851,-0.3957,-0.3906,-0.3899,-0.3691,-0.3495,-0.3318,-0.3195,-0.3136,-0.314,-0.3205,-0.3382,-0.3551,-0.3722,-0.3893,0.0,0.0,0.0,-0.4795,-0.4827,-0.4816,-0.4714,-0.467,-0.451,-0.4236,-0.4236,-0.4084,-0.3908,-0.3839,-0.3764,-0.3684,-0.3582,-0.3513,-0.3462,-0.3411,-0.336,-0.3381,-0.32,-0.3171,-0.3142,-0.302,-0.2969,-0.2936,-0.2959,-0.2926,-0.2908,-0.2908,-0.2838,-0.2754,-0.2704,-0.2625,-0.261,-0.2562,-0.2554,-0.2554,0.0,-0.2824,-0.2999,-0.3319,-0.39,-0.4359,-0.4696,-0.5221,-0.5684,-0.6102,-0.6544,-0.7128,-0.7825,-0.8564,-0.913,-0.9768,-1.0594,-1.1459,-1.2139,-1.2836,-1.3742,-1.4655,-1.5245,-1.5952,-1.6537,-1.6903,-1.7491,-1.8421,-1.8421,-1.8881,-1.9815,-2.0162,-2.0493,-2.0723,-2.1432,-2.1956,-2.2337,-2.2905,-2.3677,-2.4515,-0.0,0.0,0.0,0.0,0.0,0.0,-0.1247,-0.1284,-0.1336,0.0,-0.1463,0.0,-0.2329,0.0,-0.2644,0.0,-0.3273,-0.338,-0.3643,-0.3709,0.0,-0.4197,-0.4286,-0.4224,-0.4132,-0.3952,-0.3744,-0.3505,-0.3383,-0.3313,-0.3356,-0.3387,-0.3533,-0.3738,-0.3949,-0.4212,-0.4473,-0.4582,-0.4866,-0.522,-0.5165,-0.5018,-0.486,-0.4814,-0.4736,-0.4537,-0.4537,-0.4401,-0.4239,-0.4135,-0.4063,-0.4001,-0.389,-0.3818,-0.3771,-0.3743,-0.3698,-0.3639,-0.3557,-0.3535,-0.3509,-0.3408,-0.3361,-0.3317,-0.3312,-0.3268,-0.324,-0.3212,-0.3132,-0.3043,-0.2992,-0.2889,-0.2783,-0.2734,-0.2703,-0.2753,0.0,-0.3023,-0.3226,-0.3487,-0.3825,-0.413,-0.446,-0.4927,-0.5386,-0.5832,-0.6216,-0.6807,-0.7496,-0.8217,-0.889,-0.9388,-1.0356,-1.1212,-1.1937,-1.2648,-1.3471,-1.4533,-1.4966,-1.5715,-1.6537,-1.6661,-1.7367,-1.8421,-1.8421,-1.8881,-1.9815,-2.0162,-2.0493,-2.0838,-2.1539,-2.2002,-2.2154,-2.2844,-2.3761,-2.4792,-0.0,-0.0,0.0,0.0,-0.094,-0.0766,-0.1258,-0.1337,-0.1404,0.0,-0.1519,-0.1882,-0.2421,-0.2468,-0.2724,-0.3305,-0.3417,-0.3522,-0.3945,-0.4023,0.0,0.0,-0.4407,-0.4414,-0.4328,-0.4144,-0.3959,-0.3777,-0.3599,-0.353,-0.3633,-0.3546,-0.3701,-0.4038,-0.4331,0.0,-0.479,-0.4981,-0.5175,-0.5417,-0.5177,-0.5156,-0.514,-0.4937,-0.4834,-0.4834,-0.4834,-0.483,-0.4802,-0.463,-0.4569,-0.4534,-0.4355,-0.43,-0.4283,-0.4202,-0.4179,-0.4159,-0.4067,-0.4042,-0.404,-0.4036,-0.3969,-0.3883,-0.3874,-0.3707,-0.3624,-0.3542,-0.3377,-0.3229,-0.322,-0.301,-0.2814,-0.2807,-0.2809,-0.2825,-0.3025,-0.3295,-0.3496,-0.3556,-0.3756,-0.4004,-0.4181,-0.4533,-0.5019,-0.561,-0.5823,-0.6325,-0.7369,-0.7908,-0.8505,-0.9209,-1.0076,-1.086,-1.1564,-1.2289,-1.3164,-1.4311,-1.4543,-1.524,-1.6419,-1.6537,-1.7126,-1.8415,-1.8421,-1.8881,-1.9815,-2.0155,-2.0493,-2.0831,-2.1759,-2.2116,-2.2268,-2.2944,-2.3961,-2.5061,-0.0,-0.0,-0.0151,0.0,-0.1,-0.1191,-0.1344,-0.1395,-0.1451,-0.1527,-0.1772,-0.2119,-0.2467,-0.2755,-0.3135,-0.3474,-0.3474,-0.3692,-0.4127,-0.4256,-0.4412,-0.4934,-0.474,-0.472,-0.4698,-0.4391,-0.4144,-0.3965,-0.3942,-0.3878,-0.3846,-0.3961,-0.4112,-0.4241,-0.4474,-0.477,-0.4988,-0.5175,-0.5439,-0.5647,-0.5701,-0.5518,-0.524,-0.514,-0.4937,-0.4834,-0.4834,-0.4794,-0.4724,-0.461,-0.4526,-0.4451,-0.4336,-0.43,-0.4295,-0.4273,-0.4267,-0.4246,-0.4161,-0.4138,-0.4122,-0.4053,-0.4099,-0.4238,-0.4214,-0.419,-0.4164,-0.414,-0.3976,-0.3774,-0.3643,-0.3599,-0.3465,-0.334,-0.3383,-0.3368,-0.337,-0.3565,-0.3768,-0.3828,-0.3961,-0.3974,-0.4069,-0.4338,-0.4828,-0.5399,-0.5631,-0.6061,-0.6881,-0.7694,-0.8359,-0.884,-0.9807,-1.0754,-1.1564,-1.2068,-1.2818,-1.3961,-1.4425,-1.5007,-1.5833,-1.6301,-1.7009,-1.7713,-1.8181,-1.8771,-1.9468,-2.0046,-2.0493,-2.0831,-2.1759,-2.257,-2.3143,-2.3578,-2.4006,-2.4695,-0.0,-0.0304,0.0,-0.0737,-0.1078,-0.1352,-0.1402,-0.1446,-0.1503,-0.1581,-0.1919,-0.2166,-0.2542,-0.2919,-0.3182,-0.3534,-0.3537,-0.3758,-0.4311,-0.4351,-0.4525,-0.5167,-0.4992,-0.4875,-0.4836,-0.4561,-0.4401,-0.4176,-0.4157,-0.4146,-0.4058,-0.4152,-0.4209,-0.4311,0.0,-0.479,-0.5048,-0.5494,-0.5748,-0.5921,-0.5953,-0.5842,0.0,-0.524,-0.514,-0.4931,-0.4794,-0.4749,-0.4696,-0.4604,-0.4512,-0.442,-0.4326,-0.43,-0.43,-0.43,-0.4389,-0.4467,-0.4418,-0.4491,-0.4563,-0.4422,-0.4579,-0.4651,-0.461,-0.46,-0.4587,-0.4543,-0.445,-0.4253,-0.4223,-0.4132,-0.4011,-0.3821,-0.381,-0.3792,-0.3785,-0.3969,-0.4069,-0.4161,-0.4242,-0.4293,-0.424,-0.4362,-0.4731,-0.529,-0.5504,-0.5927,-0.6681,-0.7516,-0.8155,-0.8566,-0.9562,-1.0485,-1.1313,-1.1867,-1.2662,-1.3707,-1.438,-1.5007,-1.5596,-1.6183,-1.6891,-1.7485,-1.8188,-1.8655,-1.9236,-1.9924,-2.0385,-2.0608,-2.1653,-2.2796,-2.3697,-2.3809,-2.4144,-2.4521,-0.0149,0.0,0.0,0.0,-0.125,-0.1455,-0.1458,-0.1504,-0.1558,-0.1615,-0.196,-0.2326,-0.2617,-0.296,-0.3312,-0.3583,-0.3587,-0.3923,-0.4479,-0.4422,-0.4607,-0.5152,-0.5098,-0.4965,-0.4873,-0.4687,-0.4555,-0.455,-0.4345,-0.4252,-0.4315,-0.4275,-0.4298,0.0,0.0,0.0,0.0,-0.5795,-0.6086,-0.6105,-0.6049,-0.6042,-0.5942,-0.5441,-0.5233,-0.5211,-0.4833,-0.47,-0.4677,-0.4585,-0.4493,-0.4404,-0.4324,-0.43,-0.43,-0.43,-0.448,-0.475,-0.475,-0.4844,-0.5029,-0.5029,-0.5041,-0.5116,-0.5029,-0.501,-0.4983,-0.4889,-0.4784,-0.4777,-0.4749,-0.457,-0.4363,-0.4168,-0.4213,-0.4205,-0.4178,-0.4346,-0.4505,-0.445,-0.4624,0.0,-0.4507,-0.448,-0.4731,-0.529,-0.5414,-0.5822,-0.6675,-0.7348,-0.7918,-0.8419,-0.941,-1.0276,-1.0988,-1.1757,-1.2607,-1.3417,-1.4202,-1.4888,-1.5477,-1.6183,-1.6773,-1.7367,-1.8071,-1.8532,-1.8881,-1.9809,-2.0385,-2.0615,-2.1653,-2.2788,-2.3921,-2.3921,-2.4178,-2.4667,-0.0987,0.0,0.0,0.0,-0.1494,-0.1556,-0.1581,-0.1594,-0.1613,-0.165,-0.2126,-0.2499,-0.2624,-0.31,-0.3576,-0.3586,-0.3813,-0.4147,-0.4479,-0.4693,-0.5021,-0.5357,-0.5253,-0.5155,-0.5061,-0.4814,-0.4683,-0.4756,-0.4651,-0.4593,-0.4497,-0.4533,-0.4556,0.0,0.0,0.0,-0.5341,-0.5863,-0.6086,-0.6108,-0.6243,-0.6239,-0.5942,-0.5942,-0.5688,-0.5415,-0.5101,-0.485,-0.4581,-0.4489,-0.4398,-0.432,-0.4304,-0.43,-0.43,-0.4569,-0.4661,-0.475,-0.4924,-0.5075,-0.5141,-0.5141,-0.5391,-0.5543,-0.5526,-0.5521,-0.5516,-0.5496,-0.5403,-0.5259,-0.5078,-0.4787,-0.4606,-0.4562,-0.4622,-0.475,-0.4576,-0.4742,-0.4829,-0.4767,-0.4796,-0.4787,-0.4643,-0.4599,-0.4731,-0.529,-0.5324,-0.5717,-0.6671,-0.7348,-0.7918,-0.8419,-0.941,-1.0276,-1.0988,-1.1757,-1.2492,-1.3184,-1.4084,-1.465,-1.4774,-1.5946,-1.6537,-1.6773,-1.7608,-1.8194,-1.8532,-1.9461,-2.0615,-2.1767,-2.1995,-2.2788,-2.3921,-2.3921,-2.444,-2.5275,-0.1411,0.0,0.0,0.0,-0.1566,-0.161,-0.1655,-0.1675,-0.1797,-0.1919,-0.2382,-0.2634,-0.2878,-0.3347,-0.3587,-0.3587,-0.3813,-0.4148,-0.4479,-0.4706,-0.5043,-0.5382,-0.5294,-0.5202,-0.511,-0.4991,-0.4955,-0.4988,-0.4998,-0.4866,-0.4772,-0.4729,-0.4681,-0.4646,0.0,-0.5094,-0.5401,-0.5882,-0.6086,-0.6108,-0.6342,-0.6337,-0.6239,-0.6042,-0.5874,-0.5672,-0.5326,-0.5052,-0.4773,-0.4543,-0.4375,-0.43,-0.448,-0.448,-0.4569,-0.4746,-0.4963,-0.5189,-0.5277,-0.5448,-0.5624,-0.5624,-0.5758,-0.5892,-0.5892,-0.5892,-0.5892,-0.5892,-0.58,-0.5748,-0.5577,-0.5323,-0.5175,-0.506,-0.516,-0.5143,-0.5056,-0.5107,-0.5195,-0.5105,-0.5165,-0.512,-0.5,-0.5023,-0.5119,-0.5405,-0.5478,-0.5917,-0.6671,-0.7272,-0.7835,-0.8415,-0.9225,-1.0184,-1.0988,-1.1661,-1.2393,-1.3069,-1.3966,-1.4538,-1.4655,-1.572,-1.6425,-1.6537,-1.7367,-1.796,-1.8538,-1.9577,-2.073,-2.1888,-2.2002,-2.2788,-2.3921,-2.3921,-2.4482,-2.5482,-0.1583,-0.1599,0.0,-0.1713,-0.1632,-0.1653,-0.1706,-0.1734,-0.1859,-0.2188,-0.2414,-0.2763,-0.3022,-0.3362,-0.3587,-0.3699,-0.3924,-0.4258,-0.4592,-0.4817,-0.5156,-0.5382,-0.5312,-0.5222,-0.511,-0.5156,-0.5225,-0.5111,-0.5169,-0.5149,-0.505,-0.4931,-0.4822,-0.4746,-0.5105,-0.5333,-0.5474,-0.5904,-0.6102,-0.6143,-0.6352,-0.6437,-0.6334,-0.6114,-0.6036,-0.5919,-0.5521,-0.532,-0.5137,-0.468,-0.4449,-0.4478,-0.4659,-0.4764,-0.4869,-0.5046,-0.5395,-0.567,-0.567,-0.5941,-0.6124,-0.6124,-0.6143,-0.6159,-0.6159,-0.6159,-0.6159,-0.6159,-0.6143,-0.6094,-0.5999,-0.5885,-0.5776,-0.5678,-0.567,-0.5675,-0.5712,-0.5704,-0.5689,-0.5617,-0.5644,-0.561,-0.5448,-0.5579,-0.5657,-0.5554,-0.5744,-0.6066,-0.6675,-0.712,-0.767,-0.8411,-0.9146,-1.01,-1.0984,-1.1573,-1.2303,-1.3069,-1.3973,-1.4432,-1.4655,-1.5607,-1.62,-1.6537,-1.7132,-1.7837,-1.8648,-1.9809,-2.0737,-2.1546,-2.1995,-2.2788,-2.3705,-2.4003,-2.4599,-2.5497,-0.1556,0.0,-0.1716,-0.1652,-0.1679,-0.1707,-0.174,-0.1748,-0.1859,-0.2188,-0.244,-0.2799,-0.3025,-0.3362,-0.3699,-0.3924,-0.4258,-0.4592,-0.4817,-0.5156,-0.5382,-0.5382,-0.5373,-0.5288,-0.5112,-0.5326,-0.5331,-0.5313,-0.5375,-0.5352,-0.5167,-0.5053,-0.4993,-0.4999,-0.5358,-0.5583,-0.5716,-0.5975,-0.6151,-0.6263,-0.6385,-0.6437,-0.6426,-0.6325,-0.6208,-0.5992,-0.5691,-0.5484,-0.5297,-0.5025,-0.4928,-0.4921,-0.4921,-0.5077,-0.5247,-0.5435,-0.5601,-0.5782,-0.5973,-0.6159,-0.6252,-0.6252,-0.6328,-0.6404,-0.6404,-0.6404,-0.6404,-0.6404,-0.6323,-0.6246,-0.6236,-0.6135,-0.6142,-0.6409,-0.6394,-0.6498,-0.6729,-0.6694,-0.6517,-0.6432,-0.6298,-0.6123,-0.5848,-0.6045,-0.6064,-0.5854,-0.5799,-0.6066,-0.6675,-0.712,-0.767,-0.8411,-0.9146,-1.01,-1.0984,-1.1573,-1.2303,-1.3069,-1.3973,-1.4432,-1.4655,-1.5607,-1.62,-1.6537,-1.6903,-1.7719,-1.8874,-1.9924,-2.0622,-2.1325,-2.1888,-2.2449,-2.3167,-2.4162,-2.4869,-2.5702,-0.1647,-0.1662,-0.1679,-0.171,-0.1724,-0.1742,-0.1772,-0.1777,-0.1999,-0.2444,-0.2571,-0.2917,-0.3363,-0.3475,-0.3699,-0.3924,-0.4258,-0.4592,-0.4929,-0.5268,-0.5382,-0.5382,-0.5382,-0.5296,-0.5112,-0.5494,-0.5637,-0.5425,-0.558,-0.5636,-0.551,-0.5317,-0.5227,-0.5241,-0.5532,-0.5687,-0.5754,-0.6064,-0.6225,-0.6279,-0.6391,-0.6396,-0.6331,-0.6285,-0.6146,-0.5969,-0.5831,-0.565,-0.5552,-0.5463,-0.5191,-0.502,-0.527,-0.5413,-0.546,-0.5808,-0.6005,-0.6096,-0.6195,-0.6282,-0.6369,-0.6369,-0.6401,-0.6437,-0.6437,-0.6437,-0.6437,-0.6437,-0.6399,-0.6369,-0.6572,-0.6566,-0.6576,-0.6858,-0.6795,-0.6807,-0.6894,-0.6879,-0.681,-0.6624,-0.6602,-0.6508,-0.6347,-0.6417,-0.6505,-0.6364,-0.6301,-0.6413,-0.6929,-0.7381,-0.7955,-0.8602,-0.9343,-1.0209,-1.0988,-1.1454,-1.2181,-1.3069,-1.3609,-1.4068,-1.465,-1.5245,-1.5828,-1.6537,-1.7485,-1.8188,-1.8648,-1.9809,-2.05,-2.096,-2.1767,-2.2456,-2.3143,-2.3852,-2.4728,-2.5611,-0.1607,-0.1718,-0.1727,-0.1758,-0.1763,-0.177,-0.1792,-0.1795,-0.202,-0.2581,-0.2693,-0.2917,-0.3587,-0.3699,-0.3811,-0.4035,-0.437,-0.4706,-0.5043,-0.5268,-0.5382,-0.5382,-0.5382,-0.5308,-0.5151,-0.5654,-0.5817,-0.5534,-0.5828,-0.5931,-0.5779,-0.5605,-0.5526,-0.5534,-0.5744,-0.5858,-0.5909,-0.6162,-0.6287,-0.6325,-0.6404,-0.6369,-0.6265,-0.623,-0.6083,-0.5899,-0.5866,-0.5801,-0.5738,-0.5771,-0.551,-0.534,-0.5606,-0.5773,-0.5844,-0.6116,-0.6225,-0.6317,-0.6317,-0.6377,-0.6437,-0.6437,-0.6437,-0.6437,-0.6437,-0.6437,-0.6437,-0.6537,-0.6539,-0.6639,-0.6842,-0.6866,-0.6902,-0.7195,-0.7215,-0.7155,-0.7248,-0.7152,-0.7168,-0.7053,-0.6972,-0.6923,-0.6734,-0.6766,-0.6749,-0.6785,-0.6764,-0.6885,-0.7161,-0.7726,-0.8227,-0.8851,-0.9561,-1.0305,-1.1076,-1.1406,-1.2068,-1.298,-1.3383,-1.3833,-1.4553,-1.5203,-1.5822,-1.6537,-1.783,-1.8421,-1.8532,-1.9809,-2.0378,-2.0723,-2.1653,-2.2335,-2.2804,-2.369,-2.458,-2.5486,-0.1526,-0.1749,-0.1759,-0.1789,-0.1794,-0.1795,-0.1795,-0.1795,-0.202,-0.2581,-0.2693,-0.2917,-0.3587,-0.3813,-0.4035,-0.4143,-0.4592,-0.5043,-0.5382,-0.5382,-0.5382,-0.5382,-0.5382,-0.5339,-0.5245,-0.5687,-0.5853,-0.5646,-0.6028,-0.614,-0.5901,-0.5896,-0.5896,-0.5901,-0.6026,-0.6149,-0.6263,-0.6268,-0.6333,-0.6434,-0.6437,-0.6369,-0.6257,-0.6132,-0.601,-0.5888,-0.5776,-0.5735,-0.5749,-0.5863,-0.5901,-0.5901,-0.5901,-0.607,-0.6265,-0.6265,-0.6344,-0.6434,-0.6434,-0.6434,-0.6437,-0.6437,-0.6437,-0.6437,-0.6437,-0.6437,-0.6437,-0.6742,-0.6845,-0.6842,-0.7138,-0.7235,-0.7238,-0.7543,-0.7543,-0.764,-0.7935,-0.7832,-0.7829,-0.7822,-0.7598,-0.7323,-0.7139,-0.701,-0.6946,-0.7123,-0.7321,-0.7499,-0.7499,-0.7937,-0.8516,-0.9308,-0.9694,-1.0372,-1.1283,-1.1472,-1.2004,-1.2772,-1.331,-1.3749,-1.4321,-1.5836,-1.6537,-1.6537,-1.783,-1.8421,-1.8532,-1.9809,-2.027,-2.0385,-2.1653,-2.2116,-2.2268,-2.3853,-2.4672,-2.516,-0.0445,-0.1224,-0.1783,-0.1793,-0.1795,-0.1795,-0.1795,-0.1795,-0.202,-0.2581,-0.2693,-0.2917,-0.3587,-0.3813,-0.4147,-0.4369,-0.4704,-0.5043,-0.5382,-0.5382,-0.5382,-0.5382,-0.5382,-0.5339,-0.5247,-0.5537,-0.5744,-0.5748,-0.5944,-0.6068,-0.6029,-0.6029,-0.6029,-0.6032,-0.6157,-0.6233,-0.6274,-0.635,-0.6404,-0.6429,-0.6352,-0.6249,-0.613,-0.6007,-0.5888,-0.5782,-0.5746,-0.5782,-0.5855,-0.589,-0.6013,-0.6151,-0.6151,-0.6206,-0.6285,-0.6361,-0.6407,-0.6437,-0.6437,-0.6437,-0.6437,-0.6437,-0.6437,-0.6437,-0.6437,-0.6539,-0.6742,-0.6745,-0.6942,-0.7141,-0.7444,-0.7444,-0.7543,-0.7842,-0.7842,-0.7942,-0.7939,-0.7939,-0.7939,-0.7836,-0.7771,-0.758,-0.7472,-0.7594,-0.7636,-0.7674,-0.8124,-0.8178,-0.7952,-0.8559,-0.9103,-0.9525,-1.0248,-1.0847,-1.1291,-1.1688,-1.222,-1.2767,-1.2945,-1.3497,-1.4316,-1.5836,-1.6537,-1.6537,-1.783,-1.8421,-1.8532,-1.9809,-2.027,-2.0385,-2.1653,-2.2116,-2.2237,-2.3594,-2.4309,-2.4787,-0.0,-0.0785,-0.157,-0.1795,-0.1795,-0.1795,-0.1795,-0.1907,-0.2132,-0.2581,-0.2806,-0.3029,-0.3587,-0.3923,-0.4258,-0.4592,-0.4929,-0.5156,-0.5382,-0.5382,-0.5382,-0.5382,-0.5382,-0.5355,-0.5298,-0.5475,-0.5721,-0.5915,-0.6077,-0.6211,-0.6217,-0.6217,-0.6217,-0.6219,-0.6298,-0.6331,-0.6336,-0.6407,-0.6437,-0.6426,-0.6314,-0.6195,-0.6072,-0.595,-0.5833,-0.5733,-0.5733,-0.5806,-0.5909,-0.5956,-0.6105,-0.6276,-0.632,-0.6331,-0.6344,-0.6415,-0.6437,-0.6437,-0.6437,-0.6437,-0.6437,-0.6437,-0.6437,-0.6437,-0.6539,-0.6779,-0.7018,-0.7217,-0.7357,-0.7594,-0.7903,-0.7903,-0.8004,-0.8208,-0.816,-0.8106,-0.8151,-0.8041,-0.7939,-0.7836,-0.7932,-0.7957,-0.7973,-0.8094,-0.8372,-0.8431,-0.8771,-0.9001,-0.8877,-0.9227,-0.9526,-0.9925,-1.0577,-1.1147,-1.1507,-1.195,-1.2298,-1.2767,-1.2986,-1.366,-1.4549,-1.5859,-1.6452,-1.6537,-1.7719,-1.8311,-1.8538,-1.9461,-2.004,-2.0385,-2.1425,-2.1888,-2.223,-2.3239,-2.3909,-2.4588,-0.0,-0.0449,-0.1121,-0.1683,-0.1795,-0.1795,-0.1795,-0.202,-0.2356,-0.2693,-0.2915,-0.325,-0.3587,-0.4145,-0.4592,-0.4817,-0.5156,-0.5382,-0.5382,-0.5382,-0.5382,-0.5382,-0.5382,-0.5382,-0.5382,-0.5513,-0.5791,-0.611,-0.6422,-0.6556,-0.6437,-0.6437,-0.6437,-0.6437,-0.6437,-0.6437,-0.6437,-0.6437,-0.6437,-0.6426,-0.6312,-0.6192,-0.6072,-0.5939,-0.5825,-0.5735,-0.5741,-0.5817,-0.5934,-0.6056,-0.6181,-0.6298,-0.6401,-0.6437,-0.6437,-0.6437,-0.6437,-0.6437,-0.6437,-0.6437,-0.6437,-0.6448,-0.6456,-0.6561,-0.6768,-0.6966,-0.7358,-0.7763,-0.8076,-0.8171,-0.8482,-0.8482,-0.8482,-0.8482,-0.837,-0.8333,-0.8272,-0.8144,-0.8048,-0.8065,-0.8155,-0.835,-0.8567,-0.8735,-0.8905,-0.9264,-0.9516,-0.9709,-0.992,-0.9782,-0.9933,-1.0436,-1.0787,-1.1293,-1.1997,-1.2226,-1.2553,-1.2874,-1.3441,-1.4112,-1.4755,-1.582,-1.6309,-1.6537,-1.7614,-1.8194,-1.8421,-1.9004,-1.97,-2.0385,-2.0974,-2.1546,-2.223,-2.2788,-2.3561,-2.453,-0.0,-0.0449,-0.1121,-0.1683,-0.1795,-0.1795,-0.1795,-0.202,-0.2356,-0.2693,-0.2915,-0.325,-0.3587,-0.4145,-0.448,-0.4592,-0.5043,-0.5382,-0.5382,-0.5382,-0.5382,-0.5382,-0.5382,-0.5382,-0.5382,-0.547,-0.5632,-0.5966,-0.6205,-0.6355,-0.6437,-0.6437,-0.6437,-0.6437,-0.6437,-0.6437,-0.6437,-0.6437,-0.6437,-0.6423,-0.6184,-0.6168,-0.6064,-0.5852,-0.5757,-0.5744,-0.5833,-0.5939,-0.6062,-0.6184,-0.6301,-0.6401,-0.6429,-0.6437,-0.6437,-0.6437,-0.6437,-0.6437,-0.6437,-0.6437,-0.6458,-0.6554,-0.6746,-0.7024,-0.7131,-0.747,-0.7913,-0.8017,-0.8252,-0.8377,-0.8482,-0.8482,-0.8482,-0.8482,-0.8455,-0.8446,-0.8489,-0.845,-0.8435,-0.866,-0.8681,-0.8888,-0.9109,-0.9385,-0.9583,-0.9622,-0.9868,-1.016,-1.0298,-1.0605,-1.0932,-1.1063,-1.1431,-1.1957,-1.242,-1.2766,-1.3026,-1.3087,-1.3708,-1.4184,-1.463,-1.5736,-1.6309,-1.6537,-1.7614,-1.8194,-1.8421,-1.9004,-1.97,-2.0385,-2.0974,-2.1546,-2.223,-2.2788,-2.3295,-2.386,-0.0,-0.0449,-0.1121,-0.1683,-0.1795,-0.1795,-0.1795,-0.2132,-0.2469,-0.2693,-0.3027,-0.3362,-0.3587,-0.4145,-0.448,-0.448,-0.5043,-0.5382,-0.5382,-0.5382,-0.5382,-0.5382,-0.5382,-0.5382,-0.5382,-0.5382,-0.5528,-0.5906,-0.613,-0.6308,-0.6437,-0.6437,-0.6437,-0.6437,-0.6437,-0.6437,-0.6437,-0.6437,-0.6437,-0.6426,-0.629,-0.6176,-0.6067,-0.5882,-0.5812,-0.582,-0.588,-0.6018,-0.6181,-0.6246,-0.6342,-0.6437,-0.6437,-0.6437,-0.6437,-0.6437,-0.6437,-0.6437,-0.6437,-0.6478,-0.6548,-0.6774,-0.7064,-0.7323,-0.7536,-0.7905,-0.8272,-0.8375,-0.8538,-0.8693,-0.8693,-0.8693,-0.8693,-0.8693,-0.8632,-0.8663,-0.879,-0.8756,-0.8774,-0.9073,-0.9212,-0.9396,-0.9655,-0.9969,-1.0146,-1.0305,-1.0534,-1.0716,-1.1007,-1.1222,-1.1346,-1.1266,-1.1893,-1.2429,-1.2744,-1.3206,-1.3609,-1.3715,-1.4081,-1.4489,-1.5047,-1.5879,-1.6425,-1.6779,-1.7491,-1.796,-1.8421,-1.8771,-1.9352,-2.0155,-2.0622,-2.1203,-2.1774,-2.2335,-2.2901,-2.3384,-0.0224,-0.0561,-0.1121,-0.1683,-0.1795,-0.1795,-0.1795,-0.2356,-0.2693,-0.2693,-0.3253,-0.3587,-0.3587,-0.4145,-0.448,-0.448,-0.5043,-0.5382,-0.5382,-0.5382,-0.5382,-0.5382,-0.5382,-0.5382,-0.5382,-0.5367,-0.5501,-0.5866,-0.616,-0.6352,-0.6337,-0.6337,-0.6437,-0.6437,-0.6437,-0.6437,-0.6437,-0.6437,-0.6437,-0.6426,-0.6295,-0.6189,-0.61,-0.5964,-0.592,-0.5931,-0.5953,-0.6092,-0.6271,-0.6287,-0.6358,-0.6437,-0.6437,-0.6437,-0.6437,-0.6437,-0.6448,-0.6464,-0.6464,-0.6567,-0.6802,-0.7115,-0.7263,-0.749,-0.8024,-0.8227,-0.8422,-0.8639,-0.8849,-0.894,-0.894,-0.894,-0.894,-0.894,-0.8828,-0.89,-0.9151,-0.9158,-0.9183,-0.9548,-0.9721,-1.0017,-1.0093,-1.043,-1.068,-1.0984,-1.1122,-1.1297,-1.1676,-1.1829,-1.1774,-1.162,-1.2337,-1.2748,-1.3076,-1.3659,-1.4108,-1.4422,-1.4458,-1.4927,-1.5698,-1.6056,-1.6547,-1.702,-1.7373,-1.7837,-1.8421,-1.8421,-1.8997,-1.9815,-2.0155,-2.0622,-2.1325,-2.1774,-2.2449,-2.3014,-0.1346,-0.1234,-0.1121,-0.1683,-0.1795,-0.1795,-0.1795,-0.2356,-0.2693,-0.2693,-0.3253,-0.3587,-0.3587,-0.4145,-0.448,-0.448,-0.5043,-0.5382,-0.5382,-0.5382,-0.5382,-0.5382,-0.5382,-0.5382,-0.5382,-0.5306,-0.5349,-0.5513,-0.5791,-0.5965,-0.6042,-0.6339,-0.6437,-0.6437,-0.6437,-0.6437,-0.6437,-0.6437,-0.6437,-0.6418,-0.6299,-0.6263,-0.6219,-0.6128,-0.6095,-0.607,-0.6173,-0.6236,-0.6282,-0.6377,-0.6423,-0.6437,-0.6437,-0.6437,-0.6437,-0.6437,-0.651,-0.6592,-0.6592,-0.6755,-0.7039,-0.7271,-0.7572,-0.7981,-0.831,-0.8663,-0.8793,-0.8903,-0.8923,-0.894,-0.894,-0.894,-0.894,-0.894,-0.9137,-0.9354,-0.9389,-0.9563,-0.9757,-1.012,-1.0257,-1.0497,-1.0852,-1.0928,-1.1122,-1.1179,-1.1413,-1.1655,-1.168,-1.2306,-1.2736,-1.2705,-1.2732,-1.3198,-1.4004,-1.4123,-1.4385,-1.4665,-1.4745,-1.5087,-1.5698,-1.6056,-1.6547,-1.7026,-1.7614,-1.8077,-1.8421,-1.8765,-1.9229,-1.9815,-2.0155,-2.0622,-2.1211,-2.1668,-2.2116,-2.2683,-0.1234,-0.1346,-0.1458,-0.1795,-0.1795,-0.1795,-0.1795,-0.2356,-0.2693,-0.2693,-0.3253,-0.3587,-0.3587,-0.4145,-0.448,-0.448,-0.5043,-0.5382,-0.5382,-0.5382,-0.5382,-0.5382,-0.5382,-0.5382,-0.5382,-0.5292,-0.5322,-0.5478,-0.5659,-0.5843,-0.6042,-0.6237,-0.6437,-0.6437,-0.6437,-0.6437,-0.6437,-0.6437,-0.6437,-0.6426,-0.632,-0.6357,-0.6327,-0.6255,-0.6239,-0.6261,-0.6241,-0.6309,-0.6366,-0.6418,-0.6437,-0.6437,-0.6437,-0.6437,-0.6448,-0.6516,-0.6575,-0.6646,-0.6782,-0.6899,-0.7108,-0.7607,-0.7889,-0.8156,-0.8602,-0.8826,-0.894,-0.894,-0.894,-0.894,-0.894,-0.894,-0.894,-0.894,-0.9158,-0.9493,-0.9603,-0.9827,-1.0264,-1.0582,-1.0767,-1.0866,-1.1125,-1.1117,-1.1261,-1.1362,-1.1724,-1.1996,-1.2212,-1.2781,-1.3191,-1.3309,-1.3309,-1.3594,-1.4172,-1.4291,-1.4599,-1.4964,-1.5322,-1.5669,-1.6132,-1.6488,-1.6909,-1.7256,-1.7732,-1.8194,-1.8421,-1.8765,-1.9113,-1.9591,-2.0162,-2.0507,-2.0852,-2.1439,-2.201,-2.2343,-0.1121,-0.1458,-0.1795,-0.1795,-0.1795,-0.1795,-0.1907,-0.2356,-0.2693,-0.2806,-0.3251,-0.3587,-0.3699,-0.4145,-0.448,-0.4592,-0.5043,-0.5382,-0.5382,-0.5382,-0.5382,-0.5382,-0.5382,-0.5382,-0.5382,-0.5271,-0.5287,-0.543,-0.5617,-0.5819,-0.5942,-0.6237,-0.6437,-0.6437,-0.6437,-0.6437,-0.6437,-0.6437,-0.6437,-0.6437,-0.6437,-0.6369,-0.6365,-0.6295,-0.629,-0.6365,-0.6298,-0.6363,-0.6437,-0.6437,-0.6437,-0.6437,-0.6437,-0.6437,-0.6461,-0.6584,-0.666,-0.6747,-0.6934,-0.7005,-0.7155,-0.7799,-0.7934,-0.8156,-0.8716,-0.8826,-0.8947,-0.8981,-0.8988,-0.8998,-0.9035,-0.9042,-0.9042,-0.9154,-0.9374,-0.9683,-0.9945,-1.0268,-1.0602,-1.1038,-1.1082,-1.1149,-1.1244,-1.129,-1.1411,-1.1553,-1.1917,-1.2332,-1.2711,-1.3084,-1.3444,-1.3688,-1.3808,-1.3928,-1.4296,-1.453,-1.4883,-1.5235,-1.5844,-1.6194,-1.6537,-1.6903,-1.7256,-1.7602,-1.796,-1.8194,-1.8532,-1.8887,-1.9236,-1.9597,-2.0046,-2.0385,-2.05,-2.1318,-2.1774,-2.2124,-0.1683,-0.1795,-0.1795,-0.1795,-0.1795,-0.1907,-0.2132,-0.2469,-0.2806,-0.3026,-0.3362,-0.3699,-0.3924,-0.4258,-0.4592,-0.4817,-0.5156,-0.5382,-0.5382,-0.5382,-0.5382,-0.5382,-0.5382,-0.5382,-0.5382,-0.5208,-0.5114,-0.5108,-0.5442,-0.5644,-0.5636,-0.6137,-0.6437,-0.6437,-0.6437,-0.6437,-0.6437,-0.6437,-0.6437,-0.6437,-0.6437,-0.6429,-0.642,-0.6423,-0.6423,-0.642,-0.6423,-0.6429,-0.6437,-0.6437,-0.6437,-0.6437,-0.6437,-0.6437,-0.6461,-0.6584,-0.6779,-0.6961,-0.698,-0.7062,-0.7254,-0.7604,-0.7826,-0.8045,-0.8488,-0.8712,-0.8977,-0.911,-0.9137,-0.9181,-0.9323,-0.9351,-0.9466,-0.9809,-1.004,-1.0398,-1.0667,-1.094,-1.1152,-1.1152,-1.1313,-1.1487,-1.1495,-1.1615,-1.1744,-1.1756,-1.2346,-1.2706,-1.2719,-1.3324,-1.3688,-1.3688,-1.4052,-1.4296,-1.4535,-1.4883,-1.5235,-1.5601,-1.5963,-1.6194,-1.6537,-1.6903,-1.7379,-1.7966,-1.8311,-1.8532,-1.8881,-1.9243,-1.9475,-1.9815,-2.0162,-2.0493,-2.0723,-2.1089,-2.1546,-2.2162,-0.1795,-0.1795,-0.1795,-0.1795,-0.1795,-0.1907,-0.2132,-0.2469,-0.2806,-0.3026,-0.3362,-0.3699,-0.3924,-0.4258,-0.4592,-0.4929,-0.5156,-0.5382,-0.5382,-0.5382,-0.5382,-0.5382,-0.5382,-0.5382,-0.5382,-0.5202,-0.5108,-0.5108,-0.5233,-0.5438,-0.5636,-0.5937,-0.6239,-0.6437,-0.6437,-0.6437,-0.6437,-0.6437,-0.6437,-0.6437,-0.6437,-0.6437,-0.6437,-0.6437,-0.6437,-0.6437,-0.6437,-0.6437,-0.6437,-0.6437,-0.6437,-0.6437,-0.6437,-0.6488,-0.6589,-0.6787,-0.6961,-0.7089,-0.7089,-0.7122,-0.7265,-0.7493,-0.7826,-0.8045,-0.8374,-0.8778,-0.9086,-0.9144,-0.9228,-0.9313,-0.9371,-0.9381,-0.9497,-0.9845,-1.0189,-1.0379,-1.0729,-1.1037,-1.1228,-1.1338,-1.1483,-1.1522,-1.1651,-1.1776,-1.1893,-1.2005,-1.2483,-1.284,-1.2964,-1.3444,-1.3808,-1.4052,-1.4291,-1.4535,-1.4655,-1.4883,-1.5359,-1.5963,-1.6194,-1.6549,-1.6779,-1.7373,-1.7732,-1.8089,-1.8538,-1.8765,-1.8997,-1.9468,-1.9707,-1.9815,-2.0378,-2.0601,-2.0716,-2.1089,-2.168,-2.2444,-0.1795,-0.1795,-0.1795,-0.1795,-0.1907,-0.202,-0.2356,-0.258,-0.2915,-0.325,-0.3475,-0.3811,-0.4148,-0.4482,-0.4706,-0.5043,-0.5268,-0.5382,-0.5382,-0.5382,-0.5382,-0.5382,-0.5382,-0.5382,-0.5382,-0.5202,-0.5108,-0.5108,-0.5131,-0.534,-0.5436,-0.5842,-0.6142,-0.6237,-0.6337,-0.6437,-0.6437,-0.6437,-0.6437,-0.6437,-0.6437,-0.6437,-0.6437,-0.6437,-0.6437,-0.6437,-0.6437,-0.6437,-0.6437,-0.6437,-0.6437,-0.6442,-0.648,-0.6603,-0.6763,-0.6918,-0.7054,-0.7154,-0.7154,-0.7154,-0.7265,-0.7382,-0.7712,-0.8057,-0.8323,-0.8854,-0.9181,-0.9276,-0.9381,-0.9466,-0.951,-0.952,-0.9638,-1.0116,-1.0343,-1.0578,-1.1059,-1.1286,-1.1488,-1.1619,-1.1647,-1.1651,-1.1776,-1.1776,-1.1889,-1.2238,-1.2479,-1.284,-1.3324,-1.3569,-1.3808,-1.4172,-1.4411,-1.465,-1.4769,-1.5121,-1.5596,-1.6087,-1.6425,-1.6661,-1.702,-1.7732,-1.8089,-1.8194,-1.8648,-1.8991,-1.9229,-1.9584,-1.9924,-2.0155,-2.0493,-2.0888,-2.122,-2.1465,-2.2143,-2.2905,-0.1795,-0.1795,-0.1795,-0.1795,-0.202,-0.2356,-0.2693,-0.2915,-0.325,-0.3587,-0.3813,-0.4148,-0.448,-0.4706,-0.5043,-0.5382,-0.5382,-0.5382,-0.5382,-0.5382,-0.5382,-0.5382,-0.5382,-0.5382,-0.5382,-0.5202,-0.5108,-0.5108,-0.5133,-0.5242,-0.524,-0.5741,-0.6042,-0.6042,-0.6237,-0.6437,-0.6437,-0.6437,-0.6437,-0.6437,-0.6437,-0.6437,-0.6437,-0.6437,-0.6437,-0.6437,-0.6437,-0.6437,-0.6437,-0.6437,-0.6437,-0.6458,-0.6584,-0.6787,-0.6975,-0.7039,-0.7138,-0.7154,-0.7154,-0.7154,-0.7154,-0.7154,-0.7598,-0.8081,-0.8219,-0.8817,-0.9242,-0.9544,-0.9608,-0.9652,-0.9795,-0.9822,-1.0072,-1.0701,-1.0804,-1.1035,-1.1655,-1.1776,-1.1776,-1.1776,-1.1776,-1.1776,-1.1776,-1.1776,-1.1889,-1.2238,-1.2479,-1.2964,-1.3688,-1.3688,-1.3808,-1.4172,-1.4411,-1.4769,-1.5116,-1.5477,-1.572,-1.6087,-1.6425,-1.6661,-1.7026,-1.7732,-1.82,-1.8421,-1.8765,-1.9229,-1.9815,-1.9815,-2.0155,-2.0716,-2.0716,-2.1379,-2.2248,-2.2161,-2.2833,-2.3621,-0.1795,-0.1908,-0.2132,-0.2132,-0.2356,-0.2692,-0.2915,-0.3026,-0.325,-0.3587,-0.3813,-0.4148,-0.448,-0.4706,-0.5043,-0.5382,-0.5382,-0.5382,-0.5382,-0.5382,-0.5382,-0.5382,-0.5382,-0.5382,-0.5382,-0.5265,-0.5171,-0.5108,-0.5093,-0.5103,-0.524,-0.5539,-0.5839,-0.6042,-0.6237,-0.6437,-0.6437,-0.6437,-0.6437,-0.6437,-0.6437,-0.6437,-0.6437,-0.6437,-0.6437,-0.6437,-0.6437,-0.6437,-0.6448,-0.6537,-0.6564,-0.6594,-0.6771,-0.6984,-0.7064,-0.7163,-0.7116,-0.7154,-0.7154,-0.7154,-0.7154,-0.7154,-0.7604,-0.8066,-0.8214,-0.8824,-0.934,-0.9552,-0.9734,-0.9771,-0.9815,-0.9822,-1.0072,-1.0701,-1.0804,-1.1035,-1.1655,-1.1776,-1.1776,-1.1776,-1.1776,-1.1776,-1.1776,-1.1776,-1.201,-1.2479,-1.3084,-1.3444,-1.3688,-1.3688,-1.3933,-1.4411,-1.4535,-1.4888,-1.5477,-1.5596,-1.5833,-1.6425,-1.6419,-1.6897,-1.7732,-1.8077,-1.8421,-1.8765,-1.9345,-1.9584,-1.9815,-2.027,-2.0493,-2.0737,-2.1423,-2.194,-2.23,-2.2761,-2.3296,-2.3956,-0.1908,-0.2244,-0.2357,-0.2357,-0.2692,-0.2915,-0.3026,-0.325,-0.3362,-0.3699,-0.4036,-0.437,-0.4592,-0.4931,-0.5156,-0.5382,-0.5382,-0.5382,-0.5382,-0.5382,-0.5382,-0.5382,-0.5382,-0.5382,-0.5382,-0.5292,-0.52,-0.5108,-0.5016,-0.5026,-0.5037,-0.5436,-0.5636,-0.5839,-0.6237,-0.6437,-0.6437,-0.6437,-0.6437,-0.6437,-0.6437,-0.6437,-0.6437,-0.6437,-0.6437,-0.6437,-0.6437,-0.6539,-0.655,-0.6625,-0.6716,-0.6818,-0.6942,-0.7045,-0.7138,-0.7127,-0.7154,-0.7154,-0.7154,-0.7154,-0.7154,-0.7154,-0.7607,-0.8171,-0.839,-0.897,-0.9459,-0.9662,-0.9696,-0.9822,-0.9822,-0.9822,-1.0068,-1.0686,-1.0793,-1.1031,-1.1655,-1.1776,-1.1776,-1.1776,-1.1776,-1.1776,-1.1776,-1.1776,-1.2043,-1.2712,-1.3522,-1.3934,-1.3934,-1.3934,-1.4178,-1.4907,-1.4907,-1.5109,-1.5736,-1.5736,-1.6045,-1.6537,-1.6537,-1.7015,-1.7972,-1.8311,-1.8532,-1.8874,-1.9577,-1.9931,-2.004,-2.0493,-2.091,-2.1169,-2.1948,-2.2421,-2.2802,-2.3349,-2.4003,-2.4542,-0.2244,-0.2469,-0.2693,-0.2693,-0.2915,-0.3137,-0.3137,-0.3474,-0.3699,-0.3924,-0.4258,-0.4592,-0.4817,-0.5156,-0.5382,-0.5382,-0.5382,-0.5493,-0.5493,-0.5493,-0.5493,-0.5493,-0.5493,-0.5493,-0.5493,-0.5298,-0.5212,-0.5227,-0.5133,-0.5039,-0.4947,-0.5441,-0.5636,-0.5636,-0.6137,-0.6437,-0.6437,-0.6437,-0.6437,-0.6437,-0.6437,-0.6442,-0.6453,-0.6453,-0.6456,-0.6662,-0.6662,-0.667,-0.6776,-0.6776,-0.6947,-0.7048,-0.7048,-0.7091,-0.7154,-0.7154,-0.7154,-0.7154,-0.7154,-0.7154,-0.716,-0.7182,-0.7756,-0.8329,-0.8457,-0.9063,-0.9602,-0.9785,-0.9822,-0.9822,-0.9822,-0.9822,-1.0065,-1.0668,-1.0778,-1.102,-1.1651,-1.1776,-1.1776,-1.1776,-1.1776,-1.1776,-1.1776,-1.1909,-1.2235,-1.3031,-1.383,-1.4312,-1.4312,-1.4312,-1.4558,-1.5302,-1.5302,-1.5566,-1.5951,-1.6067,-1.6189,-1.6537,-1.6537,-1.7015,-1.8083,-1.8311,-1.8648,-1.8997,-1.9577,-2.006,-2.0312,-2.0651,-2.1191,-2.1855,-2.2236,-2.284,-2.3725,-2.3999,-2.459,-2.5111,-0.2581,-0.2805,-0.3026,-0.3026,-0.325,-0.3475,-0.3475,-0.3701,-0.3924,-0.4038,-0.4482,-0.4817,-0.4929,-0.5156,-0.5382,-0.5382,-0.5601,-0.5824,-0.6051,-0.5824,-0.5824,-0.6051,-0.5824,-0.5824,-0.6051,-0.5804,-0.5744,-0.5863,-0.5868,-0.5761,-0.5553,-0.578,-0.5942,-0.5942,-0.6237,-0.6437,-0.6437,-0.6437,-0.6437,-0.6437,-0.6437,-0.6494,-0.6581,-0.6581,-0.66,-0.673,-0.673,-0.6774,-0.6829,-0.6936,-0.7099,-0.7188,-0.7188,-0.7224,-0.7154,-0.7154,-0.7154,-0.7154,-0.7154,-0.7154,-0.7201,-0.7276,-0.7676,-0.8194,-0.8491,-0.908,-0.9643,-0.9812,-0.9822,-0.9822,-0.9822,-0.9822,-0.9943,-1.0318,-1.0664,-1.0895,-1.1394,-1.1647,-1.1776,-1.1776,-1.1776,-1.1776,-1.1776,-1.2386,-1.2912,-1.3225,-1.3908,-1.4312,-1.4312,-1.4312,-1.4558,-1.5302,-1.5302,-1.5566,-1.5951,-1.6194,-1.6429,-1.6537,-1.6537,-1.7126,-1.8305,-1.8421,-1.8771,-1.9366,-1.9931,-2.041,-2.0758,-2.1226,-2.1884,-2.255,-2.3052,-2.3603,-2.3999,-2.4645,-2.4925,-2.5111,-0.2915,-0.3138,-0.3362,-0.3362,-0.3587,-0.3813,-0.3813,-0.4035,-0.4258,-0.4372,-0.4707,-0.4931,-0.5156,-0.5268,-0.5493,-0.5603,-0.5826,-0.6161,-0.6274,-0.6161,-0.6161,-0.6274,-0.6161,-0.6161,-0.6495,-0.627,-0.6217,-0.6115,-0.6058,-0.5951,-0.5794,-0.6047,-0.6095,-0.6042,-0.6237,-0.6437,-0.6437,-0.6437,-0.6437,-0.6437,-0.6437,-0.651,-0.6619,-0.6619,-0.669,-0.6898,-0.6898,-0.6976,-0.697,-0.708,-0.7163,-0.7154,-0.7154,-0.7154,-0.7154,-0.7154,-0.7154,-0.7154,-0.7154,-0.7239,-0.7241,-0.7251,-0.7721,-0.8193,-0.8548,-0.9073,-0.9576,-0.97,-0.9822,-0.9822,-0.9822,-0.9822,-0.9943,-1.0193,-1.055,-1.091,-1.1273,-1.1647,-1.1776,-1.1776,-1.1776,-1.1809,-1.189,-1.267,-1.3233,-1.3427,-1.4166,-1.4605,-1.4605,-1.4605,-1.4861,-1.562,-1.562,-1.5846,-1.6124,-1.6486,-1.6546,-1.6537,-1.6661,-1.7367,-1.8421,-1.8421,-1.8849,-1.9573,-2.0268,-2.0669,-2.1075,-2.1683,-2.2223,-2.2758,-2.3407,-2.3825,-2.4231,-2.4794,-2.5234,-2.5357,-0.3138,-0.3474,-0.3699,-0.3699,-0.3924,-0.4036,-0.4036,-0.437,-0.4592,-0.4817,-0.4931,-0.5043,-0.5382,-0.5493,-0.5603,-0.5933,-0.6161,-0.6386,-0.6497,-0.6386,-0.6386,-0.6497,-0.6386,-0.6495,-0.6824,-0.6824,-0.6669,-0.625,-0.6231,-0.6131,-0.6056,-0.6228,-0.6162,-0.607,-0.6348,-0.6437,-0.6437,-0.6437,-0.6437,-0.6437,-0.6458,-0.654,-0.6654,-0.6673,-0.6796,-0.7064,-0.7064,-0.7152,-0.7154,-0.7154,-0.7154,-0.7154,-0.7154,-0.7154,-0.7154,-0.7154,-0.7154,-0.716,-0.7187,-0.7228,-0.7269,-0.7304,-0.7693,-0.8204,-0.8578,-0.9083,-0.9335,-0.97,-0.9822,-0.9822,-0.9822,-0.9822,-0.994,-1.0183,-1.0558,-1.08,-1.1152,-1.1522,-1.1772,-1.1776,-1.1776,-1.1853,-1.2056,-1.2707,-1.3396,-1.3629,-1.4312,-1.48,-1.4931,-1.4931,-1.5192,-1.5974,-1.5974,-1.6167,-1.6377,-1.6695,-1.6813,-1.66,-1.692,-1.7602,-1.8421,-1.8466,-1.8978,-1.98,-2.0559,-2.0991,-2.1392,-2.2009,-2.244,-2.2826,-2.3444,-2.3864,-2.4232,-2.498,-2.5357,-2.5725,-0.3587,-0.3813,-0.3924,-0.3924,-0.4258,-0.448,-0.448,-0.4706,-0.4817,-0.4929,-0.5156,-0.5382,-0.5382,-0.5603,-0.5935,-0.6492,-0.6604,-0.6715,-0.7046,-0.6824,-0.6826,-0.7046,-0.6824,-0.6824,-0.7154,-0.7154,-0.7146,-0.7019,-0.6923,-0.6859,-0.6824,-0.6615,-0.6508,-0.6487,-0.6483,-0.6437,-0.6437,-0.6437,-0.6437,-0.6445,-0.6551,-0.6668,-0.679,-0.6896,-0.7013,-0.7122,-0.7122,-0.7135,-0.7154,-0.7154,-0.7154,-0.7154,-0.7154,-0.7154,-0.7154,-0.7154,-0.7154,-0.7184,-0.732,-0.7268,-0.7335,-0.7633,-0.7701,-0.799,-0.8702,-0.9095,-0.9335,-0.97,-0.9822,-0.9822,-0.9822,-0.9822,-0.9822,-0.9822,-1.0186,-1.0425,-1.0789,-1.1152,-1.1522,-1.1776,-1.1776,-1.1906,-1.2235,-1.2658,-1.319,-1.3809,-1.4259,-1.4539,-1.4931,-1.4931,-1.5192,-1.5974,-1.5974,-1.624,-1.6619,-1.7038,-1.7154,-1.6857,-1.7233,-1.7719,-1.8428,-1.8676,-1.9166,-1.9813,-2.078,-2.1306,-2.1716,-2.232,-2.2877,-2.3544,-2.3915,-2.4193,-2.461,-2.5234,-2.5725,-2.6075,-0.3813,-0.4035,-0.4258,-0.4258,-0.4482,-0.4706,-0.4706,-0.4931,-0.5156,-0.5156,-0.5268,-0.5493,-0.5603,-0.6044,-0.6379,-0.6712,-0.6824,-0.7043,-0.7154,-0.7046,-0.7043,-0.7154,-0.7046,-0.7043,-0.7154,-0.7154,-0.7154,-0.7154,-0.7103,-0.7048,-0.6983,-0.6874,-0.6749,-0.6616,-0.6562,-0.6502,-0.6437,-0.6437,-0.6475,-0.6543,-0.6597,-0.6733,-0.691,-0.6964,-0.7056,-0.7154,-0.7154,-0.7154,-0.7154,-0.7154,-0.7154,-0.7154,-0.7154,-0.7154,-0.7154,-0.7154,-0.7201,-0.7271,-0.7342,-0.7462,-0.7587,-0.7679,-0.775,-0.8055,-0.8717,-0.8976,-0.9217,-0.97,-0.9822,-0.9822,-0.9822,-0.9822,-0.9822,-0.9822,-1.0061,-1.0425,-1.0789,-1.1031,-1.1398,-1.1776,-1.1776,-1.1918,-1.2272,-1.2548,-1.3076,-1.3849,-1.4272,-1.4539,-1.4931,-1.4931,-1.5192,-1.5974,-1.5974,-1.6255,-1.6667,-1.7055,-1.7171,-1.6903,-1.7369,-1.783,-1.8428,-1.8714,-1.9289,-2.006,-2.1078,-2.1628,-2.1908,-2.2646,-2.3098,-2.3355,-2.386,-2.4355,-2.498,-2.5357,-2.5839,-2.6197]},{"header":{"parameterUnit":"m.s-1","parameterCategory":1,"la1":30.6,"la2":28.766,"lo1":-90.7593,"lo2":-88.6598,"dy":0.0162,"dx":0.0183,"nx":116,"ny":114,"refTime":"2023-06-16T12:00:00:Z","depth":0,"parameterNumber":3,"parameterNumberName":"V-component_of_WINDS"},"data":[0.0,0.0,0.0,0.0,0.0,0.0,0.0,0.0,0.0,0.0,0.0,0.0,0.0,0.0,0.0,0.0,0.0,0.0,0.0,0.0,0.0,0.0,0.0,0.0,0.0,0.0,0.0,0.0,0.0,0.0,0.0,0.0,0.0,0.0,0.0,0.0,0.0,0.0,0.0,0.0,0.0,0.0,0.0,0.0,0.0,0.0,0.0,0.0,0.0,0.0,0.0,0.0,0.0,0.0,0.0,0.0,0.0,0.0,0.0,0.0,0.0,0.0,0.0,0.0,0.0,0.0,0.0,0.0,0.0,0.0,0.0,0.0,0.0,0.0,0.0,0.0,0.0,0.0,0.0,0.0,0.0,0.0,0.0,0.0,0.0,0.0,0.0,0.0,0.0,0.0,0.0,0.0,0.0,0.0,0.0,0.0,0.0,0.0,0.0,0.0,0.0,0.0,0.0,0.0,0.0,0.0,0.0,0.0,0.0,0.0,0.0,0.0,0.0,0.0,0.0,0.0,0.0,0.0,0.0,0.0,0.0,0.0,0.0,0.0,0.0,0.0,0.0,0.0,0.0,0.0,0.0,0.0,0.0,0.0,0.0,0.0,0.0,0.0,0.0,0.0,0.0,0.0,0.0,0.0,0.0,0.0,0.0,0.0,0.0,0.0,0.0,0.0,0.0,0.0,0.0,0.0,0.0,0.0,0.0,0.0,0.0,0.0,0.0,0.0,0.0,0.0,0.0,0.0,0.0,0.0,0.0,0.0,0.0,0.0,0.0,0.0,0.0,0.0,0.0,0.0,0.0,0.0,0.0,0.0,0.0,0.0,0.0,0.0,0.0,0.0,0.0,0.0,0.0,0.0,0.0,0.0,0.0,0.0,0.0,0.0,0.0,0.0,0.0,0.0,0.0,0.0,0.0,0.0,0.0,0.0,0.0,0.0,0.0,0.0,0.0,0.0,0.0,0.0,0.0,0.0,0.0,0.0,0.0,0.0,0.0,0.0,0.0,0.0,0.0,0.0,0.0,0.0,0.0,0.0,0.0,0.0,0.0,0.0,0.0,0.0,0.0,0.0,0.0,0.0,0.0,0.0,0.0,0.0,0.0,0.0,0.0,0.0,0.0,0.0,0.0,0.0,0.0,0.0,0.0,0.0,0.0,0.0,0.0,0.0,0.0,0.0,0.0,0.0,0.0,0.0,0.0,0.0,0.0,0.0,0.0,0.0,0.0,0.0,0.0,0.0,0.0,0.0,0.0,0.0,0.0,0.0,0.0,0.0,0.0,0.0,0.0,0.0,0.0,0.0,0.0,0.0,0.0,0.0,0.0,0.0,0.0,0.0,0.0,0.0,0.0,0.0,0.0,0.0,0.0,0.0,0.0,0.0,0.0,0.0,0.0,0.0,0.0,0.0,0.0,0.0,0.0,0.0,0.0,0.0,0.0,0.0,0.0,0.0,0.0,0.0,0.0,0.0,0.0,0.0,0.0,0.0,0.0,0.0,0.0,0.0,0.0,0.0,0.0,0.0,0.0,0.0,0.0,0.0,0.0,0.0,0.0,0.0,0.0,0.0,0.0,0.0,0.0,0.0,0.0,0.0,0.0,0.0,0.0,0.0,0.0,0.0,0.0,0.0,0.0,0.0,0.0,0.0,0.0,0.0,0.0,0.0,0.0,0.0,0.0,0.0,0.0,0.0,0.0,0.0,0.0,0.0,0.0,0.0,0.0,0.0,0.0,0.0,0.0,0.0,0.0,0.0,0.0,0.0,0.0,0.0,0.0,0.0,0.0,0.0,0.0,0.0,0.0,0.0,0.0,0.0,0.0,0.0,0.0,0.0,0.0,0.0,0.0,0.0,0.0,0.0,0.0,0.0,0.0,0.0,0.0,0.0,0.0,0.0,0.0,0.0,0.0,0.0,0.0,0.0,0.0,0.0,0.0,0.0,0.0,0.0,0.0,0.0,0.0,0.0,0.0,0.0,0.0,0.0,0.0,0.0,0.0,0.0,0.0,0.0,0.0,0.0,0.0,0.0,0.0,0.0,0.0,0.0,0.0,0.0,0.0,0.0,0.0,0.0,0.0,0.0,0.0,0.0,0.0,0.0,0.0,0.0,0.0,0.0,0.0,0.0,0.0,0.0,0.0,0.0,0.0,0.0,0.0,0.0,0.0,0.0,0.0,0.0,0.0,0.0,0.0,0.0,0.0,0.0,0.0,0.0,0.0,0.0,0.0,0.0,0.0,0.0,0.0,0.0,0.0,0.0,0.0,0.0,0.0,0.0,0.0,0.0,0.0,0.0,0.0,0.0,0.0,0.0,0.0,0.0,0.0,0.0,0.0,0.0,0.0,0.0,0.0,0.0,0.0,0.0,0.0,0.0,0.0,0.0,0.0,0.0,0.0,0.0,0.0,0.0,0.0,0.0,0.0,0.0,0.0,0.0,0.0,0.0,0.0,0.0,0.0,0.0,0.0,0.0,0.0,0.0,0.0,0.0,0.0,0.0,0.0,0.0,0.0,0.0,0.0,0.0,0.0,0.0,0.0,0.0,0.0,0.0,0.0,0.0,0.0,0.0,0.0,0.0,0.0,0.0,0.0,0.0,0.0,0.0,0.0,0.0,0.0,0.0,0.0,0.0,0.0,0.0,0.0,0.0,0.0,0.0,0.0,0.0,0.0,0.0,0.0,0.0,0.0,0.0,0.0,0.0,0.0,0.0,0.0,0.0,0.0,0.0,0.0,0.0,0.0,0.0,0.0,0.0,0.0,0.0,0.0,0.0,0.0,0.0,0.0,0.0,0.0,0.0,0.0,0.0,0.0,0.0,0.0,0.0,0.0,0.0,0.0,0.0,0.0,0.0,0.0,0.0,0.0,0.0,0.0,0.0,0.0,0.0,0.0,0.0,0.0,0.0,0.0,0.0,0.0,0.0,0.0,0.0,0.0,0.0,0.0,0.0,0.0,0.0,0.0,0.0,0.0,0.0,0.0,0.0,0.0,0.0,0.0,0.0,0.0,0.0,0.0,0.0,0.0,0.0,0.0,0.0,0.0,0.0,0.0,0.0,0.0,0.0,0.0,0.0,0.0,0.0,0.0,0.0,0.0,0.0,0.0,0.0,0.0,0.0,0.0,0.0,0.0,0.0,0.0,0.0,0.0,0.0,0.0,0.0,0.0,0.0,0.0,0.0,0.0,0.0,0.0,0.0,0.0,0.0,0.0,0.0,0.0,0.0,0.0,0.0,0.0,0.0,0.0,0.0,0.0,0.0,0.0,0.0,0.0,0.0,0.0,0.0,0.0,0.0,0.0,0.0,0.0,0.0,0.0,0.0,0.0,0.0,0.0,0.0,0.0,0.0,0.0,0.0,0.0,0.0,0.0,0.0,0.0,0.0,0.0,0.0,0.0,0.0,0.0,0.0,0.0,0.0,0.0,0.0,0.0,0.0,0.0,0.0,0.0,0.0,0.0,0.0,0.0,0.0,0.0,0.0,0.0,0.0,0.0,0.0,0.0,0.0,0.0,0.0,0.0,0.0,0.0,0.0,0.0,0.0,0.0,0.0,0.0,0.0,0.0,0.0,0.0,0.0,0.0,0.0,0.0,0.0,0.0,0.0,0.0,0.0,0.0,0.0,0.0,0.0,0.0,0.0,0.0,0.0,0.0,0.0,0.0,0.0,0.0,0.0,0.0,0.0,0.0,0.0,0.0,0.0,0.0,0.0,0.0,0.0,0.0,0.0,0.0,0.0,0.0,0.0,0.0,0.0,0.0,0.0,0.0,0.0,0.0,0.0,0.0,0.0,0.0,0.0,0.0,0.0,0.0,0.0,0.0,0.0,0.0,0.0,0.0,0.0,0.0,0.0,0.0,0.0,0.0,0.0,0.0,0.0,0.0,0.0,0.0,0.0,0.0,0.0,0.0,0.0,0.0,0.0,0.0,0.0,0.0,0.0,0.0,0.0,0.0,0.0,0.0,0.0,0.0,0.0,0.0,0.0,0.0,0.0,0.0,0.0,0.0,0.0,0.0,0.0,0.0,0.0,0.0,0.0,0.0,0.0,0.0,0.0,0.0,0.0,0.0,0.0,0.0,0.0,0.0,0.0,0.0,0.0,0.0,0.0,0.0,0.0,0.0,0.0,0.0,0.0,0.0,0.0,0.0,0.0,0.0,0.0,0.0,0.0,0.0,0.0,0.0,0.0,0.0,0.0,0.0,0.0,0.0,0.0,0.0,0.0,0.0,0.0,0.0,0.0,0.0,0.0,0.0,0.0,0.0,0.0,0.0,0.0,0.0,0.0,0.0,0.0,0.0,0.0,0.0,0.0,0.0,0.0,0.0,0.0,0.0,0.0,0.0,0.0,0.0,0.0,0.0,0.0,0.0,0.0,0.0,0.0,0.0,0.0,0.0,0.0,0.0,0.0,0.0,0.0,0.0,0.0,0.0,0.0,0.0,0.0,0.0,0.0,0.0,0.0,0.0,0.0,0.0,0.0,0.0,0.0,0.0,0.0,0.0,0.0,0.0,0.0,0.0,0.0,0.0,0.0,0.0,0.0,0.0,0.0,0.0,0.0,0.0,0.0,0.0,0.0,0.0,0.0,0.0,0.0,0.0,0.0,0.0,0.0,0.0,0.0,0.0,0.0,0.0,0.0,0.0,0.0,0.0,0.0,0.0,0.0,0.0,0.0,0.0,0.0,0.0,0.0,0.0,0.0,0.0,0.0,0.0,0.0,0.0,0.0,0.0,0.0,0.0,0.0,0.0,0.0,0.0,0.0,0.0,0.0,0.0,0.0,0.0,0.0,0.0,0.0,0.0,0.0,0.0,0.0,0.0,0.0,0.0,0.0,0.0,0.0,0.0,0.0,0.0,0.0,0.0,0.0,0.0,0.0,0.0,0.0,0.0,0.0,0.0,0.0,0.0,0.0,0.0,0.0,0.0,0.0,0.0,0.0,0.0,0.0,0.0,0.0,0.0,0.0,0.0,0.0,0.0,0.0,0.0,0.0,0.0,0.0,0.0,0.0,0.0,0.0,0.0,0.0,0.0,0.0,0.0,0.0,0.0,0.0,0.0,0.0,0.0,0.0,0.0,0.0,0.0,0.0,0.0,0.0,0.0,0.0,0.0,0.0,0.0,0.0,0.0,0.0,0.0,0.0,0.0,0.0,0.0,0.0,0.0,0.0,0.0,0.0,0.0,0.0,0.0,0.0,0.0,0.0,0.0,0.0,0.0,0.0,0.0,0.0,0.0,0.0,0.0,0.0,0.0,0.0,0.0,0.0,0.0,0.0,0.0,0.0,0.0,0.0,0.0,0.0,0.0,0.0,0.0,0.0,0.0,0.0,0.0,0.0,0.0,0.0,0.0,0.0,0.0,0.0,0.0,0.0,0.0,0.0,0.0,0.0,0.0,0.0,0.0,0.0,0.0,0.0,0.0,0.0,0.0,0.0,0.0,0.0,0.0,0.0,0.0,0.0,0.0,0.0,0.0,0.0,0.0,0.0,0.0,0.0,0.0,0.0,0.0,0.0,0.0,0.0,0.0,0.0,0.0,0.0,0.0,0.0,0.0,0.0,0.0,0.0,0.0,0.0,0.0,0.0,0.0,0.0,0.0,0.0,0.0,0.0,0.0,0.0,0.0,0.0,0.0,0.0,0.0,0.0,0.0,0.0,0.0,0.0,0.0,0.0,0.0,0.0,0.0,0.0,0.0,0.0,0.0,0.0,0.0,0.0,0.0,0.0,0.0,0.0,0.0,0.0,0.0,0.0,0.0,0.0,0.0,0.0,0.0,0.0,0.0,0.0,0.0,0.0,0.0,0.0,0.0,0.0,0.0,0.0,0.0,0.0,0.0,0.0,0.0,0.0,0.0,0.0,0.0,0.0,0.0,0.0,0.0,0.0,0.0,0.0,0.0,0.0,0.0,0.0,0.0,0.0,0.0,0.0,0.0,0.0,0.0,0.0,0.0,0.0,0.0,0.0,0.0,0.0,0.0,0.0,0.0,0.0,0.0,0.0,0.0,0.0,0.0,0.0,0.0,0.0,0.0,0.0,0.0,0.0,0.0,0.0,0.0,0.0,0.0,0.0,0.0,0.0,0.0,0.0,0.0,0.0,0.0,0.0,-2.5274,-2.4294,0.0,0.0,0.0,0.0,0.0,0.0,0.0,0.0,0.0,0.0,0.0,0.0,0.0,0.0,0.0,0.0,0.0,0.0,0.0,0.0,0.0,0.0,0.0,0.0,0.0,0.0,0.0,0.0,0.0,0.0,0.0,0.0,0.0,0.0,0.0,0.0,0.0,0.0,0.0,0.0,0.0,0.0,0.0,0.0,0.0,0.0,0.0,0.0,0.0,0.0,0.0,0.0,0.0,0.0,0.0,0.0,0.0,0.0,0.0,0.0,0.0,0.0,0.0,0.0,0.0,0.0,0.0,0.0,0.0,0.0,0.0,0.0,0.0,0.0,0.0,0.0,0.0,0.0,0.0,0.0,0.0,0.0,0.0,0.0,0.0,0.0,0.0,0.0,0.0,0.0,0.0,0.0,0.0,0.0,0.0,0.0,0.0,0.0,0.0,0.0,0.0,0.0,0.0,0.0,0.0,0.0,0.0,0.0,0.0,0.0,0.0,0.0,0.0,0.0,-2.8353,-2.7088,0.0,0.0,0.0,0.0,0.0,0.0,0.0,0.0,0.0,0.0,0.0,0.0,0.0,0.0,0.0,0.0,0.0,0.0,0.0,0.0,0.0,0.0,0.0,0.0,0.0,0.0,0.0,0.0,0.0,0.0,0.0,0.0,0.0,0.0,0.0,0.0,0.0,0.0,0.0,0.0,0.0,0.0,0.0,0.0,0.0,0.0,0.0,0.0,0.0,0.0,0.0,0.0,0.0,0.0,0.0,0.0,0.0,0.0,0.0,0.0,0.0,0.0,0.0,0.0,0.0,0.0,0.0,0.0,0.0,0.0,0.0,0.0,0.0,0.0,0.0,0.0,0.0,0.0,0.0,0.0,0.0,0.0,0.0,0.0,0.0,0.0,0.0,0.0,0.0,0.0,0.0,0.0,0.0,0.0,0.0,0.0,0.0,0.0,0.0,0.0,0.0,0.0,0.0,0.0,0.0,0.0,0.0,0.0,-3.3045,-3.3985,-3.4232,-3.4454,-3.4642,-3.4658,-3.2168,-3.0876,-3.0528,-3.0656,0.0,0.0,0.0,0.0,0.0,0.0,0.0,0.0,0.0,0.0,0.0,0.0,0.0,0.0,0.0,0.0,0.0,0.0,0.0,0.0,0.0,0.0,0.0,0.0,0.0,0.0,0.0,0.0,0.0,0.0,0.0,0.0,0.0,0.0,0.0,0.0,0.0,0.0,-1.9812,-2.0483,-2.0659,-2.0385,0.0,0.0,0.0,0.0,0.0,0.0,0.0,0.0,0.0,0.0,0.0,0.0,0.0,0.0,0.0,0.0,0.0,0.0,0.0,0.0,0.0,0.0,0.0,0.0,0.0,0.0,0.0,0.0,0.0,0.0,0.0,0.0,0.0,0.0,0.0,0.0,0.0,0.0,0.0,0.0,0.0,0.0,0.0,0.0,-1.9108,-1.9558,0.0,0.0,0.0,0.0,0.0,0.0,0.0,0.0,0.0,0.0,0.0,0.0,0.0,-2.9915,-3.1671,-3.2616,-3.3599,-3.4597,-3.5525,-3.6518,-3.7471,-3.7504,-3.7699,-3.7961,-3.764,0.0,-3.3788,-3.3947,0.0,0.0,0.0,0.0,0.0,0.0,0.0,0.0,0.0,0.0,0.0,0.0,0.0,0.0,0.0,0.0,0.0,0.0,0.0,0.0,0.0,0.0,0.0,0.0,0.0,0.0,0.0,0.0,0.0,0.0,0.0,0.0,0.0,0.0,0.0,0.0,-1.9929,-2.1414,-2.2022,-2.2799,-2.3362,-2.3629,-2.1916,-2.047,-1.922,-1.799,0.0,0.0,0.0,0.0,0.0,0.0,0.0,0.0,0.0,0.0,0.0,0.0,0.0,0.0,0.0,0.0,0.0,0.0,0.0,0.0,0.0,0.0,0.0,0.0,0.0,0.0,0.0,0.0,0.0,0.0,0.0,0.0,0.0,0.0,0.0,0.0,0.0,0.0,0.0,-1.9876,-2.0646,-2.207,-2.2604,-2.3146,0.0,0.0,0.0,0.0,0.0,0.0,0.0,0.0,0.0,-3.1185,-3.1871,-3.28,-3.41,-3.5419,-3.6383,-3.6962,-3.7893,-3.8632,-3.9102,-3.9337,-3.9547,-3.9665,-3.9932,-3.9314,-3.8071,-3.7007,-3.5927,-3.491,0.0,0.0,0.0,0.0,-3.3068,-3.3171,0.0,0.0,0.0,0.0,0.0,0.0,0.0,0.0,0.0,0.0,0.0,0.0,0.0,0.0,0.0,-1.6426,0.0,0.0,0.0,0.0,0.0,0.0,0.0,0.0,0.0,0.0,0.0,0.0,-2.2188,-2.3383,-2.4192,-2.4792,-2.5379,-2.5848,-2.4865,-2.323,-2.1183,-2.0114,-1.9036,0.0,0.0,0.0,0.0,0.0,0.0,0.0,0.0,0.0,0.0,0.0,0.0,0.0,0.0,0.0,0.0,0.0,0.0,0.0,0.0,0.0,0.0,0.0,0.0,0.0,0.0,0.0,0.0,0.0,0.0,0.0,0.0,0.0,0.0,0.0,0.0,0.0,0.0,-2.1295,-2.2393,-2.4414,-2.5054,-2.5641,0.0,0.0,0.0,0.0,0.0,0.0,-2.9921,-3.1142,-3.2405,-3.3721,-3.4588,-3.5446,-3.6348,-3.7685,-3.8515,-3.8848,-3.9656,-4.0352,-4.0824,-4.1135,-4.1431,-4.1741,-4.2047,-4.2239,-4.2139,-3.9917,-3.8562,-3.7847,-3.7454,-3.6871,-3.6235,-3.6368,-3.6472,-3.6553,0.0,0.0,0.0,0.0,0.0,0.0,0.0,0.0,0.0,0.0,0.0,0.0,0.0,0.0,-1.6513,-1.779,-1.7958,-1.7925,0.0,0.0,0.0,0.0,0.0,0.0,0.0,0.0,0.0,-2.3688,-2.3849,-2.4648,-2.6077,-2.6123,-2.6228,-2.6378,-2.6317,-2.5253,-2.3428,-2.1519,-2.0317,-1.9621,0.0,0.0,0.0,0.0,0.0,0.0,0.0,0.0,0.0,0.0,0.0,0.0,0.0,0.0,0.0,0.0,0.0,0.0,0.0,0.0,0.0,0.0,0.0,0.0,0.0,0.0,0.0,0.0,0.0,0.0,0.0,0.0,0.0,0.0,0.0,0.0,0.0,0.0,0.0,-2.6054,-2.7406,0.0,0.0,0.0,0.0,-3.0434,-3.1934,-3.2899,-3.306,-3.4772,-3.6061,-3.6864,-3.7153,-3.7767,-3.8616,-3.8834,-3.9433,-4.0288,-4.0486,-4.1552,-4.3328,-4.3346,-4.3989,-4.5055,-4.5095,-4.5308,-4.5443,-4.2606,-4.095,-4.0253,-4.0469,-4.0145,-3.9577,-3.9643,-3.9792,-3.9947,0.0,0.0,0.0,0.0,0.0,0.0,0.0,0.0,0.0,0.0,0.0,0.0,0.0,-1.7317,-1.8298,-1.8661,-1.9104,-1.9113,-1.8604,0.0,0.0,0.0,0.0,0.0,0.0,0.0,-2.3107,-2.4109,-2.5597,-2.6579,-2.7118,-2.7612,-2.7938,-2.7968,-2.7576,-2.7063,-2.6399,-2.4087,-2.2683,-2.1942,-2.0901,-1.9767,0.0,0.0,0.0,0.0,0.0,0.0,0.0,0.0,0.0,0.0,0.0,0.0,0.0,0.0,0.0,0.0,0.0,0.0,0.0,0.0,0.0,0.0,0.0,0.0,0.0,0.0,0.0,0.0,0.0,0.0,0.0,0.0,0.0,0.0,0.0,0.0,0.0,-2.8206,-2.9303,0.0,-3.1733,-3.2105,-3.2586,-3.3489,-3.4576,-3.5283,-3.5436,-3.6684,-3.7547,-3.7803,-3.8511,-3.9088,-3.9517,-4.012,-4.0882,-4.1831,-4.2009,-4.275,-4.4032,-4.4128,-4.4545,-4.5106,-4.5269,-4.5449,-4.5644,-4.4743,-4.3726,-4.2642,-4.1716,-4.1312,-4.1218,-4.1383,-4.1522,-4.1635,0.0,0.0,0.0,0.0,0.0,0.0,0.0,0.0,0.0,0.0,0.0,-1.598,-1.6892,-1.8377,-1.9472,-1.9836,-2.0047,-2.0024,-1.9741,0.0,0.0,0.0,0.0,0.0,0.0,-2.3339,-2.4667,-2.5361,-2.6869,-2.7813,-2.8139,-2.8654,-2.8951,-2.909,-2.8632,-2.8345,-2.8148,-2.6482,-2.502,-2.3763,-2.2863,-2.1807,-2.0655,0.0,0.0,0.0,0.0,0.0,0.0,0.0,0.0,0.0,0.0,0.0,0.0,0.0,0.0,0.0,0.0,0.0,0.0,0.0,0.0,0.0,0.0,0.0,0.0,0.0,0.0,0.0,0.0,0.0,0.0,0.0,0.0,0.0,0.0,-2.6887,-2.851,-3.035,-3.1388,-3.2529,-3.3973,-3.4414,-3.4954,-3.5835,-3.6666,-3.733,-3.7776,-3.8758,-3.946,-3.9717,-4.0453,-4.0918,-4.1029,-4.1638,-4.23,-4.2917,-4.3131,-4.3737,-4.4713,-4.4813,-4.5221,-4.5773,-4.5941,-4.6128,-4.6387,-4.6247,-4.5789,-4.5022,-4.3813,-4.3434,-4.3642,-4.3823,-4.3788,-4.3649,0.0,0.0,0.0,0.0,0.0,0.0,0.0,0.0,0.0,0.0,-1.5649,-1.7042,-1.8358,-1.906,-1.9958,-2.1244,-2.0709,-2.0547,-2.1033,-2.0482,0.0,0.0,0.0,0.0,-2.4369,-2.4529,-2.5606,-2.7718,-2.7734,-2.8231,-2.9121,-2.9121,-2.9229,-2.9518,-2.9518,-2.915,-2.8554,-2.8554,-2.7185,-2.5012,-2.4845,-2.3584,-2.1768,0.0,0.0,0.0,0.0,0.0,0.0,0.0,0.0,0.0,0.0,0.0,0.0,0.0,0.0,0.0,0.0,0.0,0.0,0.0,0.0,0.0,0.0,0.0,0.0,0.0,0.0,0.0,0.0,0.0,0.0,0.0,0.0,0.0,-2.7852,-2.8665,-3.0164,-3.2478,-3.3645,-3.4624,-3.5594,-3.6452,-3.7101,-3.7585,-3.8254,-3.9143,-4.0104,-4.112,-4.1954,-4.2689,-4.3047,-4.3214,-4.3214,-4.3395,-4.3523,-4.3558,-4.3798,-4.4501,-4.5528,-4.5528,-4.6176,-4.7302,-4.7302,-4.756,-4.7937,-4.7171,-4.7056,-4.7385,-4.6743,-4.6637,-4.6817,-4.6963,-4.6619,-4.6076,0.0,0.0,0.0,0.0,0.0,0.0,0.0,0.0,0.0,0.0,-1.6056,-1.7546,-1.8421,-1.9513,-2.0335,-2.0743,-2.0569,-2.0503,-2.0655,0.0,0.0,0.0,0.0,0.0,-2.4589,-2.6182,-2.7259,-2.7839,-2.8539,-2.8978,-2.9259,-2.9321,-2.9473,-2.9653,-2.9653,-2.9585,-2.9496,-2.9408,-2.8661,-2.7544,-2.6908,-2.6022,-2.5019,0.0,0.0,0.0,0.0,0.0,0.0,0.0,0.0,0.0,0.0,0.0,0.0,0.0,0.0,0.0,0.0,0.0,0.0,0.0,0.0,0.0,0.0,0.0,0.0,0.0,0.0,0.0,0.0,0.0,0.0,0.0,-2.8507,-2.9265,-2.9706,-3.1277,-3.286,-3.4201,-3.5234,-3.6225,-3.7101,-3.7521,-3.8328,-3.9795,-4.0079,-4.0656,-4.1644,-4.2125,-4.2501,-4.2706,-4.3047,-4.3214,-4.3214,-4.3279,-4.3704,-4.4359,-4.4523,-4.5216,-4.6289,-4.6289,-4.6656,-4.7302,-4.7302,-4.756,-4.7974,-4.7755,-4.7899,-4.8125,-4.681,-4.6457,-4.6725,-4.6817,-4.6949,-4.7036,0.0,0.0,0.0,0.0,0.0,0.0,0.0,0.0,0.0,0.0,-1.6559,-1.815,-1.8558,-1.9781,-2.0686,-2.0983,-2.0699,-2.0618,-2.093,0.0,0.0,0.0,0.0,-2.529,-2.5628,-2.7174,-2.8131,-2.8415,-2.9007,-2.935,-2.9412,-2.9518,-2.9653,-2.977,-2.977,-2.983,-2.9902,-2.983,-2.9528,-2.9124,-2.8952,-2.8046,-2.6775,-2.6222,-2.5783,-2.5234,-2.3948,-2.3478,-2.3331,-2.2456,0.0,0.0,0.0,0.0,0.0,0.0,0.0,0.0,0.0,0.0,0.0,0.0,0.0,0.0,0.0,0.0,0.0,0.0,0.0,0.0,0.0,0.0,0.0,0.0,-3.0101,-3.1575,-3.3579,-3.4124,-3.4683,-3.5706,-3.6576,-3.7376,-3.8241,-3.871,-3.9508,-4.0732,-4.1084,-4.1678,-4.2726,-4.3044,-4.3338,-4.3645,-4.3941,-4.4113,-4.4113,-4.4197,-4.4574,-4.5159,-4.5326,-4.58,-4.659,-4.659,-4.6852,-4.7302,-4.7302,-4.756,-4.7992,-4.7992,-4.8249,-4.8495,0.0,0.0,0.0,0.0,-4.7636,-4.7844,0.0,0.0,0.0,0.0,0.0,0.0,0.0,0.0,0.0,0.0,0.0,-1.8614,-1.8693,-1.9846,-2.085,-2.1541,-2.0955,-2.0871,0.0,0.0,0.0,-2.3842,-2.519,-2.6267,-2.7032,-2.7813,-2.8505,-2.9075,-2.9259,-2.9366,-2.9518,-2.9653,-2.9786,-2.9918,-2.9918,-2.9918,-2.9918,-2.9999,-3.0032,-3.0053,-3.0765,-2.971,-2.7795,-2.7811,-2.7769,-2.7672,-2.6697,-2.6386,-2.6233,-2.5277,0.0,0.0,0.0,0.0,0.0,0.0,0.0,0.0,0.0,0.0,0.0,0.0,0.0,0.0,0.0,0.0,0.0,0.0,0.0,0.0,0.0,0.0,0.0,0.0,-3.1905,-3.4941,-3.7969,-3.6824,-3.6023,-3.7058,-3.7628,-3.8274,-3.9035,-3.9929,-4.0612,-4.1033,-4.1653,-4.245,-4.3449,-4.3844,0.0,0.0,0.0,-4.5423,-4.5423,-4.5528,-4.5684,-4.577,-4.5922,-4.6204,-4.659,-4.659,-4.6852,-4.7302,-4.7302,-4.756,-4.7992,-4.7992,-4.8249,-4.8587,-4.866,-4.889,-4.9169,-4.8708,-4.857,-4.8559,0.0,0.0,0.0,0.0,0.0,0.0,0.0,0.0,0.0,-1.4622,-1.6574,-1.8149,-1.8645,-1.9452,-2.0241,-2.0903,-2.084,-2.1264,0.0,0.0,-2.4193,-2.5469,-2.6377,-2.7166,-2.7829,-2.8568,-2.8949,-2.9075,-2.9321,-2.9473,-2.9518,-2.9742,-2.9874,-2.9918,-2.9918,-2.9918,-2.9951,-3.0474,-3.0733,-3.0781,-3.151,-3.1156,-3.0206,-3.0177,-3.0132,-2.9971,-2.8554,-2.796,-2.7747,-2.6936,-2.6493,-2.6146,-2.5456,0.0,0.0,0.0,0.0,0.0,0.0,0.0,0.0,0.0,0.0,0.0,0.0,0.0,0.0,0.0,0.0,0.0,0.0,0.0,0.0,-3.0666,-3.4523,-3.7658,-3.8292,-3.8074,-3.7932,-3.8316,-3.8625,-3.9051,-3.983,-4.0227,-4.1028,-4.2473,-4.2691,-4.3278,-4.4316,-4.461,-4.4824,-4.4978,-4.5264,-4.5423,-4.5423,-4.5528,-4.5684,-4.577,-4.5922,0.0,-4.659,-4.659,-4.6852,-4.7302,-4.7302,-4.756,-4.7992,-4.7992,-4.8249,-4.8623,-4.8959,-4.9146,-4.9225,-4.9386,-4.9447,-4.9467,0.0,0.0,0.0,0.0,0.0,0.0,0.0,0.0,0.0,0.0,-1.6212,-1.7511,-1.8181,-1.8865,-1.953,-2.0241,-2.0605,0.0,0.0,-2.3196,-2.4176,-2.593,-2.672,-2.7415,-2.8079,-2.8774,-2.9075,-2.9075,-2.9366,-2.9518,-2.9518,-2.9786,-3.0097,-3.0393,-3.0393,-3.0603,-3.0959,-3.1316,-3.1461,-3.1526,-3.2255,-3.2336,-3.1963,-3.156,-3.1385,-3.1288,-3.047,-3.0106,-2.9948,-2.9125,-2.8529,-2.7968,-2.7142,-2.6408,-2.5634,0.0,0.0,0.0,0.0,0.0,0.0,0.0,0.0,0.0,0.0,0.0,0.0,0.0,0.0,-2.9523,-2.989,0.0,-3.2364,-3.2473,-3.584,-3.8482,-3.8827,-3.8843,-3.8876,-3.9007,-3.898,-3.932,-4.0188,-4.0752,-4.1583,-4.2908,-4.3367,-4.3979,-4.4665,-4.4886,-4.5032,-4.5086,-4.5318,-4.5423,-4.5423,-4.5528,-4.5684,-4.577,-4.5922,-4.6204,-4.659,-4.659,-4.6852,-4.7302,-4.7302,-4.756,-4.8032,-4.821,-4.8402,-4.8623,-4.9046,-4.9197,-4.9244,-4.9574,-4.9692,-4.975,0.0,0.0,0.0,0.0,0.0,0.0,0.0,0.0,0.0,0.0,-1.5783,-1.6833,-1.7534,-1.8178,-1.8881,0.0,0.0,0.0,0.0,-2.3079,-2.4056,-2.6145,-2.6783,-2.7478,-2.8284,-2.8837,-2.9121,-2.9121,-2.951,-2.9726,-2.9756,-3.0125,-3.0587,-3.1092,-3.1092,-3.1461,-3.2012,-3.2158,-3.2222,-3.2287,-3.3,-3.3291,-3.3226,-3.2627,-3.2417,-3.2368,-3.1982,-3.1821,-3.1645,-3.0747,-2.9936,-2.921,-2.8564,-2.7826,-2.7032,-2.6365,-2.5665,0.0,0.0,0.0,0.0,0.0,0.0,0.0,0.0,0.0,-2.8562,-3.006,-3.1438,-3.2401,-3.2385,-3.3633,-3.4601,-3.4351,-3.6621,-3.8641,-3.9199,-3.9292,-3.9351,-3.9351,-3.9197,-3.9495,-4.0608,-4.1333,-4.2144,-4.3183,-4.3917,-4.448,-4.4776,-4.4923,-4.5086,-4.5194,-4.53,-4.5423,-4.5423,-4.5581,-4.5736,-4.5821,-4.5972,-4.627,-4.659,-4.659,-4.6852,-4.732,-4.7389,-4.7687,-4.8072,-4.8439,-4.8623,-4.8695,-4.9079,-4.923,-4.9276,-4.9604,-4.9692,-4.975,0.0,0.0,0.0,0.0,0.0,0.0,0.0,0.0,0.0,0.0,0.0,0.0,0.0,0.0,0.0,0.0,0.0,0.0,-2.3087,-2.3665,-2.49,-2.6999,-2.7078,-2.7699,-2.8933,-2.9044,-2.9167,-2.9305,-3.0096,-3.0493,-3.0599,-3.1415,-3.1817,-3.1882,-3.1882,-3.1931,-3.2044,-3.2692,-3.2967,-3.3032,-3.3712,-3.3987,-3.3987,-3.389,-3.3874,-3.3712,-3.2449,-3.1885,-3.1581,-3.0261,-2.9672,-2.9457,-2.9377,-2.8793,-2.8116,-2.7889,0.0,-2.66,-2.642,-2.6957,-2.7708,-2.8008,-2.8515,-2.9374,0.0,0.0,-3.1662,-3.3208,-3.4177,-3.4813,-3.495,-3.6274,-3.7036,-3.6152,-3.7546,-3.8854,-3.9235,-3.9292,-3.9418,-3.9642,-3.9537,-4.0034,-4.1598,-4.1799,-4.2529,-4.4018,-4.4356,-4.4575,-4.4776,-4.5032,-4.5177,-4.5177,-4.53,-4.5476,-4.5581,-4.5718,-4.5821,-4.5972,-4.6122,-4.6319,-4.659,-4.659,-4.6852,-4.7302,-4.7728,-4.8072,-4.8267,-4.8514,-4.8714,-4.8909,-4.9113,-4.9276,-4.9415,-4.9615,-4.975,-4.9835,0.0,0.0,0.0,0.0,0.0,0.0,0.0,0.0,0.0,0.0,0.0,0.0,0.0,0.0,0.0,0.0,0.0,0.0,-2.2463,-2.3195,-2.4691,-2.7195,-2.728,-2.7906,-2.9289,-2.9321,-2.9366,-2.9412,-3.0252,-3.0665,-3.0712,-3.1609,-3.2238,-3.2643,-3.2643,-3.2854,-3.3242,-3.355,-3.368,-3.3696,-3.3987,-3.4101,-3.4052,-3.3663,-3.3518,-3.3437,-3.2854,-3.2304,0.0,0.0,-3.0293,-3.0122,-2.9736,-2.931,-2.8997,-2.8936,-2.8399,0.0,-2.8231,-2.8923,-2.9763,-3.0702,-3.126,-3.1982,-3.3435,-3.3858,-3.4249,-3.5359,-3.6209,-3.6751,-3.6803,-3.7691,-3.8281,-3.8007,-3.8426,-3.89,-3.9249,-3.9573,-3.9795,-3.9933,-4.0813,-4.1555,-4.1854,-4.1959,-4.2656,-4.4288,-4.4592,-4.4759,-4.5032,-4.514,-4.5283,-4.5406,-4.5476,-4.5581,-4.5736,-4.5821,-4.5922,-4.6023,-4.6221,-4.6398,-4.659,-4.6731,-4.7116,-4.7554,-4.787,-4.8111,-4.8306,-4.8514,-4.8714,-4.8909,-4.9113,-4.9276,-4.9415,-4.9634,-4.9778,-4.9871,0.0,0.0,0.0,0.0,0.0,0.0,0.0,0.0,0.0,0.0,0.0,0.0,0.0,0.0,0.0,0.0,0.0,0.0,0.0,-2.274,-2.4344,-2.6743,-2.7198,-2.7966,-2.9182,-2.9422,-2.9518,-2.9563,-3.0328,-3.0808,-3.108,-3.19,-3.2692,-3.3372,-3.3372,-3.3647,-3.4101,-3.4101,-3.4101,-3.4101,-3.4101,-3.3987,-3.3761,-3.3275,-3.2886,-3.2545,-3.2498,-3.2028,0.0,0.0,-3.0283,-3.008,-2.9597,-2.9492,-2.9563,-2.9563,-2.9339,-2.9335,-3.0248,-3.105,-3.195,-3.3176,-3.3777,-3.4397,-3.5649,-3.6081,-3.6483,-3.7239,-3.7867,-3.8282,-3.8335,-3.8731,-3.9115,-3.9242,-3.9126,-3.9182,-3.9493,-3.9883,-4.0272,-4.0815,-4.1989,-4.2704,-4.2463,-4.2534,-4.3149,-4.4529,-4.4814,-4.5032,-4.523,-4.53,-4.5406,-4.5667,-4.5684,-4.5718,-4.5871,-4.5922,-4.6023,-4.6073,-4.6301,-4.6495,-4.659,-4.6934,-4.7338,-4.7723,-4.7911,-4.8151,-4.8364,-4.855,-4.875,-4.9012,-4.9146,-4.9308,-4.9506,-4.9663,-4.9807,-4.9933,0.0,0.0,0.0,0.0,0.0,0.0,0.0,0.0,0.0,0.0,0.0,0.0,0.0,0.0,0.0,0.0,0.0,0.0,0.0,-2.2669,-2.4003,-2.5378,-2.6711,-2.7726,-2.843,-2.915,-2.9563,-2.9697,-3.0373,-3.1112,-3.1996,-3.2708,-3.342,-3.4068,-3.4068,-3.4084,-3.4101,-3.4101,-3.4101,-3.4101,-3.4101,-3.3712,-3.3113,-3.3097,-3.2301,-3.1128,-3.0992,0.0,0.0,0.0,-2.8854,-2.8838,-2.8822,-2.9221,0.0,-2.9697,-3.018,-3.1048,-3.2562,-3.3616,-3.4497,-3.5298,-3.6053,-3.679,-3.7544,-3.785,-3.8154,-3.9056,-3.9329,-3.9504,-3.9592,-3.9661,-3.9644,-3.9492,-3.961,-3.9763,-4.0019,-4.0104,-4.0764,-4.2535,-4.2756,-4.3065,-4.3765,-4.385,-4.4158,-4.4927,-4.514,-4.523,-4.5389,-4.5511,-4.5667,-4.577,-4.577,-4.5871,-4.5972,-4.5972,-4.6073,-4.6189,-4.635,-4.6495,-4.6637,-4.708,-4.7475,-4.7793,-4.7933,-4.821,-4.8587,-4.8587,-4.8855,-4.9179,-4.9197,-4.9402,-4.9692,-4.9692,-4.9816,-5.0005,0.0,0.0,0.0,0.0,0.0,0.0,0.0,0.0,0.0,0.0,0.0,0.0,0.0,0.0,0.0,0.0,0.0,0.0,0.0,-2.1644,-2.3209,-2.5635,-2.6168,-2.6925,-2.8095,-2.8842,-2.9258,-2.93,-3.0505,-3.1177,-3.1407,-3.2169,-3.2853,-3.3437,-3.3437,-3.368,-3.4101,-3.4101,-3.3875,-3.3486,-3.3486,-3.316,-3.2506,-3.2066,-3.1328,-3.0457,0.0,0.0,0.0,-2.851,-2.8266,-2.8347,-2.882,-2.9146,-2.9495,-3.0456,-3.1938,-3.3387,-3.3909,-3.4971,-3.6135,-3.6995,-3.7461,-3.7892,-3.8742,-3.9049,-3.922,-3.9523,-3.9573,-3.9642,-3.9677,-3.9677,-3.9713,-3.9747,-3.9749,-3.98,-4.0087,-4.0121,-4.0815,-4.286,-4.3924,-4.444,-4.4199,-4.3973,-4.4299,-4.5178,-4.5283,-4.5441,-4.5667,-4.5718,-4.577,-4.5922,-4.6428,-4.6792,-4.6943,-4.6943,-4.7011,-4.7142,-4.6903,-4.687,-4.708,-4.7425,-4.7705,-4.7933,-4.8111,-4.8326,-4.8587,-4.8697,-4.8909,-4.9197,-4.9197,-4.9402,-4.9692,-4.9692,-4.9862,-5.0082,0.0,0.0,0.0,0.0,0.0,0.0,0.0,0.0,0.0,0.0,0.0,0.0,0.0,0.0,0.0,0.0,0.0,0.0,0.0,0.0,-2.247,-2.4344,-2.5431,-2.6381,-2.7279,-2.8263,-2.8755,-2.8715,-2.991,-3.0588,-3.0777,-3.1557,-3.2229,-3.2819,-3.2819,-3.3063,-3.347,-3.347,-3.3258,-3.2865,-3.2865,-3.2324,-3.1499,-3.1057,-3.033,0.0,0.0,0.0,0.0,-2.782,-2.7781,-2.8092,-2.8567,-2.9255,-3.0156,-3.1614,-3.3297,-3.4741,-3.5284,-3.6405,-3.7597,-3.8413,-3.8664,-3.8885,-3.942,-3.9694,-3.9714,-3.9445,-3.9446,-3.9413,-3.9127,-3.9362,-3.9648,-3.9698,-3.9833,-4.0002,-4.0223,-4.1222,-4.2533,-4.3941,-4.4958,-4.5338,-4.4871,-4.4682,-4.4837,-4.5511,-4.5546,-4.5667,-4.5871,-4.6133,-4.6341,-4.6492,-4.7245,-4.775,-4.792,-4.792,-4.7829,-4.7745,-4.7233,-4.7116,-4.7302,-4.7572,-4.7824,-4.7992,-4.8229,-4.8402,-4.8623,-4.8768,-4.8978,-4.9211,-4.9244,-4.9434,-4.9692,-4.9721,-4.9871,-5.0108,0.0,0.0,0.0,0.0,0.0,0.0,0.0,0.0,0.0,0.0,0.0,0.0,0.0,0.0,0.0,0.0,0.0,0.0,0.0,0.0,0.0,-2.1831,-2.4414,-2.59,-2.5908,-2.7328,-2.8014,-2.7935,-2.8673,-2.9411,-3.0107,-3.0838,-3.1483,-3.2154,-3.2154,-3.2171,-3.2204,-3.2204,-3.2171,-3.2154,-3.2154,-3.1319,-3.0133,-3.0133,0.0,0.0,0.0,0.0,0.0,-2.6989,-2.7453,-2.8165,-2.8165,-2.969,-3.1757,-3.3118,-3.4244,-3.5378,-3.6788,-3.7869,-3.8824,-3.9545,-3.9729,-3.9729,-3.9729,-3.9799,-3.9699,-3.8958,-3.8988,-3.8911,0.0,0.0,-3.9341,-3.9375,-3.9956,-4.0419,-4.0492,-4.3333,-4.5486,0.0,0.0,0.0,0.0,0.0,-4.5838,-4.5873,-4.589,-4.5941,-4.6075,-4.6877,-4.7348,-4.75,-4.8187,-4.8694,-4.8882,-4.8882,-4.8576,-4.8004,-4.738,-4.7151,-4.732,-4.7597,-4.7824,-4.8032,-4.8229,-4.842,-4.8623,-4.882,-4.9012,-4.9211,-4.9352,-4.9506,-4.9692,-4.9778,-4.9925,-5.0108,0.0,0.0,0.0,0.0,0.0,0.0,0.0,0.0,0.0,0.0,0.0,0.0,0.0,0.0,0.0,0.0,0.0,0.0,0.0,0.0,0.0,0.0,0.0,0.0,0.0,0.0,0.0,0.0,0.0,-2.8213,-2.8801,-2.8982,-2.9379,-2.9917,-2.9917,-3.0195,-3.0669,-3.0669,-3.0418,-3.0044,0.0,-2.9585,-2.8841,0.0,0.0,0.0,0.0,0.0,0.0,0.0,0.0,-3.0045,-3.0125,-3.2041,-3.4339,-3.4705,-3.6152,-3.772,-3.8104,-3.8806,-3.9495,-3.9885,-3.9986,-4.0037,-4.0221,-3.9912,-3.9469,-3.9282,-3.8819,-3.8406,-3.8201,-3.8321,-3.8692,-3.9289,-4.0062,-4.0542,-4.0508,-4.3348,0.0,-4.5786,0.0,-4.613,-4.6122,-4.6105,-4.6449,-4.7262,-4.7099,-4.7049,-4.7199,-4.8038,-4.8579,-4.8579,-4.9303,-4.9743,-4.9743,-4.9862,-4.9319,-4.8128,-4.8146,-4.7957,-4.7615,-4.7806,-4.8032,-4.8229,-4.8439,-4.8642,-4.8839,-4.9015,-4.9131,-4.9276,-4.9384,-4.9506,-4.9721,-4.9816,-4.9978,-5.0108,0.0,0.0,0.0,0.0,0.0,0.0,0.0,0.0,0.0,0.0,0.0,0.0,0.0,0.0,0.0,0.0,0.0,0.0,0.0,0.0,0.0,0.0,0.0,0.0,0.0,0.0,0.0,0.0,0.0,0.0,0.0,-2.7674,-2.813,-2.8428,-2.8758,-2.9065,-2.9428,-2.9428,0.0,0.0,0.0,0.0,0.0,0.0,0.0,0.0,0.0,0.0,0.0,0.0,0.0,-3.1007,-3.2395,-3.3996,-3.5501,-3.6139,-3.7562,-3.884,-3.884,-3.9412,-4.007,-4.0238,-4.0288,-4.0252,-4.0075,-3.9409,-3.8692,-3.8042,-3.7336,-3.6686,-3.6344,-3.6867,-3.7659,0.0,0.0,0.0,-4.0654,-4.295,-4.4942,0.0,-4.6197,0.0,-4.6315,-4.6698,-4.7152,-4.7758,-4.7647,-4.7756,-4.819,-4.905,-4.9457,-4.9457,-5.0219,-5.0659,-5.0812,-5.0556,-5.0097,-4.9381,-4.9253,-4.9035,-4.8749,-4.9068,-4.931,-4.9428,-4.9639,-4.9824,-5.0021,-5.0126,-5.009,-4.9915,-5.0021,-4.9965,-4.9844,-5.0342,-5.0608,-5.0817,0.0,0.0,0.0,0.0,0.0,0.0,0.0,0.0,0.0,0.0,0.0,0.0,0.0,0.0,0.0,0.0,0.0,0.0,0.0,0.0,0.0,0.0,0.0,0.0,0.0,0.0,0.0,0.0,0.0,0.0,0.0,0.0,0.0,0.0,0.0,0.0,0.0,0.0,0.0,0.0,0.0,0.0,0.0,0.0,0.0,0.0,0.0,0.0,0.0,0.0,-3.0527,-3.1724,-3.4494,-3.5593,-3.6151,-3.7537,-3.8628,-3.9367,-3.9416,-3.9941,-4.0534,-4.0583,-4.0497,-4.0257,-3.9624,-3.8699,-3.7638,-3.6353,-3.5454,-3.473,-3.406,-3.5087,-3.6385,-3.7386,0.0,-3.9939,-4.084,-4.251,-4.4244,-4.6007,-4.646,-4.6711,-4.6779,-4.7434,-4.7931,-4.8192,-4.821,-4.8493,-4.9135,-4.993,-5.0338,-5.0388,-5.103,-5.1538,-5.174,-5.119,-5.0892,-5.0944,-5.0489,-5.0242,-5.0177,-5.0602,-5.0805,-5.0845,-5.1119,-5.1306,-5.1433,-5.1591,-5.133,-5.0892,-5.1058,-5.0752,-5.0342,-5.1209,-5.1605,-5.1873,0.0,0.0,0.0,0.0,0.0,0.0,0.0,0.0,0.0,0.0,-1.4456,-1.3966,0.0,0.0,0.0,0.0,0.0,0.0,0.0,0.0,0.0,0.0,0.0,0.0,0.0,0.0,0.0,0.0,0.0,0.0,0.0,0.0,0.0,0.0,0.0,0.0,0.0,0.0,0.0,0.0,0.0,0.0,0.0,0.0,0.0,0.0,0.0,0.0,0.0,0.0,-3.1511,-3.3288,-3.5135,-3.6633,-3.7916,-3.8819,-3.9651,-4.028,-4.0394,-4.0546,-4.0697,-4.0953,-4.0498,-3.9997,-3.9967,-3.8382,0.0,-3.6561,-3.5434,-3.4463,-3.4324,-3.4554,-3.5179,-3.6574,-3.7565,-3.8851,-4.0878,-4.255,-4.4255,0.0,-4.6613,-4.7252,-4.8157,-4.8146,-4.8758,-5.0253,-5.0342,-5.0253,-5.0083,-5.1066,-5.1643,-5.1741,-5.1866,-5.1987,-5.2036,-5.191,-5.1658,-5.1239,-5.1158,-5.09,-5.0501,-5.0725,-5.0885,-5.106,-5.125,-5.145,-5.1572,-5.1776,-5.185,-5.187,-5.2076,-5.2077,-5.202,-5.2412,-5.2551,-5.2662,0.0,0.0,0.0,0.0,0.0,0.0,0.0,-1.5105,-1.5555,-1.5474,-1.5418,-1.5382,-1.5315,-1.5234,0.0,0.0,0.0,0.0,0.0,0.0,0.0,0.0,0.0,0.0,0.0,0.0,-2.0091,-2.0413,0.0,0.0,-2.2544,-2.3288,-2.3762,-2.4049,0.0,0.0,0.0,0.0,0.0,0.0,0.0,0.0,0.0,0.0,0.0,0.0,0.0,0.0,0.0,0.0,-3.1384,-3.306,-3.5745,-3.7398,-3.8637,-3.9915,-4.0548,-4.0884,-4.0948,-4.0948,-4.0908,-4.0637,-4.0301,-3.9693,-3.8538,0.0,0.0,-3.4401,-3.3082,-3.202,-3.202,-3.2645,0.0,-3.5283,-3.6561,-3.8356,-4.1104,-4.2113,-4.3578,-4.629,-4.687,-4.7586,-4.9054,-4.9313,-4.9862,-5.0825,-5.1322,-5.1509,-5.1267,-5.1741,-5.2054,-5.2102,-5.2102,-5.215,-5.2293,-5.2293,-5.2235,-5.2063,-5.2215,-5.2188,-5.1972,-5.2195,-5.2393,-5.2491,-5.268,-5.2862,-5.3053,-5.3155,-5.3056,-5.2897,-5.2996,-5.2853,-5.2665,-5.3251,-5.357,-5.3744,0.0,0.0,0.0,0.0,0.0,0.0,0.0,-1.546,-1.5976,-1.6046,-1.6726,-1.7155,-1.7084,-1.6697,-1.6435,0.0,0.0,0.0,0.0,0.0,0.0,0.0,0.0,0.0,0.0,0.0,0.0,-1.9311,-1.9995,0.0,0.0,0.0,0.0,0.0,-2.4059,-2.4344,-2.4286,0.0,0.0,0.0,0.0,-2.4245,0.0,0.0,0.0,0.0,0.0,0.0,0.0,0.0,-3.0886,-3.2409,-3.5514,-3.7258,-3.8528,-4.0394,-4.0954,-4.1046,-4.1265,-4.1346,-4.1171,-4.0438,-4.0001,-3.9215,-3.7207,-3.5339,0.0,-3.2458,-3.0992,-2.9909,-2.9909,-3.0904,-3.2231,0.0,-3.546,-3.7651,-4.0747,-4.1488,-4.3005,-4.6569,-4.7071,0.0,-4.9207,-5.0155,-5.0787,-5.1048,-5.1899,-5.2369,-5.2209,-5.2228,-5.2228,-5.2228,-5.2228,-5.2322,-5.2572,-5.2572,-5.2645,-5.2912,-5.3085,-5.3212,-5.3295,-5.3598,-5.3754,-5.3832,-5.4019,-5.42,-5.4409,-5.4458,-5.4258,-5.3878,-5.3936,-5.3704,-5.3416,-5.4178,-5.4588,-5.4838,0.0,0.0,0.0,0.0,0.0,0.0,0.0,-1.6343,-1.7055,-1.7756,-1.8453,-1.8865,-1.8853,-1.7505,-1.6545,0.0,0.0,0.0,0.0,0.0,0.0,0.0,0.0,0.0,0.0,0.0,0.0,-1.8665,-1.9418,0.0,0.0,0.0,0.0,0.0,0.0,-2.305,-2.2972,-2.2919,0.0,0.0,0.0,0.0,0.0,0.0,0.0,0.0,0.0,0.0,0.0,0.0,0.0,-3.2371,-3.3582,-3.5255,-3.7234,-3.9643,0.0,0.0,-4.1499,-4.1736,-4.1586,-4.0895,-3.964,-3.8333,-3.7432,0.0,-3.2717,-3.2558,-3.1338,-3.026,-3.026,-3.0384,0.0,0.0,0.0,-3.6093,-3.8858,-4.0824,-4.3221,-4.66,0.0,-4.7784,-4.8096,-4.9796,-5.1035,-5.1522,-5.2306,-5.2717,-5.2545,-5.2545,-5.2608,-5.2717,-5.2735,-5.2761,-5.2761,-5.2761,-5.2893,-5.317,-5.3188,-5.3318,-5.3563,-5.3717,-5.3832,-5.3907,-5.4252,-5.4375,-5.4424,-5.4717,-5.4814,-5.4798,-5.5034,-5.511,-5.5103,-5.5439,-5.5566,-5.5649,0.0,0.0,0.0,0.0,0.0,0.0,-1.5799,-1.6552,-1.7278,-1.8005,-1.8749,-1.9214,-1.9152,-1.8556,-1.8111,-1.7962,0.0,0.0,0.0,0.0,0.0,0.0,0.0,0.0,0.0,0.0,-1.8732,-1.8731,-1.9014,0.0,0.0,0.0,0.0,0.0,0.0,-2.3028,-2.2995,-2.2919,0.0,0.0,0.0,0.0,0.0,0.0,0.0,0.0,0.0,0.0,-2.6411,0.0,0.0,0.0,-3.1841,-3.3262,0.0,0.0,-3.9541,-4.0005,-4.0447,-4.0577,-4.0481,-3.9722,-3.8691,-3.7411,-3.5705,0.0,-3.1795,-3.0818,-2.9769,-2.9052,-2.9052,-2.9396,-3.0231,-3.1813,-3.341,-3.5348,-3.788,-4.0027,-4.2095,-4.4129,-4.6318,-4.7819,-4.8146,-4.9883,-5.148,-5.254,-5.2907,-5.3091,-5.3133,-5.2875,-5.2743,-5.2806,-5.2893,-5.2955,-5.3042,-5.3066,-5.3193,-5.3378,-5.3499,-5.36,-5.3737,-5.3926,-5.4108,-5.4198,-5.4371,-5.4538,-5.4717,-5.4841,-5.5019,-5.5149,-5.5255,-5.5408,-5.5551,-5.5662,-5.5767,-5.5885,0.0,0.0,0.0,0.0,0.0,-1.5187,-1.5928,-1.6664,-1.738,-1.8075,-1.8838,-1.9323,-1.9248,-1.9251,-1.9168,-1.9034,-1.8982,0.0,0.0,0.0,0.0,0.0,0.0,0.0,0.0,0.0,-1.8878,-1.8878,-1.9111,-1.9754,0.0,0.0,-2.1989,-2.2959,0.0,0.0,0.0,0.0,0.0,0.0,0.0,0.0,0.0,0.0,0.0,0.0,0.0,0.0,0.0,0.0,0.0,0.0,0.0,0.0,0.0,0.0,-3.8264,-3.9216,-3.9465,-3.9651,-3.9511,-3.8724,-3.7757,-3.6397,0.0,0.0,-3.104,-2.9428,-2.8506,-2.7968,-2.7942,-2.8362,-2.9301,-3.116,-3.28,-3.4709,-3.7093,-3.9247,-4.1083,-4.242,-4.5703,-4.7977,-4.8265,-5.0171,-5.1934,-5.3289,-5.3381,-5.3422,-5.3561,-5.3277,-5.3066,-5.3023,-5.3109,-5.3212,-5.3295,-5.3359,-5.3481,-5.3579,-5.3756,-5.387,-5.3981,-5.4163,-5.4337,-5.4524,-5.4571,-5.4761,-5.4941,-5.5,-5.5149,-5.5358,-5.5408,-5.5551,-5.5745,-5.5767,-5.5866,-5.6012,0.0,0.0,0.0,0.0,0.0,0.0,-1.5989,-1.6723,-1.7466,-1.8191,-1.8939,-1.9398,-1.9405,-1.9347,-1.9301,-1.9301,-1.9166,0.0,0.0,0.0,0.0,0.0,0.0,0.0,0.0,0.0,-1.9105,-1.9105,-1.9831,-2.0192,-2.0246,-2.1756,-2.2452,-2.2425,0.0,0.0,0.0,0.0,0.0,0.0,0.0,0.0,0.0,0.0,0.0,0.0,0.0,0.0,0.0,0.0,0.0,0.0,0.0,0.0,0.0,0.0,-3.652,-3.8025,-3.8959,-3.9246,-3.9117,-3.8321,-3.691,-3.5299,0.0,-3.2115,-3.055,-2.8931,-2.7954,-2.7387,-2.7313,-2.7331,-2.8098,-3.0438,-3.208,-3.3962,-3.6453,-3.8542,-4.051,-4.2372,-4.5975,-4.8292,-4.8288,-5.0523,-5.2453,-5.351,-5.3584,-5.3641,-5.3794,-5.3794,-5.3697,-5.3499,-5.3499,-5.3499,-5.3499,-5.3563,-5.3641,-5.3813,-5.3889,-5.4072,-5.439,-5.4409,-5.4524,-5.4799,-5.489,-5.4971,-5.5094,-5.5229,-5.5383,-5.5504,-5.564,-5.5745,-5.5807,-5.5959,-5.6012,-5.6029,0.0,0.0,0.0,0.0,0.0,0.0,0.0,-1.6337,-1.6913,-1.8186,-1.8577,-1.8928,-1.9485,-1.9479,-1.9431,-1.9431,-1.9261,0.0,0.0,0.0,0.0,0.0,0.0,0.0,0.0,0.0,-1.952,-2.0051,-2.0293,-2.0951,-2.1989,-2.2422,-2.2888,-2.3371,-2.362,-2.3725,0.0,0.0,0.0,0.0,0.0,0.0,-2.3407,0.0,0.0,0.0,0.0,0.0,0.0,0.0,0.0,0.0,0.0,0.0,0.0,0.0,0.0,0.0,-3.6121,-3.6674,-3.6991,-3.6188,-3.5166,-3.399,-3.2383,-3.0775,-2.9332,-2.8273,-2.7853,-2.7648,-2.7601,-2.8015,-2.898,-3.0775,-3.2409,-3.4127,-3.6042,-3.8751,-4.1207,-4.3008,-4.6485,-4.8697,-4.8697,-5.1583,-5.3553,-5.3833,-5.3907,-5.3963,-5.4072,-5.4072,-5.3963,-5.3717,-5.3737,-5.3757,-5.3757,-5.3889,-5.4,-5.4072,-5.4198,-5.4303,-5.4472,-5.4654,-5.478,-5.4871,-5.5057,-5.5149,-5.5255,-5.5383,-5.5527,-5.564,-5.5729,-5.5827,-5.5959,-5.6048,-5.613,-5.6204,0.0,0.0,0.0,0.0,0.0,0.0,0.0,-1.6003,-1.6517,-1.7452,-1.8113,-1.8677,-1.9169,-1.9428,-1.9569,-1.9574,-1.9446,0.0,0.0,0.0,0.0,0.0,0.0,0.0,0.0,-1.9416,-1.9785,-2.0597,-2.0864,-2.1657,-2.2868,-2.3123,-2.3504,-2.3937,-2.3937,-2.3935,0.0,0.0,0.0,0.0,0.0,0.0,-2.3616,0.0,0.0,0.0,0.0,0.0,0.0,0.0,0.0,0.0,0.0,0.0,0.0,0.0,-3.0276,-3.2612,0.0,-3.4522,-3.487,-3.4373,-3.3637,0.0,0.0,-3.0051,-2.8798,-2.7675,-2.7453,-2.7453,-2.7371,-2.829,-2.9554,-3.1096,-3.2965,-3.4789,-3.6507,-3.9246,-4.1954,-4.4253,-4.724,-4.9145,-4.9126,-5.2274,-5.4265,-5.4174,-5.4246,-5.4318,-5.4439,-5.4453,-5.4386,-5.4214,-5.4144,-5.4108,-5.4108,-5.4179,-5.4249,-5.4318,-5.4491,-5.459,-5.4667,-5.4852,-5.4971,-5.5057,-5.5176,-5.5333,0.0,-5.5551,-5.5662,-5.5808,-5.5865,-5.5956,-5.6075,-5.6145,-5.6218,-5.6297,0.0,0.0,0.0,0.0,0.0,0.0,0.0,-1.5739,-1.6217,-1.6203,-1.7509,-1.8485,-1.8595,-1.9206,-1.9657,-1.9712,0.0,0.0,0.0,0.0,0.0,0.0,0.0,0.0,0.0,-1.9685,-2.0061,-2.0812,-2.1602,-2.2365,-2.3123,-2.3879,-2.4209,-2.4209,-2.4209,-2.419,0.0,0.0,0.0,0.0,0.0,0.0,0.0,0.0,0.0,0.0,0.0,0.0,0.0,0.0,0.0,0.0,0.0,0.0,0.0,0.0,0.0,0.0,0.0,-3.2683,-3.2836,-3.2781,-3.2247,-3.1526,0.0,0.0,0.0,-2.7326,-2.7009,-2.699,-2.6933,-2.8287,-2.9898,-3.1478,-3.3691,-3.5843,-3.7664,-4.0102,-4.2865,-4.5947,-4.8215,-4.9519,-4.9519,-5.2666,-5.4641,-5.4463,-5.4578,-5.468,-5.4829,-5.4871,-5.4931,-5.4931,-5.4622,-5.4458,-5.4443,-5.4505,-5.4538,-5.4538,-5.4717,-5.486,-5.4931,-5.5,-5.5121,-5.5307,-5.5333,-5.548,-5.5724,-5.5724,-5.5827,-5.6012,-5.6029,-5.611,-5.6232,-5.6291,-5.6309,-5.6325,0.0,0.0,0.0,0.0,0.0,0.0,0.0,0.0,0.0,0.0,-1.6605,-1.7312,-1.8533,-1.8793,-1.9137,0.0,0.0,0.0,0.0,0.0,0.0,0.0,0.0,0.0,0.0,-2.0356,-2.1054,-2.1853,-2.2644,-2.3417,-2.4146,-2.4299,-2.4355,-2.4355,-2.4355,-2.4321,0.0,0.0,0.0,0.0,0.0,0.0,0.0,0.0,0.0,0.0,-2.3399,-2.345,0.0,0.0,0.0,0.0,0.0,0.0,0.0,0.0,-2.6533,-2.7017,-2.8409,0.0,-3.1296,-3.064,-3.0828,-3.096,0.0,0.0,0.0,0.0,0.0,-2.8106,-2.8034,-2.9344,-3.0968,-3.2545,-3.4335,-3.6335,-3.877,-4.235,-4.5444,-4.7278,-4.8645,-4.9531,-4.9795,-5.2863,-5.4914,-5.5083,-5.499,-5.4952,-5.5094,-5.5121,-5.5149,-5.5203,-5.5121,-5.4981,-5.478,-5.481,-5.4822,-5.4863,-5.4941,-5.5028,-5.5121,-5.5203,-5.5307,-5.5456,-5.5551,-5.5662,-5.5787,-5.5904,-5.5977,-5.6029,-5.6175,-5.6251,-5.6272,-5.6356,-5.6378,-5.6387,0.0,0.0,0.0,0.0,0.0,0.0,0.0,0.0,0.0,0.0,0.0,0.0,0.0,0.0,0.0,0.0,0.0,0.0,0.0,0.0,0.0,0.0,0.0,0.0,-1.9856,-2.0628,-2.1443,-2.2253,-2.3059,-2.3855,-2.4594,-2.4543,-2.4526,-2.4526,-2.4512,-2.4461,0.0,0.0,0.0,0.0,-2.4303,0.0,0.0,0.0,0.0,0.0,-2.2629,-2.297,0.0,-2.3936,-2.4376,-2.4757,0.0,0.0,0.0,0.0,-2.569,-2.5837,-2.632,-2.8183,-2.9874,-2.9399,-2.991,-3.0438,0.0,0.0,0.0,0.0,0.0,0.0,-2.9193,-3.1145,0.0,0.0,-3.609,-3.8697,-4.1652,-4.4707,-4.7011,-4.8036,-4.9055,-4.9739,-5.0043,-5.315,-5.525,-5.5561,-5.5403,-5.532,-5.5364,-5.5413,-5.5456,-5.548,-5.548,-5.5358,-5.5085,-5.5085,-5.5113,-5.5121,-5.5176,-5.5229,-5.5339,-5.5408,-5.5504,-5.564,-5.5707,-5.5808,-5.5904,-5.601,-5.6075,-5.6141,-5.6265,-5.6314,-5.6347,-5.6426,-5.6453,-5.6449,0.0,0.0,0.0,0.0,0.0,0.0,0.0,0.0,0.0,0.0,0.0,0.0,0.0,0.0,0.0,0.0,0.0,0.0,0.0,0.0,0.0,0.0,0.0,-1.9976,-2.0108,-2.0902,-2.1721,-2.2518,-2.3474,-2.4256,-2.4926,-2.5058,-2.5039,-2.4911,-2.472,-2.4596,0.0,0.0,0.0,0.0,-2.4459,0.0,0.0,0.0,0.0,0.0,0.0,0.0,0.0,-2.3493,-2.412,-2.4856,-2.4977,0.0,0.0,0.0,0.0,0.0,-2.5384,-2.7012,-2.8679,-2.8679,-2.9365,-3.0085,0.0,0.0,0.0,0.0,0.0,0.0,0.0,-3.3153,0.0,0.0,-3.8651,-4.1951,-4.4946,-4.6816,-4.8094,-4.8774,-4.9526,-5.0084,-5.0313,-5.3459,-5.5621,-5.5922,-5.5794,-5.5682,-5.5662,-5.5705,-5.5766,-5.5766,-5.5766,-5.564,-5.5413,-5.5383,-5.5358,-5.5358,-5.5432,-5.548,-5.5551,-5.5599,-5.5705,-5.5827,-5.5847,-5.5921,-5.6046,-5.6106,-5.6199,-5.6297,-5.6297,-5.6349,-5.6414,-5.6476,-5.6503,-5.6491,0.0,0.0,0.0,0.0,0.0,0.0,0.0,0.0,0.0,0.0,0.0,0.0,0.0,0.0,0.0,0.0,0.0,0.0,0.0,0.0,0.0,0.0,-2.0059,-2.0323,-2.1064,-2.192,-2.2764,-2.3582,-2.5118,-2.5901,-2.5972,-2.6662,-2.6594,-2.585,-2.5092,-2.4757,-2.4742,-2.4676,-2.4642,-2.4642,-2.4642,0.0,0.0,0.0,0.0,0.0,0.0,0.0,0.0,-2.3409,-2.425,-2.4977,-2.5063,0.0,0.0,0.0,0.0,0.0,-2.6178,-2.7248,-2.8115,-2.8055,-2.9198,-3.0333,-3.0348,0.0,0.0,0.0,0.0,0.0,0.0,-3.4545,-3.6075,0.0,-4.1999,-4.5111,-4.6377,-4.8029,-4.9432,-5.0258,-5.0393,-5.0432,-5.0548,-5.3802,-5.5981,-5.6136,-5.6116,-5.6056,-5.594,-5.594,-5.594,-5.594,-5.594,-5.594,-5.5884,-5.5726,-5.564,-5.564,-5.564,-5.5703,-5.5745,-5.5749,-5.5827,-5.5958,-5.6029,-5.6094,-5.617,-5.6246,-5.6278,-5.6308,-5.6359,-5.6425,-5.6492,-5.6498,-5.6511,-5.6511,0.0,0.0,0.0,0.0,0.0,0.0,0.0,0.0,0.0,0.0,0.0,0.0,0.0,0.0,0.0,0.0,0.0,0.0,0.0,0.0,0.0,-2.0941,-2.086,-2.0986,-2.1348,-2.2626,-2.3702,-2.4505,-2.5742,-2.6567,-2.6944,-2.6854,-2.6584,-2.6162,-2.5296,-2.4903,-2.4856,-2.4827,-2.4813,-2.4813,0.0,0.0,0.0,0.0,0.0,0.0,0.0,0.0,0.0,0.0,-2.3936,-2.5076,-2.5139,0.0,0.0,0.0,0.0,0.0,-2.6409,-2.7314,-2.8238,-2.9182,-3.0317,-3.1216,-3.1207,0.0,0.0,0.0,0.0,0.0,0.0,0.0,-3.9308,-4.2331,-4.4443,-4.6336,-4.811,-4.9053,-4.99,-5.0767,-5.0801,-5.0762,-5.0751,-5.4037,-5.6194,-5.6242,-5.6296,-5.6272,-5.6175,-5.6136,-5.6117,-5.6117,-5.6117,-5.6117,-5.6117,-5.602,-5.5919,-5.5866,-5.5866,-5.5904,-5.5959,-5.5973,-5.6024,-5.6106,-5.6185,-5.6239,-5.6251,-5.6336,-5.6368,-5.6417,-5.6437,-5.6464,-5.651,-5.6536,-5.6549,-5.6551,0.0,0.0,0.0,0.0,0.0,0.0,0.0,0.0,0.0,0.0,0.0,0.0,0.0,0.0,0.0,0.0,0.0,0.0,0.0,0.0,-2.0718,-2.156,-2.1748,-2.1872,-2.201,-2.3273,-2.443,-2.5428,-2.6307,-2.7236,-2.8202,-2.7121,-2.6618,-2.6572,-2.5494,-2.4987,-2.4961,-2.494,-2.4945,-2.4945,0.0,0.0,0.0,0.0,0.0,0.0,0.0,0.0,0.0,0.0,0.0,0.0,0.0,0.0,0.0,-2.5283,-2.5322,-2.5591,-2.6693,-2.7644,-2.876,-3.0554,0.0,-3.2034,-3.2443,0.0,0.0,0.0,0.0,0.0,0.0,-4.0024,-4.2655,-4.549,-4.6286,-4.7315,-4.9465,-4.9962,-5.0331,-5.0998,-5.1069,-5.1042,-5.0972,-5.4225,-5.636,-5.6356,-5.6394,-5.6394,-5.6336,-5.6271,-5.6244,-5.6244,-5.6244,-5.6244,-5.6244,-5.6244,-5.6168,-5.6059,-5.6059,-5.6075,-5.6126,-5.6132,-5.6174,-5.622,-5.6294,-5.6328,-5.6339,-5.6396,-5.6453,-5.6496,-5.6503,-5.6519,-5.6523,-5.6562,-5.6579,-5.6577,0.0,0.0,0.0,0.0,0.0,0.0,0.0,0.0,0.0,0.0,0.0,0.0,0.0,0.0,0.0,0.0,0.0,0.0,0.0,0.0,-2.0746,-2.1565,-2.2376,-2.3122,-2.3794,-2.3928,-2.4782,-2.64,-2.7282,-2.8504,-2.9978,-2.8352,-2.7593,-2.7536,-2.5837,-2.5101,-2.5088,-2.5082,-2.5089,-2.5089,-2.5089,0.0,0.0,0.0,0.0,0.0,0.0,0.0,0.0,0.0,0.0,0.0,0.0,0.0,-2.5293,-2.5303,-2.5397,-2.5832,-2.7464,-2.8594,-2.9719,-3.1474,-3.196,0.0,-3.4049,-3.5087,0.0,0.0,0.0,0.0,0.0,-4.2785,-4.4853,-4.5913,-4.7443,-4.8835,-4.9829,-5.0666,-5.122,-5.1278,-5.1278,-5.1259,-5.1181,-5.4401,-5.6494,-5.6483,-5.6483,-5.6464,-5.6406,-5.6388,-5.6396,-5.6396,-5.6396,-5.6396,-5.6396,-5.6396,-5.6329,-5.6201,-5.6201,-5.6181,-5.6181,-5.6255,-5.6297,-5.6308,-5.6359,-5.6433,-5.6488,-5.6492,-5.6496,-5.6503,-5.6507,-5.6539,-5.6582,-5.6523,-5.6503,-5.6509,0.0,0.0,0.0,0.0,0.0,0.0,0.0,0.0,0.0,0.0,0.0,0.0,0.0,0.0,0.0,0.0,0.0,0.0,0.0,0.0,-2.102,-2.241,-2.2779,-2.3584,-2.4891,-2.5416,-2.6227,-2.7371,-2.8752,-2.9697,-3.0228,-2.8541,-2.7762,-2.7687,-2.5933,-2.5157,-2.5157,-2.5172,-2.516,-2.516,-2.5118,-2.4602,0.0,0.0,0.0,0.0,0.0,0.0,0.0,0.0,-2.3246,-2.411,0.0,-2.5303,-2.537,-2.5406,-2.5815,-2.6513,-2.7726,-2.9116,-3.0762,-3.3057,0.0,0.0,0.0,0.0,0.0,0.0,-4.0574,0.0,0.0,0.0,-4.6131,-4.7554,-4.8786,-4.9874,-5.0742,-5.1143,-5.1362,-5.1357,-5.1357,-5.1357,-5.1333,-5.2547,-5.4226,-5.6391,-5.6567,-5.6548,-5.6528,-5.648,-5.6455,-5.6458,-5.6458,-5.6465,-5.6464,-5.6464,-5.6449,-5.6396,-5.6349,-5.631,-5.6329,-5.6388,-5.6417,-5.6426,-5.6449,-5.6484,-5.6498,-5.6503,-5.6516,-5.6556,-5.6517,-5.652,-5.6536,-5.6511,-5.6498,-5.6504,0.0,0.0,0.0,0.0,0.0,0.0,0.0,0.0,0.0,0.0,0.0,0.0,0.0,0.0,0.0,0.0,0.0,0.0,-2.0495,-2.0463,-2.1211,-2.2959,-2.3007,-2.3785,-2.5492,-2.632,-2.7121,-2.7933,-2.9619,-3.0414,-3.0333,-2.8621,-2.7822,-2.7761,-2.6022,-2.5243,-2.5233,-2.5231,-2.5209,-2.5198,-2.5149,-2.4804,0.0,0.0,0.0,0.0,0.0,0.0,0.0,0.0,-2.3131,0.0,0.0,0.0,0.0,-2.5495,-2.6088,-2.6931,-2.786,-2.9564,-3.1676,0.0,0.0,0.0,0.0,0.0,0.0,0.0,-4.2834,0.0,-4.5542,0.0,-4.7494,-4.8978,-4.9712,-5.0404,-5.1285,-5.1403,-5.1406,-5.1406,-5.1406,-5.1406,-5.1406,-5.1406,-5.2851,-5.6347,-5.6601,-5.6581,-5.6562,-5.6523,-5.6503,-5.6495,-5.6493,-5.6504,-5.6523,-5.6523,-5.6523,-5.6523,-5.6498,-5.6449,-5.643,-5.6491,-5.6504,-5.6491,-5.6514,-5.6523,-5.6528,-5.6529,-5.6542,-5.6554,-5.6528,-5.6504,-5.6504,-5.6484,-5.6476,-5.6476,0.0,0.0,0.0,0.0,0.0,0.0,0.0,0.0,0.0,0.0,0.0,0.0,0.0,0.0,0.0,0.0,0.0,0.0,-2.0508,-2.0508,-2.1286,-2.3022,-2.3047,-2.3816,-2.556,-2.6385,-2.7198,-2.7995,-2.9661,-3.0481,-3.0451,-2.8705,-2.7894,-2.7817,-2.614,-2.5361,-2.5303,-2.5302,-2.5252,-2.5192,-2.5192,-2.5252,-2.5215,0.0,0.0,0.0,0.0,0.0,0.0,0.0,-2.2844,-2.3195,0.0,0.0,0.0,-2.5511,-2.6118,-2.7,-2.7886,-3.003,-3.2441,0.0,0.0,0.0,0.0,0.0,0.0,-4.3372,0.0,-4.6582,-4.7441,-4.8261,-4.9101,-4.9961,-5.0117,-5.041,-5.1286,-5.1402,-5.1394,-5.14,-5.1394,-5.1394,-5.1394,-5.1394,-5.2838,-5.629,-5.6582,-5.6563,-5.6504,-5.6494,-5.6493,-5.6507,-5.6499,-5.6522,-5.6601,-5.6601,-5.6601,-5.6601,-5.6606,-5.6563,-5.6504,-5.6493,-5.6493,-5.65,-5.6562,-5.6601,-5.6601,-5.6601,-5.6551,-5.6497,-5.6498,-5.6503,-5.6488,-5.6414,-5.6396,-5.6407,0.0,0.0,0.0,0.0,0.0,0.0,0.0,0.0,0.0,0.0,0.0,0.0,0.0,0.0,0.0,0.0,0.0,0.0,-2.0506,-2.05,-2.1276,-2.3014,-2.3073,-2.3863,-2.5556,-2.6432,-2.7265,-2.8067,-2.8562,-2.8797,-2.8713,-2.7619,-2.7089,-2.7013,-2.5895,-2.5395,-2.5367,-2.5369,-2.5351,-2.5351,-2.5351,-2.5351,-2.5283,0.0,0.0,0.0,0.0,0.0,0.0,0.0,0.0,0.0,0.0,0.0,0.0,-2.555,-2.6592,-2.7893,-2.8774,-3.1372,0.0,0.0,0.0,0.0,0.0,0.0,0.0,0.0,-4.7344,-4.8206,-4.8479,-4.9163,-4.9804,-5.0063,-5.0614,-5.1102,-5.1357,-5.1401,-5.1396,-5.1394,-5.1394,-5.1394,-5.1394,-5.1394,-5.1804,-5.2792,-5.5139,-5.6524,-5.6504,-5.6491,-5.6497,-5.6497,-5.6499,-5.6508,-5.6523,-5.6523,-5.6523,-5.6523,-5.6523,-5.6541,-5.6575,-5.658,-5.6543,-5.6499,-5.6516,-5.6523,-5.6523,-5.6523,-5.6524,-5.6503,-5.6453,-5.6435,-5.6426,-5.6407,-5.6377,-5.6325,0.0,0.0,0.0,0.0,0.0,0.0,0.0,0.0,0.0,0.0,0.0,0.0,0.0,0.0,0.0,0.0,0.0,0.0,0.0,-2.0494,-2.1272,-2.3029,-2.3098,-2.3906,-2.5598,-2.6154,-2.6656,-2.711,-2.7776,-2.8085,-2.8024,-2.7191,-2.6776,-2.6703,-2.5836,-2.5434,-2.5445,-2.5429,-2.544,-2.5432,-2.5432,-2.544,-2.5352,0.0,0.0,0.0,0.0,0.0,0.0,0.0,0.0,0.0,0.0,0.0,0.0,-2.5991,-2.709,-2.8398,-2.9596,0.0,0.0,0.0,0.0,0.0,-4.425,0.0,0.0,0.0,-4.8555,-4.9371,-4.9384,-5.0063,-5.062,-5.0625,-5.1049,-5.14,-5.1408,-5.1408,-5.1388,-5.1356,-5.1356,-5.1349,-5.1316,-5.1335,-5.1347,-5.13,-5.4531,-5.648,-5.6461,-5.6461,-5.6461,-5.6461,-5.6457,-5.6464,-5.6464,-5.6464,-5.6464,-5.6464,-5.6464,-5.6478,-5.652,-5.6546,-5.6536,-5.6494,-5.6478,-5.6464,-5.6457,-5.6464,-5.6435,-5.6416,-5.6378,-5.6347,-5.6325,-5.6321,-5.6297,-5.6259,0.0,0.0,0.0,0.0,0.0,0.0,0.0,0.0,0.0,0.0,0.0,0.0,0.0,0.0,0.0,0.0,0.0,0.0,0.0,0.0,-2.1282,-2.3018,-2.3252,-2.4085,-2.5675,-2.5694,-2.5668,-2.5609,-2.7132,-2.7867,-2.7854,-2.7065,-2.6683,-2.6663,-2.5855,-2.5511,-2.551,-2.5503,-2.5495,-2.5499,-2.5499,-2.5468,-2.5309,-2.4522,0.0,0.0,0.0,0.0,0.0,0.0,0.0,0.0,0.0,0.0,-2.5647,-2.6533,-2.7465,-2.8565,-3.0261,0.0,0.0,0.0,0.0,0.0,-4.5711,-4.6976,-4.7627,-4.7698,0.0,-5.0222,-5.0227,-5.0879,-5.1396,-5.1396,-5.1386,-5.1388,-5.1388,-5.1388,-5.1375,-5.13,-5.1292,-5.1276,-5.1211,-5.1269,-5.1278,-5.1307,-5.4518,-5.6455,-5.6386,-5.6386,-5.6377,-5.6378,-5.6378,-5.6369,-5.6377,-5.6377,-5.6377,-5.6377,-5.6377,-5.6377,-5.6377,-5.6469,-5.6488,-5.6483,-5.6416,-5.6396,-5.6396,-5.6388,-5.6338,-5.6297,-5.6283,-5.6253,-5.6185,-5.6185,-5.6175,-5.6164,0.0,0.0,0.0,0.0,0.0,0.0,0.0,0.0,0.0,0.0,0.0,0.0,0.0,0.0,0.0,0.0,0.0,0.0,0.0,0.0,-2.1333,-2.3033,-2.4417,-2.5327,-2.5687,-2.5707,-2.5684,-2.5681,-2.5983,-2.6136,-2.6126,-2.5945,-2.5868,-2.5848,-2.5651,-2.5587,-2.5582,-2.5518,-2.5506,-2.5499,-2.5499,-2.5111,-2.4536,-2.4354,-2.3318,0.0,0.0,0.0,0.0,0.0,0.0,0.0,-2.3062,-2.3913,-2.4754,-2.5615,-2.6981,-2.8582,0.0,-3.3151,0.0,0.0,0.0,-4.3923,-4.5867,-4.6976,-4.7791,-4.8489,-4.9951,-5.1121,-5.1125,-5.1269,-5.1396,-5.14,-5.1369,-5.133,-5.1312,-5.1312,-5.1304,-5.123,-5.123,-5.124,-5.1269,-5.1249,-5.124,-5.1307,-5.4419,-5.6306,-5.6255,-5.6232,-5.6239,-5.6251,-5.6251,-5.6232,-5.6244,-5.6244,-5.6244,-5.6244,-5.6244,-5.6244,-5.6244,-5.6359,-5.6425,-5.6417,-5.6358,-5.6317,-5.6306,-5.6258,-5.622,-5.6207,-5.6218,-5.6194,-5.613,-5.613,-5.6062,-5.5958,0.0,0.0,0.0,0.0,0.0,0.0,0.0,0.0,0.0,0.0,0.0,0.0,0.0,0.0,0.0,0.0,0.0,0.0,0.0,0.0,-2.134,-2.3021,-2.4362,-2.5273,-2.5698,-2.5698,-2.5698,-2.5698,-2.5668,-2.5655,-2.564,-2.5656,-2.5648,-2.5643,-2.561,-2.56,-2.5595,-2.556,-2.5554,-2.5515,-2.5082,-2.4674,-2.4208,-2.3422,-2.2532,-2.1682,-2.1273,0.0,0.0,0.0,0.0,0.0,0.0,0.0,-2.455,-2.5848,-2.7152,-2.8676,0.0,0.0,0.0,0.0,0.0,-4.4165,-4.5909,-4.697,-4.7729,-4.8174,-4.9299,-5.0312,-5.0715,-5.0777,-5.0918,-5.1336,-5.1336,-5.1308,-5.1295,-5.1306,-5.1278,-5.122,-5.119,-5.12,-5.1256,-5.1225,-5.1214,-5.1249,-5.4388,-5.6233,-5.6104,-5.6096,-5.6121,-5.6199,-5.6199,-5.6179,-5.6151,-5.6151,-5.6151,-5.6102,-5.6102,-5.6102,-5.6117,-5.6239,-5.6306,-5.6302,-5.6272,-5.6226,-5.6199,-5.6175,-5.6126,-5.6059,-5.6062,-5.6031,-5.5996,-5.5996,-5.596,-5.5904,0.0,0.0,0.0,0.0,0.0,0.0,0.0,0.0,0.0,0.0,0.0,0.0,0.0,0.0,0.0,0.0,0.0,0.0,0.0,0.0,0.0,-2.2829,-2.386,-2.4734,-2.5455,-2.5611,-2.5689,-2.5689,-2.5707,0.0,0.0,0.0,-2.5847,-2.5703,-2.5792,-2.5764,-2.5619,-2.5619,-2.5619,-2.5556,-2.4832,-2.4442,-2.417,-2.2773,-2.2154,-2.1921,-2.122,-2.085,-2.0714,-2.0714,0.0,0.0,0.0,0.0,-2.4408,-2.5998,-2.7191,-2.852,0.0,0.0,0.0,0.0,-4.2939,0.0,-4.5714,-4.6749,-4.7389,-4.738,-4.8186,-4.9091,-4.9755,-4.9874,-5.0165,-5.1024,-5.1128,-5.1109,-5.1267,-5.1278,-5.1259,-5.1208,-5.1197,-5.1194,-5.1205,-5.1212,-5.1186,-5.1145,-5.3756,-5.5555,-5.5966,-5.5816,-5.5839,-5.6133,-5.6153,-5.6117,-5.6065,-5.6065,-5.6048,-5.5977,-5.5977,-5.5977,-5.594,-5.6059,-5.6121,-5.617,-5.6145,-5.6133,-5.6065,-5.6065,-5.5995,-5.5865,-5.5865,-5.5866,-5.5865,-5.5865,-5.5826,-5.5845,0.0,0.0,0.0,0.0,0.0,0.0,0.0,0.0,0.0,0.0,0.0,0.0,0.0,0.0,0.0,0.0,0.0,0.0,-2.0605,0.0,0.0,-2.2051,-2.3554,-2.4452,-2.4566,-2.5309,-2.5699,-2.5699,0.0,0.0,0.0,0.0,0.0,-2.5726,0.0,-2.6386,-2.5681,-2.5691,-2.5687,-2.5687,-2.5551,-2.5063,-2.4362,-2.4138,-2.3575,-2.2912,-2.2795,-2.2269,-2.1628,-2.1628,-2.1196,0.0,0.0,0.0,-2.3458,-2.4433,-2.5896,-2.7557,0.0,0.0,0.0,0.0,-4.2494,-4.3957,0.0,0.0,-4.6471,-4.6462,-4.7776,-4.8919,-4.8954,-4.8972,-4.9268,-5.0126,-5.0224,-5.043,-5.1123,-5.122,-5.1208,-5.1194,-5.121,-5.1205,-5.1192,-5.1205,-5.1139,-5.0951,-5.1368,-5.2887,-5.5755,-5.4989,-5.4898,-5.5904,-5.5943,-5.5943,-5.5924,-5.5924,-5.5924,-5.5924,-5.5847,-5.5807,-5.5726,-5.5747,-5.5866,-5.601,-5.5958,-5.5921,-5.594,-5.5923,-5.5885,-5.5807,-5.5807,-5.5745,-5.564,-5.564,-5.5596,-5.5666,0.0,0.0,0.0,0.0,0.0,0.0,0.0,0.0,0.0,0.0,0.0,0.0,0.0,0.0,0.0,-2.0597,-2.0597,-2.0601,-2.0604,-2.0956,-2.1385,-2.1874,-2.2616,-2.3203,-2.3652,-2.4531,-2.4979,-2.4977,0.0,0.0,0.0,-2.7098,-2.7268,0.0,0.0,0.0,0.0,-2.5902,-2.5701,-2.5662,-2.5174,-2.4745,-2.4355,-2.3851,-2.3425,-2.3093,-2.3093,-2.284,-2.253,-2.253,-2.1942,-2.1377,-2.2255,0.0,0.0,0.0,-2.5297,0.0,-2.9517,0.0,-3.7081,0.0,-4.0971,-4.2591,-4.3957,-4.4956,-4.5565,-4.5561,-4.6566,-4.7588,-4.8037,-4.8094,-4.8352,-4.9229,-4.973,-5.011,-5.0471,-5.0918,-5.1197,-5.1198,-5.1205,-5.1199,-5.1197,-5.1203,-5.1121,-5.0921,-5.0832,-5.1457,-5.2966,-5.3742,-5.4457,-5.5152,-5.5615,-5.5826,-5.5785,-5.5745,-5.5703,-5.5682,-5.566,-5.5618,-5.5596,-5.5596,-5.5684,-5.5827,-5.5808,-5.5767,-5.5728,-5.5745,-5.5703,-5.5618,-5.5618,-5.5596,-5.5551,-5.5504,-5.5787,-5.6217,0.0,0.0,0.0,0.0,0.0,0.0,0.0,0.0,0.0,0.0,0.0,0.0,0.0,0.0,0.0,0.0,-2.073,-2.0596,-2.0599,-2.0599,-2.0893,-2.1538,-2.1772,-2.2184,-2.2773,-2.3847,-2.4394,0.0,0.0,0.0,-2.5739,-2.7262,-2.7748,0.0,-2.7331,0.0,0.0,0.0,0.0,0.0,-2.5225,-2.5069,-2.501,-2.4583,-2.4427,-2.4427,-2.4427,-2.4135,-2.3762,-2.3762,-2.3023,-2.2242,-2.2903,-2.265,0.0,0.0,0.0,0.0,0.0,0.0,-3.5486,-3.7458,-3.9214,-4.0915,0.0,-4.373,-4.4468,-4.4909,-4.5528,-4.6241,-4.712,-4.7216,-4.7454,-4.8332,-4.9145,-4.975,-4.9965,-5.0694,-5.1194,-5.1205,-5.1192,-5.1172,-5.1194,-5.1145,-5.1057,-5.0861,-5.0767,-5.0849,-5.1181,-5.2897,-5.4092,-5.4535,-5.5323,-5.5703,-5.564,-5.5573,-5.5527,-5.5456,-5.5432,-5.5413,-5.5408,-5.5408,-5.5437,-5.5551,-5.5596,-5.5596,-5.5551,-5.5527,-5.548,-5.5413,-5.5413,-5.5413,-5.5427,-5.5607,-5.6078,-5.6664,0.0,0.0,0.0,0.0,0.0,0.0,0.0,0.0,0.0,0.0,0.0,0.0,-2.2896,-2.2291,-2.1821,-2.1821,-2.1081,-2.0594,-2.0594,-2.0594,-2.0614,-2.0672,-2.1453,0.0,-2.1962,-2.357,-2.4392,0.0,0.0,0.0,-2.572,-2.6637,-2.7477,-2.8239,-2.8238,-2.7765,-2.6937,0.0,0.0,0.0,0.0,-2.6859,0.0,0.0,-2.8032,-2.8032,-2.8032,0.0,-2.557,-2.557,-2.4438,-2.3033,-2.3091,-2.3072,-2.3052,0.0,0.0,0.0,0.0,-3.0958,0.0,-3.5486,-3.7435,0.0,0.0,-4.1966,-4.3004,-4.466,-4.5031,-4.5324,-4.6202,-4.6303,-4.6557,-4.7435,-4.8234,-4.907,-4.9887,-5.0692,-5.119,-5.1205,-5.1147,-5.1125,-5.1194,-5.1041,-5.0861,-5.0726,-5.0711,-5.1161,-5.2261,-5.2916,-5.3605,-5.4408,-5.5128,-5.5504,-5.5504,-5.5456,-5.5383,-5.5307,-5.5255,-5.5183,-5.5121,-5.5121,-5.5121,-5.5149,-5.5333,-5.5408,-5.5408,-5.5333,-5.5281,-5.5229,-5.5229,-5.5176,-5.5216,-5.6035,-5.6378,-5.6644,0.0,0.0,0.0,0.0,0.0,0.0,0.0,0.0,0.0,0.0,0.0,0.0,0.0,-2.2838,-2.2662,-2.2662,-2.1901,-2.1198,-2.0632,-2.0593,-2.0593,-2.0593,-2.0907,-2.1336,-2.1881,-2.2997,0.0,0.0,0.0,-2.5696,-2.5719,-2.6581,-2.7168,-2.7461,-2.7461,-2.7597,-2.7771,-2.6909,0.0,0.0,0.0,0.0,0.0,0.0,0.0,0.0,0.0,0.0,-2.8198,-2.8198,-2.667,-2.477,-2.477,-2.4009,-2.321,-2.3763,-2.4779,0.0,0.0,0.0,0.0,-3.3124,-3.5224,-3.7245,-3.8432,-4.0186,-4.1743,-4.238,-4.3821,-4.5106,-4.5414,-4.5865,-4.6304,-4.6616,-4.7805,-4.8817,-4.9129,-5.0342,-5.1198,-5.1205,-5.1192,-5.1111,-5.1033,-5.0855,-5.0748,-5.0711,-5.0698,-5.0874,-5.1299,-5.1932,-5.2698,-5.3541,-5.4296,-5.4623,-5.4549,-5.4473,-5.4135,-5.3575,-5.4101,-5.4341,-5.4351,-5.4809,-5.5057,-5.5028,-5.5028,-5.5085,-5.5203,-5.5176,-5.5121,-5.5066,-5.5066,-5.5028,-5.5084,-5.586,-5.6455,-5.7062,0.0,0.0,0.0,0.0,0.0,0.0,0.0,0.0,0.0,-2.3423,0.0,0.0,0.0,0.0,-2.3423,-2.313,-2.2603,-2.194,-2.1081,-2.1042,-2.1042,-2.1042,-2.1042,-2.1432,-2.2272,-2.3111,-2.3814,0.0,0.0,0.0,0.0,-2.628,-2.6712,-2.6986,-2.6696,-2.705,0.0,0.0,0.0,-2.7129,0.0,0.0,-3.0098,0.0,0.0,0.0,0.0,0.0,-3.0839,-3.0546,-2.8902,-2.6963,-2.6669,-2.5184,-2.3641,-2.4238,-2.4805,0.0,-2.6679,0.0,0.0,0.0,-3.3007,-3.4745,-3.6472,-3.817,-3.9715,-4.0857,-4.2474,-4.3954,-4.484,-4.5416,-4.5855,-4.6142,-4.735,-4.837,-4.8662,-4.9817,-5.0771,-5.1153,-5.1197,-5.1131,-5.0925,-5.0781,-5.0711,-5.0715,-5.072,-5.0702,-5.0663,-5.1371,-5.2132,-5.2928,-5.3432,-5.362,-5.3518,-5.3457,-5.3117,-5.2547,-5.3109,-5.3499,-5.3756,-5.4248,-5.4617,-5.4882,-5.4799,-5.486,-5.5,-5.4971,-5.4941,-5.4901,-5.4901,-5.5042,-5.534,-5.6058,-5.6838,-5.7668,0.0,0.0,0.0,0.0,0.0,0.0,0.0,0.0,-2.3443,-2.4319,0.0,0.0,0.0,0.0,0.0,-2.3228,-2.313,-2.2799,-2.1997,-2.1938,-2.1938,-2.1938,-2.1938,-2.2309,-2.3111,-2.3968,-2.4417,0.0,0.0,0.0,0.0,0.0,-2.6156,-2.6917,-2.6078,-2.6161,-2.6969,0.0,-2.7046,-2.726,0.0,-3.0971,-3.1185,0.0,0.0,0.0,-3.3867,-3.3535,-3.3379,-3.2519,-3.1093,-2.9548,-2.8591,-2.6517,-2.4445,-2.4447,-2.4417,-2.4772,0.0,0.0,0.0,-3.0171,-3.0855,-3.1772,-3.5112,-3.5945,-3.695,-4.0268,-4.103,-4.1885,-4.4411,-4.4865,-4.5148,-4.6014,-4.6855,-4.7708,-4.8545,-4.9176,-4.9955,-5.1075,-5.1197,-5.1111,-5.0925,-5.0786,-5.0715,-5.0793,-5.074,-5.0663,-5.0603,-5.1308,-5.2001,-5.2628,-5.2686,-5.266,-5.2544,-5.2482,-5.2427,-5.2305,-5.2285,-5.2651,-5.3371,-5.339,-5.3862,-5.4692,-5.4692,-5.4705,-5.4767,-5.4723,-5.4692,-5.4692,-5.4692,-5.5182,-5.5961,-5.6723,-5.7517,-5.829,0.0,0.0,0.0,0.0,0.0,0.0,-2.3942,-2.4033,-2.4358,0.0,0.0,0.0,-2.6607,-2.6429,-2.5687,-2.4163,-2.4046,-2.3675,-2.2812,-2.2773,-2.2771,-2.2764,-2.2764,-2.3174,-2.4015,-2.4288,-2.4718,-2.5344,0.0,0.0,0.0,0.0,0.0,0.0,-2.5813,-2.5835,-2.6132,-2.7407,0.0,-2.8168,-3.0726,-3.2522,0.0,0.0,0.0,0.0,0.0,-3.6755,-3.6091,-3.5212,-3.3787,-3.1874,-2.9159,-2.6933,-2.5332,-2.5348,-2.4892,-2.4633,-2.5769,0.0,0.0,0.0,0.0,0.0,-3.2838,-3.4649,-3.6267,-3.7223,-3.937,-4.1319,-4.2061,-4.3183,-4.4304,-4.5137,-4.6458,-4.7475,-4.7728,-4.9459,-5.0853,-5.1147,-5.1075,-5.097,-5.0902,-5.0822,-5.0773,-5.0793,-5.074,-5.0663,-5.0603,-5.1283,-5.1725,-5.1827,-5.2348,-5.2315,-5.1665,-5.1583,-5.1225,-5.0516,-5.1073,-5.1782,-5.256,-5.3082,-5.3752,-5.4476,-5.4428,-5.4375,-5.4303,-5.4472,-5.4472,-5.4337,-5.4337,-5.479,-5.5563,-5.6405,-5.7211,-5.8016,0.0,0.0,0.0,0.0,0.0,-2.4941,-2.5407,-2.579,-2.6214,0.0,0.0,0.0,-2.7542,-2.7542,-2.7132,-2.611,-2.5681,-2.5115,-2.4249,-2.384,-2.3642,-2.3637,-2.3637,-2.4046,-2.4927,-2.4946,-2.518,-2.571,0.0,0.0,-2.5161,-2.5161,0.0,0.0,0.0,0.0,0.0,0.0,0.0,0.0,-3.161,0.0,0.0,-3.6202,-3.7825,0.0,0.0,0.0,-3.8756,-3.7919,-3.5984,-3.3406,-3.0343,-2.8449,-2.7258,-2.6887,-2.6179,-2.5607,-2.6097,-2.6351,-2.6663,-2.7542,0.0,0.0,-3.1289,-3.3027,-3.4686,-3.5779,-3.7594,-3.9306,-4.0359,-4.17,-4.288,-4.3689,-4.4939,-4.6199,-4.7261,-4.8341,-4.9299,-5.0022,-4.9317,-4.9058,-4.978,-4.9994,-5.0137,-5.0252,-5.0528,-5.0663,-5.0542,-5.0894,-5.1047,-5.0926,-5.1332,-5.1273,-5.0738,-5.0656,-5.0326,-4.9769,-5.0552,-5.1292,-5.2065,-5.2827,-5.3568,-5.4287,-5.4235,-5.411,-5.3981,-5.4144,-5.4179,-5.4181,-5.4501,-5.5099,-5.5846,-5.6627,-5.7407,-5.817,0.0,0.0,-2.4824,-2.5684,-2.6484,-2.7031,-2.7125,-2.7801,-2.8303,0.0,-2.8459,-2.8576,-2.8576,-2.8576,-2.8533,-2.8447,-2.7647,-2.6805,-2.6035,-2.5177,-2.469,-2.469,-2.4592,-2.4904,-2.5687,-2.5707,-2.5707,-2.5707,-2.4924,-2.4534,-2.4534,-2.4531,-2.4531,0.0,0.0,0.0,0.0,0.0,0.0,-2.9991,-3.2436,-3.4503,0.0,0.0,-3.9107,-4.1163,-4.048,-4.0734,-4.1241,-4.0343,-3.7728,-3.4426,-3.2065,-3.0584,-2.955,-2.8691,-2.7813,-2.7127,-2.713,-2.6564,-2.6193,-2.7052,-2.7852,0.0,-3.0448,-3.1465,-3.2753,-3.5096,-3.5796,-3.669,-3.8955,-4.016,-4.1086,-4.189,-4.2746,-4.4211,-4.6755,-4.6474,-4.6579,-4.8128,-4.681,-4.6402,-4.7961,-4.8604,-4.9039,-4.9346,-5.0086,-5.047,-5.0347,-5.0313,-5.0231,-5.0108,-5.0108,-5.0031,-4.9879,-4.991,-4.9911,-4.9843,-5.0583,-5.1287,-5.1967,-5.2679,-5.3377,-5.4091,-5.4091,-5.3944,-5.3774,-5.3774,-5.387,-5.4093,-5.4857,-5.5657,-5.6418,-5.7052,-5.7765,-5.8468,-2.5273,0.0,-2.5723,-2.6582,-2.6894,-2.7246,-2.7946,-2.8192,-2.8301,-2.8303,-2.9474,-3.0313,-3.0313,-3.0309,-3.0033,-2.9327,-2.8463,-2.7888,-2.7725,-2.6942,-2.647,-2.6404,-2.5781,-2.5527,-2.5707,-2.5707,-2.5707,-2.5707,-2.5527,-2.5449,-2.5449,-2.5383,-2.536,0.0,0.0,0.0,0.0,0.0,0.0,-3.1695,-3.2916,-3.4835,-3.7136,-3.8716,-4.0496,-4.2217,-4.2739,-4.3051,-4.2954,-4.1393,-3.8584,-3.5541,-3.4332,-3.24,-3.0391,-2.9514,-2.8655,-2.7972,-2.7972,-2.7836,-2.7914,-2.8792,-2.9149,0.0,-3.0579,-3.1463,-3.2246,-3.2753,-3.4549,-3.6144,-3.6653,-3.7975,-3.9292,-4.0162,-4.1026,-4.2454,-4.4954,-4.5706,-4.6134,-4.6477,-4.608,-4.5925,-4.6273,-4.7175,-4.794,-4.8478,-4.9125,-4.9486,-4.9465,-4.9988,-5.0231,-5.0108,-5.0108,-5.0031,-4.9879,-5.0478,-5.0713,-5.0692,-5.1412,-5.2132,-5.2772,-5.2922,-5.3361,-5.4019,-5.3926,-5.3831,-5.3695,-5.3579,-5.3561,-5.3693,-5.4485,-5.5299,-5.6094,-5.6866,-5.7592,-5.8286,-2.5605,-2.6055,-2.6484,-2.6914,-2.7715,-2.8436,-2.8882,-2.9324,-2.9745,-3.0138,-3.1309,-3.2109,-3.2109,-3.2101,-3.1923,-3.1487,-3.0657,-2.9963,-2.9526,-2.8704,-2.8041,-2.7569,-2.6751,-2.6299,-2.6295,-2.5866,-2.5652,-2.5643,-2.5215,-2.4996,-2.4996,-2.4972,-2.4953,0.0,0.0,0.0,0.0,0.0,-3.0456,-3.216,-3.3473,-3.5534,-3.8034,-3.9775,-4.1515,-4.3119,-4.3997,-4.4041,-4.3436,-4.17,-3.9379,-3.7019,-3.5752,-3.4148,-3.2569,-3.1691,-3.0521,-2.9507,-2.9507,-2.8863,-2.8301,-2.8746,-2.9179,0.0,0.0,-3.0827,-3.1571,-3.2001,-3.3132,-3.4183,-3.4616,-3.6075,-3.7357,-3.7784,-3.8948,-4.0377,-4.2023,-4.4448,-4.6047,-4.5994,-4.5173,-4.4911,-4.5719,-4.6263,-4.6998,-4.812,-4.8452,-4.8774,-4.9177,-4.9529,-4.9835,-5.0089,-5.0108,-5.024,-5.0542,-5.0828,-5.1156,-5.1579,-5.2183,-5.2671,-5.2966,-5.3342,-5.3627,-5.385,-5.3773,-5.3637,-5.3518,-5.344,-5.3318,-5.3364,-5.4638,-5.5417,-5.5871,-5.6959,-5.7584,-5.7904,-2.5703,0.0,-2.7051,-2.7226,-2.8554,-2.9663,-2.982,-3.0574,-3.1426,-3.2246,-3.3261,-3.3902,-3.3902,-3.403,-3.4121,-3.4133,-3.3184,-3.2274,-3.1583,-3.057,-2.9611,-2.8734,-2.7877,-2.7327,-2.7157,-2.6301,-2.5848,-2.5839,-2.4978,-2.455,-2.455,-2.4545,-2.4642,0.0,0.0,0.0,0.0,0.0,0.0,-3.2642,-3.4374,-3.645,-3.8688,-4.0596,-4.2278,-4.374,-4.4785,-4.4518,-4.3465,-4.2061,-4.0326,-3.8478,-3.6952,-3.5763,-3.4753,-3.3891,-3.2526,-3.1254,-3.1102,-3.003,-2.8918,-2.8743,-2.923,-2.9757,0.0,0.0,0.0,-3.1695,-3.1987,-3.2315,-3.3028,-3.4389,-3.5417,-3.5427,-3.6727,-3.7987,-3.863,-4.212,-4.4859,-4.5453,-4.3962,-4.3412,-4.4705,-4.508,-4.5822,-4.7277,-4.7473,-4.7854,-4.8679,-4.8955,-4.9339,-4.9885,-5.0032,-5.0449,-5.1214,-5.1177,-5.1598,-5.2447,-5.3001,-5.3225,-5.3157,-5.3721,-5.3888,-5.3714,-5.3656,-5.3499,-5.3318,-5.3277,-5.3151,-5.3163,-5.488,-5.5566,-5.5705,-5.7113,-5.7553,-5.7534,-2.5703,-2.6406,0.0,-2.8027,-2.8964,-2.9859,-3.0621,-3.1433,-3.2263,-3.3144,-3.4686,-3.5698,-3.5708,-3.6345,-3.6766,-3.6767,-3.5256,-3.4272,-3.4174,-3.2674,-3.1422,-3.0536,-2.9679,-2.8832,-2.8076,-2.7201,-2.6753,-2.6748,-2.5878,-2.545,-2.545,-2.5454,-2.5857,0.0,-2.6817,0.0,0.0,0.0,-3.211,-3.4457,-3.6129,-3.7467,-3.8688,-4.1201,-4.2766,-4.3824,-4.5455,-4.4994,-4.3585,-4.3371,-4.1675,-3.948,-3.8525,-3.7083,-3.5582,-3.4725,-3.3829,-3.2932,-3.2153,-3.1802,-3.1471,-3.0706,-3.0579,-3.0646,-3.0646,0.0,-3.0837,-3.0934,0.0,-3.214,-3.2225,0.0,0.0,-3.3673,-3.4447,-3.5065,-3.5158,-3.7585,-4.047,-4.3432,-4.2188,-4.1172,-4.1354,-4.2646,-4.3871,-4.4752,-4.5416,-4.6148,-4.6934,-4.8328,-4.9102,-4.9115,-4.9752,-5.0475,-5.1296,-5.1811,-5.2465,-5.3277,-5.3883,-5.4104,-5.396,-5.3981,-5.3888,-5.3695,-5.3558,-5.344,-5.3277,-5.3109,-5.3042,-5.3163,-5.4773,-5.535,-5.5459,-5.6999,-5.7455,-5.7257,-2.5703,-2.6816,0.0,-2.8242,-2.9432,-3.0484,-3.0836,-3.2018,-3.3356,-3.4722,-3.5994,-3.6928,-3.7406,0.0,0.0,0.0,0.0,-3.7194,0.0,-3.4987,-3.393,-3.3042,-3.1688,-3.0547,-2.9674,-2.8799,-2.7859,-2.6901,-2.6537,-2.611,-2.5604,-2.6118,-2.6545,0.0,-2.7919,0.0,-3.0243,0.0,-3.3398,-3.5446,-3.7156,-3.8661,-4.0088,-4.2241,-4.3919,-4.5192,-4.5947,-4.5078,-4.3598,-4.3598,-4.1909,-3.9747,-3.9376,-3.8052,-3.6571,-3.622,-3.5148,-3.4018,-3.3648,-3.32,-3.2655,-3.1778,-3.1549,-3.1417,-3.0925,-3.0793,-3.0798,-3.0798,0.0,0.0,0.0,0.0,0.0,0.0,-3.3356,-3.3902,-3.3891,-3.4847,-3.6774,-4.0135,-3.985,-3.9727,-4.0655,-4.1788,-4.2791,-4.3593,-4.4357,-4.515,-4.5899,-4.7505,-4.8586,-4.8986,-4.9714,-5.0729,-5.198,-5.2132,-5.2862,-5.4145,-5.4153,-5.4146,-5.4091,-5.3963,-5.3774,-5.3598,-5.3539,-5.3418,-5.323,-5.3085,-5.2937,-5.2977,-5.4064,-5.4683,-5.5105,-5.6182,-5.674,-5.6951,-2.6016,0.0,0.0,0.0,-2.9744,-3.105,-3.1516,-3.3012,-3.4647,-3.6169,-3.7516,-3.8567,-3.9158,-4.0203,0.0,0.0,-4.0259,-3.9961,0.0,-3.7553,-3.6547,-3.5684,-3.3972,-3.2629,-3.176,-3.0432,-2.9169,-2.7932,-2.7466,-2.6903,-2.63,-2.6922,-2.7369,-2.7654,0.0,-3.0236,-3.1161,0.0,-3.4839,-3.6334,-3.8285,-4.0247,-4.2121,-4.3421,-4.4857,-4.6177,-4.6177,-4.5212,-4.3895,-4.3661,-4.2208,-4.0396,-3.9929,-3.8897,-3.7786,-3.7319,-3.6287,-3.5176,-3.4728,-3.4164,-3.3521,-3.2644,-3.2255,-3.1904,-3.1276,-3.0945,-3.0769,-3.0769,-3.0794,0.0,0.0,0.0,-3.1739,-3.1739,0.0,-3.2694,-3.2688,-3.2686,-3.3946,-3.7304,-3.7637,-3.8139,-3.9547,-4.0417,-4.1321,-4.2337,-4.2967,-4.3805,-4.5017,-4.6434,-4.7652,-4.8647,-4.9396,-5.0672,-5.2501,-5.2332,-5.3062,-5.4692,-5.4356,-5.4163,-5.4091,-5.3926,-5.3736,-5.3499,-5.3499,-5.3378,-5.3146,-5.2999,-5.285,-5.2771,-5.3217,-5.3802,-5.4471,-5.5433,-5.607,-5.6454,-2.6797,-2.7676,0.0,0.0,0.0,-3.1456,-3.3068,-3.4803,-3.6247,-3.7145,-3.9429,0.0,0.0,0.0,0.0,0.0,0.0,-4.2202,-4.2143,-4.0533,-3.9188,-3.8318,-3.6616,-3.5278,-3.44,-3.1933,-3.0632,-3.0574,-2.8884,-2.8042,-2.8023,-2.8042,-2.8501,-2.9353,-3.0253,-3.1119,-3.2034,-3.4611,-3.623,-3.7287,-3.9791,-4.2364,-4.4676,-4.4744,-4.5317,-4.6093,-4.6093,-4.5529,-4.4634,-4.3856,-4.298,-4.193,-4.0237,-3.9653,-3.9283,-3.761,-3.7065,-3.6676,-3.5042,-3.4581,-3.4341,-3.3479,-3.2629,-3.2007,-3.1968,-3.1306,-3.0703,-3.0703,-3.0753,-3.0803,-3.0803,-3.0813,-3.0838,-3.0838,-3.0877,0.0,0.0,-3.0884,-3.2156,-3.5574,-3.586,-3.6144,-3.7033,-3.7858,-3.8988,-4.0554,-4.0699,-4.1758,-4.4096,-4.5017,-4.6203,-4.7799,-4.8562,-5.0127,-5.2555,-5.24,-5.3123,-5.4692,-5.451,-5.4287,-5.4091,-5.4019,-5.3813,-5.3499,-5.3499,-5.3318,-5.2999,-5.285,-5.2717,-5.2608,-5.2405,-5.2786,-5.3572,-5.5184,-5.5659,-5.5561,0.0,0.0,0.0,0.0,0.0,0.0,-3.4783,-3.562,-3.6931,0.0,-4.0561,0.0,0.0,-4.4334,-4.5117,0.0,0.0,-4.463,-4.4058,-4.2381,0.0,-4.0932,-3.9293,-3.7964,-3.71,-3.5119,-3.3254,-3.1564,-3.0399,-2.9227,-2.8106,-2.8689,-2.9121,-2.9455,-3.087,-3.2286,0.0,0.0,0.0,-3.977,-4.2363,-4.3975,-4.4851,-4.5385,-4.5794,-4.6095,-4.6095,-4.554,-4.4673,-4.3875,-4.3019,-4.2105,-4.0937,-4.0159,-3.9575,-3.8992,-3.8408,-3.77,-3.6579,-3.6248,-3.5917,-3.4517,-3.3933,-3.3563,-3.2992,-3.2623,-3.2428,-3.2428,-3.2435,-3.2285,-3.1701,-3.159,-3.1415,-3.0831,-3.0734,-3.0734,0.0,-3.073,-3.1145,-3.2252,-3.2344,-3.3113,-3.5078,-3.601,-3.6928,-3.799,-3.9639,-4.0947,-4.1714,-4.4058,-4.5898,-4.6963,-4.8285,-5.0133,-5.2582,-5.2456,-5.3135,-5.4692,-5.451,-5.4287,-5.4091,-5.4019,-5.3831,-5.3499,-5.3499,-5.3318,-5.2999,-5.2868,-5.2698,-5.2608,-5.2387,-5.236,-5.2623,-5.3634,-5.413,-5.4421,-2.8691,0.0,0.0,0.0,0.0,0.0,-3.5701,-3.6774,-3.8258,0.0,-4.1908,0.0,-4.4431,0.0,-4.6566,0.0,-4.68,-4.687,-4.6283,-4.4631,0.0,-4.3587,-4.1655,-4.0189,-3.9315,-3.7605,-3.5624,-3.3351,-3.2186,-3.0877,-2.9458,-2.9729,-2.985,-2.9904,-3.159,-3.3112,-3.4555,-3.6018,-3.8246,-4.1036,-4.3641,-4.4916,-4.5287,-4.5802,-4.6026,-4.6066,-4.6066,-4.5706,-4.5055,-4.3946,-4.3188,-4.2527,-4.1341,-4.0582,-4.0077,-3.9785,-3.9299,-3.8677,-3.7802,-3.7568,-3.7296,-3.6227,-3.5721,-3.5254,-3.4392,-3.3944,-3.3653,-3.3361,-3.329,-3.3122,-3.2558,-3.2214,-3.1812,-3.1248,-3.0898,-3.0697,0.0,-3.0691,-3.069,-3.0603,-3.0602,-3.137,-3.3316,-3.4513,-3.5512,-3.6312,-3.8169,-3.9615,-4.0444,-4.2772,-4.4691,-4.6144,-4.7697,-4.9548,-5.1706,-5.218,-5.3043,-5.4239,-5.4425,-5.4356,-5.4091,-5.4073,-5.3851,-5.3499,-5.3499,-5.3318,-5.2999,-5.2868,-5.2698,-5.2563,-5.2322,-5.215,-5.2192,-5.2852,-5.3367,-5.3779,-2.9629,-3.0527,0.0,0.0,-3.3151,-3.5089,-3.6033,-3.8277,-4.021,0.0,-4.3489,-4.5371,-4.6187,-4.7084,-4.7969,-4.8794,-4.8865,-4.8838,-4.8766,-4.7172,0.0,0.0,-4.3763,-4.1995,-4.1179,-3.9431,-3.7664,-3.5935,-3.4245,-3.2897,-3.1883,-3.1127,-3.0696,-3.0673,-3.2348,0.0,-3.4631,-3.7207,-3.9309,-4.1149,-4.3738,-4.5254,-4.6003,-4.6005,-4.5997,-4.5997,-4.5997,-4.5958,-4.5686,-4.4054,-4.3471,-4.3141,-4.1432,-4.0907,-4.0752,-3.9975,-3.9761,-3.9567,-3.8693,-3.846,-3.8441,-3.8402,-3.7761,-3.6945,-3.6101,-3.5274,-3.4478,-3.3701,-3.3541,-3.3536,-3.3439,-3.2753,-3.2162,-3.2084,-3.132,-3.0749,-3.0711,-3.0703,-3.068,-3.0614,-3.0591,-3.0933,-3.1757,-3.3306,-3.4618,-3.5418,-3.6254,-3.7795,-4.0249,-4.1161,-4.2756,-4.5264,-4.6899,-4.8486,-5.0089,-5.1684,-5.2798,-5.3409,-5.4277,-5.4491,-5.4127,-5.4091,-5.3907,-5.3481,-5.3499,-5.3318,-5.2999,-5.285,-5.2698,-5.2545,-5.2209,-5.2102,-5.2143,-5.2767,-5.3192,-5.3439,-3.2383,-3.3652,-3.4687,0.0,-3.524,-3.6387,-3.8492,-3.9937,-4.1537,-4.3723,-4.5102,-4.6221,-4.7064,-4.8515,-4.9491,-4.9683,-4.9683,-4.9687,-4.9672,-4.8642,-4.802,-4.795,-4.6065,-4.4909,-4.4695,-4.1781,-3.9431,-3.7722,-3.5996,-3.4038,-3.1898,-3.1687,-3.1234,-3.0665,-3.2348,-3.3944,-3.5491,-3.7417,-3.9964,-4.2892,-4.4814,-4.5762,-4.5991,-4.6003,-4.6005,-4.5997,-4.5997,-4.5608,-4.4948,-4.386,-4.3063,-4.2345,-4.1257,-4.0907,-4.0869,-4.0655,-4.0597,-4.0402,-3.9587,-3.9373,-3.9217,-3.8557,-3.8199,-3.7928,-3.7714,-3.7501,-3.7268,-3.7055,-3.7053,-3.6681,-3.5399,-3.4972,-3.4416,-3.3172,-3.2186,-3.1382,-3.0773,-3.0692,-3.0687,-3.0621,-3.0604,-3.0701,-3.0905,-3.1874,-3.2791,-3.3612,-3.5058,-3.671,-3.8531,-4.0526,-4.2506,-4.4442,-4.6636,-4.851,-5.0089,-5.1756,-5.2883,-5.3501,-5.4308,-5.4576,-5.4321,-5.4163,-5.3944,-5.3717,-5.3561,-5.3378,-5.3127,-5.2912,-5.2698,-5.2545,-5.2209,-5.1907,-5.1675,-5.1736,-5.1776,-5.1775,-3.3398,-3.4803,0.0,-3.7512,-3.7992,-3.8707,-4.0151,-4.142,-4.304,-4.5285,-4.6269,-4.7255,-4.8508,-4.9504,-5.0231,-5.0541,-5.0579,-5.0564,-5.0539,-4.9732,-4.9246,-4.9163,-4.7492,-4.6385,-4.6016,-4.3394,-4.1014,-3.8917,-3.721,-3.5029,-3.2462,-3.2076,-3.1438,-3.0675,0.0,-3.4079,-3.5916,-3.9088,-4.1557,-4.3505,-4.5215,-4.5919,0.0,-4.5991,-4.6003,-4.5947,-4.5608,-4.5181,-4.4676,-4.3802,-4.2928,-4.2053,-4.116,-4.0907,-4.0907,-4.0907,-4.0898,-4.0791,-4.0345,-4.0199,-4.0053,-3.9578,-3.9422,-3.9296,-3.8947,-3.8869,-3.8753,-3.8384,-3.8317,-3.8064,-3.7065,-3.6269,-3.5202,-3.3533,-3.2807,-3.2042,-3.0823,-3.0662,-3.0905,-3.1602,-3.169,-3.1545,-3.1158,-3.1536,-3.2134,-3.2937,-3.4268,-3.5901,-3.7892,-3.9586,-4.1471,-4.356,-4.5969,-4.7789,-4.9004,-5.1402,-5.274,-5.3002,-5.4138,-5.4576,-5.439,-5.4198,-5.3981,-5.3813,-5.3579,-5.3418,-5.3212,-5.2937,-5.2761,-5.2654,-5.2275,-5.1808,-5.1402,-5.135,-5.1193,-5.1122,-3.4082,0.0,0.0,0.0,-4.0918,-4.1654,-4.1752,-4.306,-4.4621,-4.6261,-4.7264,-4.8421,-4.9931,-5.0186,-5.0536,-5.1242,-5.13,-5.1276,-5.1191,-5.0549,-5.014,-5.0068,-4.8502,-4.724,-4.6366,-4.4598,-4.2451,-3.9937,-3.8132,-3.5921,-3.3335,-3.2474,-3.1584,0.0,0.0,0.0,0.0,-4.1235,-4.3305,-4.344,-4.5183,-4.5893,-4.5906,-4.5968,-4.5933,-4.5739,-4.5034,-4.4715,-4.4501,-4.3627,-4.2753,-4.1898,-4.114,-4.0907,-4.0907,-4.0907,-4.0908,-4.0897,-4.0897,-4.0925,-4.0962,-4.0962,-4.1059,-4.0931,-4.0234,-4.0079,-3.9865,-3.911,-3.8965,-3.8907,-3.8674,-3.722,-3.5534,-3.3944,-3.3702,-3.3054,-3.1206,-3.0926,-3.1555,-3.3239,-3.3432,0.0,-3.2068,-3.1874,-3.2134,-3.2937,-3.3708,-3.5265,-3.7853,-3.8703,-4.0264,-4.2813,-4.5243,-4.6835,-4.7596,-5.0926,-5.2512,-5.2351,-5.3943,-5.4608,-5.4424,-5.4198,-5.4018,-5.3851,-5.3619,-5.344,-5.3318,-5.298,-5.2761,-5.2672,-5.2275,-5.179,-5.1298,-5.1298,-5.1264,-5.1139,-3.7682,0.0,0.0,0.0,-4.2786,-4.4563,-4.5285,-4.5656,-4.6202,-4.7237,-4.8703,-4.9761,-5.0068,-5.0686,-5.1145,-5.1281,-5.1304,-5.1258,-5.1191,-5.1074,-5.0984,-5.0969,-4.9978,-4.9046,-4.8153,-4.5802,-4.3636,-4.1742,-3.9296,-3.6745,-3.4158,-3.3306,-3.2416,0.0,0.0,0.0,-3.8005,-4.1719,-4.3305,-4.346,-4.5137,-4.5847,-4.5906,-4.5906,-4.5505,-4.4909,-4.4769,-4.4286,-4.3588,-4.2714,-4.184,-4.1102,-4.0946,-4.0907,-4.0907,-4.0898,-4.0907,-4.0897,-4.0837,-4.133,-4.1873,-4.1873,-4.2373,-4.2826,-4.2691,-4.2652,-4.2613,-4.2458,-4.247,-4.2075,-4.0621,-3.8984,-3.7511,-3.6493,-3.6328,-3.5484,-3.3083,-3.2705,-3.3304,-3.5029,-3.5241,-3.4612,-3.3035,-3.2212,-3.2134,-3.2937,-3.3149,-3.4629,-3.7834,-3.8703,-4.0264,-4.2813,-4.5243,-4.6835,-4.7596,-5.0926,-5.2539,-5.239,-5.3974,-5.4673,-5.466,-5.4268,-5.4091,-5.4018,-5.3793,-5.3598,-5.344,-5.3109,-5.2672,-5.2228,-5.2132,-5.179,-5.1298,-5.1298,-5.1529,-5.1821,-4.0405,0.0,0.0,0.0,-4.4836,-4.6105,-4.7393,-4.7978,-4.8424,-4.8849,-4.9591,-5.0263,-5.068,-5.1062,-5.13,-5.13,-5.1304,-5.1278,-5.1191,-5.121,-5.1197,-5.1202,-5.0367,-4.9493,-4.8619,-4.651,-4.4353,-4.2147,-3.9982,-3.7596,-3.5067,-3.4186,-3.3305,-3.2541,0.0,-3.6245,-3.8431,-4.1854,-4.3305,-4.346,-4.5123,-4.5814,-4.5847,-4.5893,-4.5383,-4.4582,-4.4172,-4.3497,-4.2722,-4.2335,-4.1626,-4.0907,-4.0908,-4.0908,-4.0898,-4.0858,-4.1167,-4.1513,-4.1482,-4.209,-4.2717,-4.2717,-4.3015,-4.3292,-4.3292,-4.3292,-4.3292,-4.3292,-4.3324,-4.2937,-4.1659,-4.0432,-3.9309,-3.8438,-3.7912,-3.7185,-3.5974,-3.577,-3.6389,-3.8136,-3.6748,-3.5314,-3.4483,-3.3611,-3.3261,-3.3651,-3.3639,-3.4892,-3.7834,-3.83,-3.9842,-4.2794,-4.4842,-4.6415,-4.7596,-5.0507,-5.2121,-5.2419,-5.352,-5.4258,-5.4692,-5.4375,-5.4146,-5.4091,-5.3851,-5.3676,-5.3459,-5.3066,-5.2627,-5.2198,-5.215,-5.179,-5.1298,-5.1298,-5.1617,-5.1959,-4.2666,-4.3095,0.0,-4.6179,-4.6729,-4.7334,-4.8857,-4.9657,-5.0102,-5.0108,-5.0254,-5.0608,-5.1239,-5.1296,-5.13,-5.1292,-5.1295,-5.1249,-5.1201,-5.12,-5.1206,-5.1202,-5.0542,-4.9687,-4.8619,-4.7082,-4.499,-4.2388,-4.0629,-3.8465,-3.5936,-3.5085,-3.4311,-3.377,-3.6323,-3.7947,-3.8953,-4.2009,-4.3421,-4.3711,-4.52,-4.58,-4.5794,-4.5667,-4.5086,-4.4215,-4.34,-4.2559,-4.1834,-4.1888,-4.1461,-4.0888,-4.0888,-4.1013,-4.1139,-4.1098,-4.1683,-4.2356,-4.2356,-4.295,-4.3576,-4.3576,-4.3711,-4.3827,-4.3827,-4.3827,-4.3827,-4.3827,-4.3711,-4.3363,-4.2686,-4.1874,-4.11,-4.0404,-3.9714,-3.9141,-3.88,-3.8742,-3.9238,-4.0609,-3.8337,-3.6446,-3.5917,-3.5225,-3.4738,-3.4576,-3.4327,-3.5303,-3.7853,-3.7951,-3.9457,-4.2774,-4.4459,-4.6034,-4.7577,-5.0127,-5.1741,-5.2419,-5.3074,-5.3862,-5.4692,-5.4428,-5.4254,-5.4091,-5.3926,-5.3697,-5.34,-5.298,-5.2645,-5.234,-5.2132,-5.179,-5.142,-5.1475,-5.1864,-5.2277,-4.4563,0.0,-4.6257,-4.7295,-4.8076,-4.8896,-4.9833,-5.0048,-5.0102,-5.0108,-5.0801,-5.1271,-5.1297,-5.1296,-5.1292,-5.1295,-5.1249,-5.1201,-5.12,-5.1206,-5.1202,-5.1202,-5.1125,-5.0309,-4.8638,-4.7672,-4.5902,-4.3269,-4.1528,-3.9325,-3.6767,-3.5955,-3.553,-3.5568,-3.8121,-3.9727,-4.0674,-4.2512,-4.3769,-4.4562,-4.5432,-4.58,-4.5722,-4.5007,-4.4175,-4.3318,-4.2511,-4.1652,-4.0928,-4.0923,-4.0876,-4.0818,-4.0818,-4.135,-4.1978,-4.1993,-4.2543,-4.3189,-4.3183,-4.3827,-4.4485,-4.4485,-4.5026,-4.5568,-4.5568,-4.5568,-4.5568,-4.5568,-4.4987,-4.4446,-4.4369,-4.3653,-4.3021,-4.2883,-4.2786,-4.2218,-4.0757,-4.0545,-4.0574,-4.0607,-4.0331,-3.9212,-3.6922,-3.6614,-3.6234,-3.5457,-3.4655,-3.5303,-3.7853,-3.7951,-3.9457,-4.2774,-4.4459,-4.6034,-4.7577,-5.0127,-5.1741,-5.2419,-5.3074,-5.3862,-5.4692,-5.4428,-5.4254,-5.4091,-5.4019,-5.3736,-5.33,-5.2937,-5.269,-5.2452,-5.2198,-5.1938,-5.1729,-5.2112,-5.273,-5.3285,-4.7159,-4.7588,-4.8076,-4.8954,-4.9364,-4.9872,-5.075,-5.0887,-5.0879,-5.0879,-5.1185,-5.1362,-5.1316,-5.1308,-5.1292,-5.1295,-5.1249,-5.1201,-5.1189,-5.1194,-5.1202,-5.1202,-5.1202,-5.0386,-4.8638,-4.8223,-4.6751,-4.418,-4.2388,-4.0745,-3.9204,-3.7831,-3.7193,-3.729,-3.9359,-4.0462,-4.0945,-4.315,-4.4291,-4.4678,-4.5471,-4.551,-4.5045,-4.4717,-4.373,-4.2473,-4.2157,-4.1512,-4.0796,-4.0808,-4.0804,-4.0884,-4.1424,-4.1819,-4.2187,-4.2673,-4.3415,-4.4072,-4.4078,-4.4697,-4.5316,-4.5316,-4.5548,-4.58,-4.58,-4.58,-4.58,-4.58,-4.5529,-4.5316,-4.5327,-4.4597,-4.4003,-4.3921,-4.3516,-4.298,-4.2333,-4.2236,-4.1812,-4.0675,-4.054,-3.9962,-3.8444,-3.7839,-3.7368,-3.7035,-3.6194,-3.6372,-3.7847,-3.8876,-4.0456,-4.2757,-4.4917,-4.653,-4.7596,-4.9613,-5.1228,-5.2419,-5.2624,-5.3433,-5.4673,-5.451,-5.4303,-5.4091,-5.3813,-5.3579,-5.34,-5.298,-5.2717,-5.2536,-5.2228,-5.1956,-5.1675,-5.1739,-5.243,-5.3394,-4.9095,-4.9208,-4.9462,-5.034,-5.0477,-5.0692,-5.1316,-5.1394,-5.1406,-5.14,-5.1394,-5.1362,-5.13,-5.1292,-5.1284,-5.1267,-5.124,-5.121,-5.1197,-5.1194,-5.1202,-5.1202,-5.1202,-5.0503,-4.9007,-4.8677,-4.7378,-4.5072,-4.3537,-4.2202,-4.1119,-3.9881,-3.9321,-3.9379,-4.0868,-4.168,-4.2048,-4.3846,-4.4736,-4.5007,-4.5568,-4.5316,-4.4581,-4.433,-4.3285,-4.197,-4.1738,-4.1274,-4.0829,-4.1061,-4.1156,-4.1257,-4.1872,-4.2421,-4.2944,-4.3518,-4.4291,-4.4949,-4.4949,-4.5374,-4.58,-4.58,-4.58,-4.58,-4.58,-4.58,-4.58,-4.5786,-4.5805,-4.5791,-4.5781,-4.5263,-4.4843,-4.4797,-4.4299,-4.3933,-4.3898,-4.3914,-4.3416,-4.2148,-4.1112,-4.0288,-3.9706,-3.8869,-3.8277,-3.7993,-3.7877,-3.8074,-3.8639,-3.9744,-4.1358,-4.3503,-4.547,-4.6969,-4.7976,-4.9403,-5.0753,-5.2059,-5.2218,-5.301,-5.4314,-5.4359,-5.4284,-5.4091,-5.3678,-5.3499,-5.344,-5.298,-5.2743,-5.2608,-5.2275,-5.1987,-5.1826,-5.1685,-5.2413,-5.3432,-4.9938,-5.0087,-5.036,-5.1238,-5.1375,-5.1394,-5.1394,-5.1394,-5.1406,-5.14,-5.1394,-5.1362,-5.13,-5.1304,-5.1267,-5.1219,-5.1201,-5.1197,-5.1202,-5.1202,-5.1202,-5.1202,-5.1202,-5.0794,-4.9901,-4.8968,-4.7669,-4.5983,-4.5028,-4.3692,-4.199,-4.1951,-4.1951,-4.199,-4.2879,-4.375,-4.4562,-4.4601,-4.5065,-4.578,-4.58,-4.5316,-4.4523,-4.3634,-4.2763,-4.1893,-4.11,-4.081,-4.0906,-4.1719,-4.199,-4.199,-4.199,-4.3189,-4.4581,-4.4581,-4.5142,-4.578,-4.578,-4.578,-4.58,-4.58,-4.58,-4.58,-4.58,-4.58,-4.58,-4.5795,-4.58,-4.5781,-4.5715,-4.568,-4.57,-4.569,-4.569,-4.5654,-4.5584,-4.5582,-4.5563,-4.5524,-4.2549,-4.0495,-4.0489,-3.9758,-3.8896,-3.797,-3.9503,-4.0463,-4.0463,-4.036,-4.1857,-4.5244,-4.6101,-4.7274,-4.8871,-4.9689,-5.0487,-5.1225,-5.1935,-5.2689,-5.3447,-5.3893,-5.4091,-5.4091,-5.3678,-5.3499,-5.344,-5.298,-5.2806,-5.2761,-5.2275,-5.2102,-5.2143,-5.234,-5.2909,-5.3651,-5.0935,-5.0981,-5.1063,-5.1355,-5.1394,-5.1394,-5.1394,-5.1394,-5.1406,-5.14,-5.1394,-5.1362,-5.13,-5.1304,-5.1258,-5.122,-5.119,-5.1197,-5.1202,-5.1202,-5.1202,-5.1202,-5.1202,-5.0794,-4.992,-4.9555,-4.8528,-4.6816,-4.5925,-4.4589,-4.2899,-4.2899,-4.2899,-4.2918,-4.3808,-4.4349,-4.4639,-4.5181,-4.5568,-4.5742,-4.52,-4.4465,-4.3614,-4.2744,-4.1893,-4.1139,-4.0887,-4.1139,-4.1661,-4.1912,-4.2783,-4.3769,-4.3769,-4.4156,-4.4717,-4.5258,-4.5587,-4.58,-4.58,-4.58,-4.58,-4.58,-4.58,-4.58,-4.58,-4.5805,-4.5795,-4.5815,-4.5765,-4.5735,-4.5706,-4.5706,-4.569,-4.564,-4.564,-4.5622,-4.5603,-4.5603,-4.5603,-4.5601,-4.4641,-4.3544,-4.2374,-4.1995,-4.1709,-4.1404,-4.1796,-4.1586,-4.0436,-4.2546,-4.4249,-4.5298,-4.7201,-4.8429,-4.8909,-4.9638,-5.0415,-5.1206,-5.1443,-5.2189,-5.3428,-5.3893,-5.4091,-5.4091,-5.3678,-5.3499,-5.344,-5.298,-5.2806,-5.2761,-5.2275,-5.2102,-5.2071,-5.1772,-5.213,-5.2855,-5.1406,-5.14,-5.1402,-5.1394,-5.1394,-5.1394,-5.1394,-5.139,-5.1401,-5.14,-5.1388,-5.1356,-5.13,-5.1276,-5.1249,-5.1201,-5.1189,-5.1206,-5.1202,-5.1202,-5.1202,-5.1202,-5.1202,-5.095,-5.0406,-4.9994,-4.9259,-4.8173,-4.6952,-4.5634,-4.4233,-4.4233,-4.4233,-4.4253,-4.4813,-4.5045,-4.5084,-4.5587,-4.58,-4.5722,-4.4929,-4.4078,-4.3208,-4.2338,-4.1506,-4.079,-4.079,-4.1313,-4.2048,-4.2376,-4.344,-4.4659,-4.4968,-4.5045,-4.5142,-4.5645,-4.58,-4.58,-4.58,-4.58,-4.58,-4.58,-4.58,-4.58,-4.5805,-4.6047,-4.6268,-4.6217,-4.6452,-4.6632,-4.66,-4.66,-4.6583,-4.6547,-4.6278,-4.597,-4.5645,-4.5605,-4.5603,-4.5601,-4.5565,-4.5124,-4.409,-4.367,-4.3578,-4.3885,-4.4097,-4.3752,-4.268,-4.4363,-4.5797,-4.6691,-4.8209,-4.9262,-4.9841,-5.0259,-5.0738,-5.1206,-5.1131,-5.1884,-5.3365,-5.354,-5.3811,-5.4091,-5.3736,-5.3558,-5.3459,-5.3109,-5.2893,-5.2761,-5.2369,-5.2198,-5.2054,-5.1589,-5.1863,-5.2431,-5.1406,-5.1404,-5.1394,-5.1398,-5.1394,-5.1394,-5.1394,-5.1406,-5.1391,-5.1394,-5.1343,-5.1303,-5.13,-5.1239,-5.1201,-5.12,-5.1206,-5.1202,-5.1202,-5.1202,-5.1202,-5.1202,-5.1202,-5.1202,-5.1202,-5.0343,-4.986,-4.9763,-4.797,-4.6651,-4.58,-4.58,-4.58,-4.58,-4.58,-4.58,-4.58,-4.58,-4.58,-4.5722,-4.491,-4.4059,-4.3208,-4.226,-4.1448,-4.081,-4.0848,-4.139,-4.2222,-4.3092,-4.3982,-4.4813,-4.5548,-4.58,-4.58,-4.58,-4.58,-4.58,-4.58,-4.58,-4.58,-4.5877,-4.5935,-4.596,-4.5969,-4.6611,-4.7124,-4.702,-4.7621,-4.8179,-4.8105,-4.8105,-4.8105,-4.8105,-4.7471,-4.6664,-4.5742,-4.5607,-4.5643,-4.574,-4.5664,-4.5609,-4.5668,-4.494,-4.4767,-4.5532,-4.6258,-4.6677,-4.6672,-4.6023,-4.6729,-4.9098,-4.9162,-4.991,-5.1452,-5.1418,-5.1299,-5.1159,-5.1053,-5.1763,-5.3207,-5.2981,-5.3344,-5.4091,-5.3811,-5.3598,-5.3499,-5.3295,-5.3042,-5.2761,-5.2572,-5.234,-5.2054,-5.179,-5.2001,-5.2307,-5.1406,-5.1404,-5.1394,-5.1398,-5.1394,-5.1394,-5.1394,-5.1406,-5.1391,-5.1394,-5.1343,-5.1303,-5.13,-5.1239,-5.1211,-5.1201,-5.1197,-5.1202,-5.1202,-5.1202,-5.1202,-5.1202,-5.1202,-5.1202,-5.1202,-5.0977,-5.0409,-4.9485,-4.794,-4.6698,-4.58,-4.58,-4.58,-4.58,-4.58,-4.58,-4.58,-4.58,-4.58,-4.5703,-4.4711,-4.3885,-4.315,-4.1641,-4.0965,-4.0868,-4.1506,-4.226,-4.3131,-4.4001,-4.4833,-4.5548,-4.5742,-4.58,-4.58,-4.58,-4.58,-4.58,-4.58,-4.58,-4.5955,-4.6631,-4.7255,-4.7708,-4.7712,-4.7838,-4.7925,-4.7908,-4.8026,-4.8124,-4.8105,-4.8105,-4.8105,-4.8105,-4.7952,-4.7299,-4.5802,-4.5591,-4.607,-4.73,-4.7415,-4.7377,-4.7414,-4.7181,-4.7101,-4.7293,-4.7442,-4.7799,-4.8449,-4.8842,-4.931,-4.9902,-5.052,-5.1281,-5.2235,-5.2172,-5.1765,-5.1064,-5.1609,-5.2027,-5.2309,-5.2701,-5.3344,-5.4091,-5.3811,-5.3598,-5.3499,-5.3295,-5.3042,-5.2761,-5.2572,-5.234,-5.2054,-5.179,-5.1714,-5.1757,-5.1406,-5.1404,-5.1394,-5.1398,-5.1394,-5.1394,-5.1394,-5.1401,-5.1405,-5.1394,-5.1336,-5.1296,-5.13,-5.1239,-5.1211,-5.1211,-5.1197,-5.1202,-5.1202,-5.1202,-5.1202,-5.1202,-5.1202,-5.1202,-5.1202,-5.1202,-5.0479,-4.8981,-4.8186,-4.7119,-4.58,-4.58,-4.58,-4.58,-4.58,-4.58,-4.58,-4.58,-4.58,-4.5722,-4.4755,-4.3943,-4.3169,-4.1854,-4.1351,-4.1409,-4.1835,-4.2821,-4.3982,-4.4446,-4.5123,-4.58,-4.58,-4.58,-4.58,-4.58,-4.58,-4.58,-4.58,-4.609,-4.6593,-4.7448,-4.7979,-4.8276,-4.8263,-4.854,-4.8776,-4.8739,-4.9047,-4.9298,-4.9298,-4.9298,-4.9298,-4.9298,-4.8952,-4.851,-4.801,-4.7242,-4.7338,-4.8951,-4.9104,-4.891,-4.8541,-4.8458,-4.878,-4.9545,-4.9557,-4.9877,-5.0694,-5.1147,-5.1179,-5.0817,-5.1516,-5.2273,-5.3081,-5.2968,-5.2624,-5.2092,-5.2095,-5.2247,-5.2475,-5.276,-5.3308,-5.4037,-5.3831,-5.3676,-5.3499,-5.3378,-5.317,-5.285,-5.269,-5.248,-5.2246,-5.1987,-5.174,-5.161,-5.1406,-5.1403,-5.1394,-5.1398,-5.1394,-5.1394,-5.1394,-5.1391,-5.1394,-5.1394,-5.1342,-5.13,-5.13,-5.1239,-5.1211,-5.1211,-5.1197,-5.1202,-5.1202,-5.1202,-5.1202,-5.1202,-5.1202,-5.1202,-5.1202,-5.1066,-5.0227,-4.8651,-4.8418,-4.7448,-4.5814,-4.5814,-4.58,-4.58,-4.58,-4.58,-4.58,-4.58,-4.58,-4.5722,-4.4794,-4.404,-4.3401,-4.2434,-4.2125,-4.2202,-4.2357,-4.3343,-4.462,-4.4736,-4.5239,-4.58,-4.58,-4.58,-4.58,-4.58,-4.5877,-4.5993,-4.5993,-4.6728,-4.7642,-4.8327,-4.8601,-4.8665,-4.86,-4.916,-4.9662,-4.9625,-5.0183,-5.0702,-5.0702,-5.0702,-5.0702,-5.0702,-5.0067,-4.9836,-5.0605,-4.9412,-4.8951,-5.0293,-5.0598,-5.0361,-4.9609,-4.9599,-5.0245,-5.1677,-5.1768,-5.203,-5.2666,-5.2812,-5.2565,-5.1879,-5.2395,-5.31,-5.3946,-5.3781,-5.3584,-5.3359,-5.258,-5.2489,-5.2997,-5.2931,-5.3291,-5.3982,-5.3869,-5.3697,-5.3499,-5.3499,-5.3277,-5.2999,-5.285,-5.269,-5.2452,-5.2246,-5.1938,-5.169,-5.1408,-5.1391,-5.1394,-5.1398,-5.1394,-5.1394,-5.1394,-5.1391,-5.1394,-5.1394,-5.1342,-5.13,-5.13,-5.1239,-5.1211,-5.1211,-5.1197,-5.1202,-5.1202,-5.1202,-5.1202,-5.1202,-5.1202,-5.1202,-5.1202,-5.0484,-4.985,-4.9341,-4.8031,-4.6888,-4.5893,-4.5833,-4.58,-4.58,-4.58,-4.58,-4.58,-4.58,-4.58,-4.5664,-4.4123,-4.3871,-4.4253,-4.2924,-4.2692,-4.3189,-4.3924,-4.4369,-4.4697,-4.5374,-4.5703,-4.58,-4.58,-4.58,-4.58,-4.58,-4.6322,-4.6902,-4.6902,-4.8063,-4.9305,-4.9389,-4.9917,-5.0387,-5.0334,-5.0413,-5.051,-5.0491,-5.0606,-5.0702,-5.0702,-5.0702,-5.0702,-5.0702,-5.0528,-5.0469,-5.0661,-5.037,-5.0193,-5.0301,-5.1568,-5.2177,-5.1606,-5.1969,-5.2327,-5.2594,-5.2564,-5.2571,-5.2686,-5.3305,-5.3565,-5.3432,-5.3546,-5.3936,-5.464,-5.4609,-5.4157,-5.3333,-5.3169,-5.3053,-5.2997,-5.2931,-5.3291,-5.4,-5.3811,-5.3637,-5.3499,-5.3359,-5.3193,-5.2999,-5.285,-5.269,-5.2498,-5.2311,-5.2102,-5.1858,-5.1391,-5.1408,-5.1405,-5.1394,-5.1394,-5.1394,-5.1394,-5.1391,-5.1394,-5.1394,-5.1342,-5.13,-5.13,-5.1239,-5.1211,-5.1211,-5.1197,-5.1202,-5.1202,-5.1202,-5.1202,-5.1202,-5.1202,-5.1202,-5.1202,-5.0348,-4.9598,-4.9031,-4.7811,-4.6745,-4.5893,-4.5827,-4.58,-4.58,-4.58,-4.58,-4.58,-4.58,-4.58,-4.5722,-4.4968,-4.4529,-4.4316,-4.3813,-4.3697,-4.3852,-4.4407,-4.4891,-4.5297,-4.5664,-4.58,-4.58,-4.58,-4.58,-4.5877,-4.6361,-4.6786,-4.7289,-4.8256,-4.9088,-4.9788,-5.0149,-5.052,-5.0775,-5.0721,-5.0702,-5.0702,-5.0702,-5.0702,-5.0702,-5.0702,-5.0702,-5.0702,-5.0702,-5.0643,-5.0602,-5.0581,-5.0558,-5.0451,-5.0325,-5.1763,-5.282,-5.2905,-5.2867,-5.2977,-5.3454,-5.3436,-5.3556,-5.3968,-5.4277,-5.442,-5.4391,-5.4391,-5.4522,-5.4799,-5.4767,-5.4484,-5.3959,-5.3879,-5.3759,-5.3601,-5.3513,-5.3628,-5.3907,-5.3773,-5.3598,-5.3499,-5.3359,-5.3235,-5.3103,-5.2868,-5.2735,-5.2599,-5.2405,-5.2168,-5.2005,-5.1394,-5.1405,-5.1394,-5.1394,-5.1394,-5.1394,-5.139,-5.1391,-5.1394,-5.1388,-5.1323,-5.13,-5.1292,-5.1239,-5.1211,-5.1201,-5.1197,-5.1202,-5.1202,-5.1202,-5.1202,-5.1202,-5.1202,-5.1202,-5.1202,-5.0153,-4.9268,-4.8604,-4.7462,-4.6552,-4.5906,-4.5827,-4.58,-4.58,-4.58,-4.58,-4.58,-4.58,-4.58,-4.58,-4.58,-4.5316,-4.4587,-4.4794,-4.4755,-4.4587,-4.4813,-4.5278,-4.58,-4.58,-4.58,-4.58,-4.58,-4.58,-4.5974,-4.6844,-4.7386,-4.8005,-4.9339,-4.9842,-5.0117,-5.0673,-5.081,-5.0775,-5.0721,-5.0702,-5.0741,-5.0933,-5.0971,-5.1029,-5.1241,-5.1279,-5.1279,-5.1259,-5.12,-5.1003,-5.0574,-5.047,-5.0421,-5.0307,-5.2136,-5.3599,-5.4058,-5.3689,-5.3683,-5.4352,-5.4313,-5.4501,-5.5056,-5.5028,-5.4941,-5.4901,-5.4871,-5.4841,-5.4786,-5.4705,-5.459,-5.4472,-5.4359,-5.4235,-5.4091,-5.4019,-5.3907,-5.3774,-5.3676,-5.3598,-5.344,-5.3336,-5.3212,-5.3121,-5.2912,-5.2761,-5.2717,-5.2434,-5.2246,-5.212,-5.1398,-5.1394,-5.1394,-5.1394,-5.1394,-5.139,-5.1401,-5.1405,-5.1388,-5.1317,-5.1296,-5.1292,-5.1295,-5.1249,-5.1201,-5.12,-5.1206,-5.1202,-5.1202,-5.1202,-5.1202,-5.1202,-5.1202,-5.1202,-5.1202,-4.9551,-4.8658,-4.8599,-4.6853,-4.5963,-4.5905,-4.5841,-4.58,-4.58,-4.58,-4.58,-4.58,-4.58,-4.58,-4.58,-4.58,-4.5742,-4.5684,-4.5703,-4.5703,-4.5684,-4.5703,-4.5742,-4.58,-4.58,-4.58,-4.58,-4.58,-4.58,-4.5974,-4.6844,-4.8237,-4.9533,-4.9668,-5.0248,-5.0813,-5.088,-5.0846,-5.0793,-5.072,-5.0702,-5.0914,-5.1664,-5.1818,-5.2068,-5.2876,-5.3029,-5.3009,-5.2927,-5.2883,-5.2276,-5.0726,-5.0388,-5.0302,-5.0302,-5.3225,-5.5224,-5.5262,-5.5237,-5.525,-5.5307,-5.5119,-5.5037,-5.5094,-5.4971,-5.4901,-5.4901,-5.4829,-5.4786,-5.4723,-5.459,-5.4472,-5.4409,-5.4324,-5.4235,-5.4091,-5.4019,-5.3888,-5.3695,-5.3558,-5.344,-5.3318,-5.323,-5.3146,-5.2999,-5.2868,-5.2698,-5.2608,-5.2526,-5.234,-5.221,-5.1394,-5.1394,-5.1394,-5.1394,-5.1394,-5.139,-5.1401,-5.1405,-5.1388,-5.1317,-5.1296,-5.1292,-5.1295,-5.1249,-5.1201,-5.1189,-5.1206,-5.1202,-5.1202,-5.1202,-5.1202,-5.1202,-5.1202,-5.1202,-5.1202,-4.9493,-4.8599,-4.8599,-4.6837,-4.5949,-4.5905,-4.5867,-4.5847,-4.58,-4.58,-4.58,-4.58,-4.58,-4.58,-4.58,-4.58,-4.58,-4.58,-4.58,-4.58,-4.58,-4.58,-4.58,-4.58,-4.58,-4.58,-4.58,-4.58,-4.6167,-4.6883,-4.8295,-4.9533,-5.0442,-5.0442,-5.0674,-5.089,-5.0897,-5.0846,-5.0793,-5.072,-5.1087,-5.1529,-5.1856,-5.2337,-5.2818,-5.3145,-5.3203,-5.3182,-5.3119,-5.3034,-5.2778,-5.215,-5.1926,-5.2264,-5.3339,-5.4606,-5.5396,-5.5409,-5.5403,-5.5358,-5.5294,-5.5168,-5.5066,-5.5057,-5.4941,-5.4871,-5.4829,-5.4767,-5.4723,-5.4692,-5.459,-5.4458,-5.4324,-5.4235,-5.4128,-5.4037,-5.3869,-5.3773,-5.3674,-5.3459,-5.3359,-5.3277,-5.3127,-5.306,-5.2999,-5.2743,-5.2635,-5.259,-5.2526,-5.2665,-5.2875,-5.1394,-5.1394,-5.1394,-5.1394,-5.139,-5.1406,-5.1391,-5.138,-5.1343,-5.1303,-5.1308,-5.1284,-5.1278,-5.123,-5.121,-5.1197,-5.1194,-5.1202,-5.1202,-5.1202,-5.1202,-5.1202,-5.1202,-5.1202,-5.1202,-4.9493,-4.8599,-4.8599,-4.6849,-4.598,-4.5929,-4.5919,-4.588,-4.5827,-4.5814,-4.58,-4.58,-4.58,-4.58,-4.58,-4.58,-4.58,-4.58,-4.58,-4.58,-4.58,-4.58,-4.58,-4.58,-4.58,-4.58,-4.5838,-4.6109,-4.698,-4.8121,-4.9223,-5.019,-5.0906,-5.0906,-5.0906,-5.089,-5.0913,-5.0844,-5.087,-5.1104,-5.153,-5.2068,-5.2606,-5.3203,-5.3683,-5.3933,-5.3991,-5.397,-5.3923,-5.384,-5.3794,-5.3757,-5.367,-5.4046,-5.5256,-5.539,-5.5409,-5.5403,-5.5403,-5.5339,-5.5203,-5.5149,-5.5066,-5.4971,-5.4931,-5.4871,-5.4799,-5.4736,-5.4673,-5.4641,-5.4524,-5.439,-5.4308,-5.4146,-5.4073,-5.3982,-5.3773,-5.3674,-5.3598,-5.34,-5.3258,-5.3193,-5.3085,-5.2937,-5.285,-5.2698,-5.269,-5.2852,-5.2795,-5.3129,-5.3634,-5.1394,-5.1394,-5.1394,-5.1394,-5.1406,-5.1391,-5.1394,-5.1343,-5.1303,-5.13,-5.1304,-5.1278,-5.1211,-5.121,-5.1197,-5.1202,-5.1202,-5.1202,-5.1202,-5.1202,-5.1202,-5.1202,-5.1202,-5.1202,-5.1202,-4.9493,-4.8599,-4.8599,-4.6868,-4.6011,-4.5991,-4.5932,-4.5893,-4.5893,-4.5827,-4.58,-4.58,-4.58,-4.58,-4.58,-4.58,-4.58,-4.58,-4.58,-4.58,-4.58,-4.58,-4.58,-4.58,-4.58,-4.58,-4.5955,-4.6844,-4.8295,-4.9629,-4.9305,-5.0001,-5.0906,-5.0906,-5.0906,-5.0906,-5.0906,-5.0841,-5.1024,-5.1892,-5.1992,-5.2414,-5.4126,-5.4491,-5.4741,-5.5549,-5.5703,-5.5698,-5.57,-5.5581,-5.5476,-5.5428,-5.5403,-5.5403,-5.5403,-5.5403,-5.5403,-5.5403,-5.5403,-5.5339,-5.5203,-5.5149,-5.5057,-5.4901,-5.4901,-5.4871,-5.4799,-5.4736,-5.4641,-5.4505,-5.4424,-5.4375,-5.4308,-5.4146,-5.4073,-5.4,-5.3773,-5.3616,-5.3499,-5.3359,-5.3193,-5.2999,-5.2999,-5.285,-5.259,-5.259,-5.2915,-5.3381,-5.3502,-5.3792,-5.4325,-5.1394,-5.141,-5.1401,-5.1401,-5.1391,-5.1375,-5.1343,-5.1317,-5.1303,-5.13,-5.1304,-5.1278,-5.1211,-5.121,-5.1197,-5.1202,-5.1202,-5.1202,-5.1202,-5.1202,-5.1202,-5.1202,-5.1202,-5.1202,-5.1202,-5.0095,-4.9202,-4.8599,-4.7462,-4.6596,-4.5991,-4.5937,-4.5899,-4.5893,-4.5827,-4.58,-4.58,-4.58,-4.58,-4.58,-4.58,-4.58,-4.58,-4.58,-4.58,-4.58,-4.58,-4.58,-4.5877,-4.6515,-4.6709,-4.6922,-4.8179,-4.8918,-4.9479,-5.0175,-5.0635,-5.0906,-5.0906,-5.0906,-5.0906,-5.0906,-5.088,-5.0928,-5.1141,-5.203,-5.2972,-5.349,-5.4509,-5.5415,-5.5665,-5.5703,-5.5698,-5.57,-5.5581,-5.5476,-5.5428,-5.5403,-5.5403,-5.5403,-5.5403,-5.5403,-5.5403,-5.5403,-5.5313,-5.5149,-5.5028,-5.4941,-5.4901,-5.4901,-5.486,-5.4736,-5.4723,-5.4608,-5.4424,-5.439,-5.4321,-5.4146,-5.4127,-5.4,-5.3773,-5.3637,-5.3499,-5.3359,-5.3151,-5.3085,-5.2999,-5.2806,-5.2698,-5.2645,-5.3023,-5.3297,-5.3507,-5.395,-5.455,-5.5095,-5.141,-5.1396,-5.1411,-5.1411,-5.1375,-5.1343,-5.1317,-5.1303,-5.1296,-5.1292,-5.1287,-5.124,-5.1201,-5.1208,-5.1206,-5.1202,-5.1202,-5.1202,-5.1202,-5.1202,-5.1202,-5.1202,-5.1202,-5.1202,-5.1202,-5.0348,-4.9473,-4.8599,-4.7725,-4.684,-4.5994,-4.5929,-4.5905,-4.5899,-4.5827,-4.58,-4.58,-4.58,-4.58,-4.58,-4.58,-4.58,-4.58,-4.58,-4.58,-4.58,-4.58,-4.5805,-4.5882,-4.6404,-4.7042,-4.7758,-4.8628,-4.9343,-5.0001,-5.0712,-5.0906,-5.0906,-5.0906,-5.0906,-5.0906,-5.0906,-5.0899,-5.0871,-5.0816,-5.2204,-5.3645,-5.4105,-5.4991,-5.5703,-5.5703,-5.5703,-5.5679,-5.5623,-5.5523,-5.5456,-5.5428,-5.5403,-5.5403,-5.5403,-5.5403,-5.5403,-5.5403,-5.5403,-5.5465,-5.5616,-5.5787,-5.5887,-5.5887,-5.5887,-5.5825,-5.5635,-5.5635,-5.5419,-5.4878,-5.4878,-5.4605,-5.4091,-5.4091,-5.3963,-5.3714,-5.3558,-5.344,-5.33,-5.3066,-5.2955,-5.2893,-5.2698,-5.2745,-5.3062,-5.3315,-5.3796,-5.4377,-5.4676,-5.5203,-5.5777,-5.1396,-5.1405,-5.1394,-5.1394,-5.1343,-5.1291,-5.1291,-5.1289,-5.1292,-5.1295,-5.1249,-5.1201,-5.12,-5.1206,-5.1202,-5.1202,-5.1202,-5.119,-5.119,-5.119,-5.119,-5.119,-5.119,-5.119,-5.119,-5.0406,-4.959,-4.8705,-4.7831,-4.6957,-4.6102,-4.5968,-4.5905,-4.5905,-4.5841,-4.58,-4.58,-4.58,-4.58,-4.58,-4.58,-4.5838,-4.5916,-4.5916,-4.5935,-4.5945,-4.5945,-4.6003,-4.6027,-4.6027,-4.7187,-4.8613,-4.8613,-4.9672,-5.0906,-5.0906,-5.0906,-5.0906,-5.0906,-5.0906,-5.0945,-5.1099,-5.1134,-5.1142,-5.1221,-5.2743,-5.4453,-5.5491,-5.5703,-5.5703,-5.5703,-5.5703,-5.566,-5.5527,-5.5446,-5.5399,-5.5409,-5.5403,-5.5403,-5.5403,-5.5403,-5.5403,-5.5403,-5.5434,-5.5763,-5.6445,-5.7059,-5.7403,-5.7403,-5.7403,-5.7321,-5.7106,-5.7106,-5.661,-5.5629,-5.5575,-5.5093,-5.4091,-5.4091,-5.3963,-5.3656,-5.3558,-5.34,-5.3277,-5.3066,-5.2948,-5.2915,-5.2763,-5.3116,-5.3754,-5.3682,-5.4467,-5.5556,-5.5524,-5.5884,-5.6401,-5.14,-5.1369,-5.1317,-5.1317,-5.1303,-5.1308,-5.1308,-5.1312,-5.1295,-5.1306,-5.123,-5.12,-5.1189,-5.1206,-5.1202,-5.1202,-5.1139,-5.1114,-5.1127,-5.1114,-5.1114,-5.1127,-5.1114,-5.1114,-5.1127,-5.094,-5.0416,-4.9537,-4.8671,-4.7779,-4.6918,-4.6242,-4.5906,-4.5906,-4.5827,-4.58,-4.58,-4.58,-4.58,-4.58,-4.58,-4.6206,-4.6825,-4.6825,-4.696,-4.7139,-4.7139,-4.7448,-4.7835,-4.7839,-4.8961,-5.0349,-5.0349,-5.06,-5.0906,-5.0906,-5.0906,-5.0906,-5.0906,-5.0906,-5.1235,-5.2605,-5.2942,-5.324,-5.438,-5.4998,-5.5397,-5.5645,-5.5703,-5.5703,-5.5703,-5.5703,-5.5682,-5.5673,-5.5508,-5.5404,-5.5383,-5.539,-5.5403,-5.5403,-5.5403,-5.5403,-5.5403,-5.587,-5.6492,-5.7282,-5.7381,-5.7403,-5.7403,-5.7403,-5.7321,-5.7106,-5.7106,-5.661,-5.5629,-5.5559,-5.5021,-5.4091,-5.4091,-5.3907,-5.3539,-5.3499,-5.3378,-5.3206,-5.2955,-5.317,-5.3727,-5.3544,-5.3827,-5.444,-5.4972,-5.5269,-5.5524,-5.6009,-5.6312,-5.6401,-5.1343,-5.131,-5.1296,-5.1296,-5.13,-5.1304,-5.1304,-5.1267,-5.1249,-5.1259,-5.1229,-5.1208,-5.1206,-5.1194,-5.119,-5.1159,-5.1134,-5.1095,-5.1101,-5.1095,-5.1095,-5.1101,-5.1095,-5.1095,-5.1053,-5.1062,-5.0635,-4.9802,-4.9336,-4.8464,-4.7185,-4.672,-4.63,-4.5893,-4.5827,-4.58,-4.58,-4.58,-4.58,-4.58,-4.58,-4.6322,-4.7096,-4.7096,-4.7599,-4.8319,-4.8319,-4.886,-4.9591,-4.9595,-5.0175,-5.0906,-5.0906,-5.0906,-5.0906,-5.0906,-5.0906,-5.0906,-5.0906,-5.1505,-5.2353,-5.3278,-5.408,-5.4821,-5.5537,-5.5711,-5.5726,-5.5724,-5.5703,-5.5703,-5.5703,-5.5703,-5.5682,-5.5676,-5.557,-5.548,-5.5408,-5.539,-5.5403,-5.5403,-5.5403,-5.5556,-5.5938,-5.6567,-5.732,-5.8158,-5.8444,-5.8578,-5.8578,-5.8578,-5.8513,-5.8295,-5.8295,-5.7627,-5.623,-5.6104,-5.5414,-5.4091,-5.4073,-5.3851,-5.3499,-5.3499,-5.3599,-5.3775,-5.3496,-5.3845,-5.4547,-5.435,-5.4659,-5.5284,-5.5479,-5.579,-5.6062,-5.6349,-5.6346,-5.629,-5.131,-5.1289,-5.1292,-5.1292,-5.1295,-5.1287,-5.1287,-5.124,-5.1201,-5.12,-5.1208,-5.1197,-5.1202,-5.119,-5.1159,-5.1082,-5.1095,-5.1087,-5.1073,-5.1087,-5.1087,-5.1073,-5.1087,-5.1053,-5.0971,-5.0971,-5.0657,-5.0001,-4.9846,-4.9052,-4.7604,-4.7307,-4.6803,-4.6106,-4.5891,-4.58,-4.58,-4.58,-4.58,-4.58,-4.5955,-4.6535,-4.7347,-4.7482,-4.8353,-4.9479,-4.9479,-5.0097,-5.0906,-5.0906,-5.0906,-5.0906,-5.0906,-5.0906,-5.0906,-5.0906,-5.0906,-5.0945,-5.1138,-5.2256,-5.3414,-5.3665,-5.4735,-5.5727,-5.573,-5.5769,-5.5787,-5.5724,-5.5703,-5.5703,-5.5703,-5.5703,-5.5662,-5.5618,-5.5608,-5.5562,-5.5432,-5.5396,-5.5384,-5.5403,-5.5403,-5.5766,-5.6721,-5.7319,-5.8024,-5.9033,-5.9614,-5.9918,-5.9885,-5.9885,-5.982,-5.9616,-5.9616,-5.8794,-5.7112,-5.6817,-5.5864,-5.4296,-5.4075,-5.3774,-5.3499,-5.3629,-5.3967,-5.4399,-5.4263,-5.4684,-5.5366,-5.5166,-5.554,-5.6143,-5.5908,-5.6219,-5.6742,-5.6437,-5.629,-5.6123,-5.13,-5.1304,-5.1295,-5.1295,-5.1249,-5.1211,-5.1211,-5.121,-5.12,-5.1189,-5.1206,-5.1202,-5.1202,-5.1159,-5.1102,-5.1034,-5.102,-5.1005,-5.0941,-5.0971,-5.099,-5.0941,-5.0971,-5.0971,-5.0906,-5.0906,-5.0848,-5.0747,-5.0051,-4.9586,-4.9335,-4.7826,-4.7052,-4.6897,-4.6129,-4.58,-4.58,-4.58,-4.58,-4.5858,-4.6612,-4.7444,-4.8314,-4.9068,-4.99,-5.0674,-5.0674,-5.077,-5.0906,-5.0906,-5.0906,-5.0906,-5.0906,-5.0906,-5.0906,-5.0906,-5.0906,-5.1119,-5.2086,-5.2546,-5.303,-5.431,-5.4793,-5.5107,-5.5731,-5.5846,-5.5787,-5.5724,-5.5703,-5.5703,-5.5703,-5.5703,-5.5703,-5.5703,-5.5638,-5.5573,-5.5504,-5.5432,-5.5396,-5.5403,-5.5403,-5.6014,-5.7562,-5.769,-5.8292,-5.9813,-5.9969,-5.9982,-5.9885,-5.9885,-5.982,-5.9616,-5.9616,-5.9058,-5.7957,-5.7061,-5.6108,-5.5137,-5.4242,-5.3736,-5.3518,-5.4238,-5.4501,-5.4436,-5.4848,-5.5504,-5.6204,-5.5946,-5.6269,-5.684,-5.6685,-5.6652,-5.66,-5.6346,-5.6123,-5.5918,-5.1304,-5.1267,-5.1249,-5.1249,-5.123,-5.121,-5.121,-5.1208,-5.1206,-5.1206,-5.1194,-5.119,-5.1159,-5.1069,-5.1029,-5.0986,-5.0971,-5.0921,-5.0906,-5.0941,-5.0921,-5.0906,-5.0941,-5.0921,-5.0906,-5.0906,-5.0906,-5.0906,-5.0538,-5.0152,-4.9687,-4.8914,-4.8024,-4.7076,-4.6689,-4.6264,-4.58,-4.58,-4.6071,-4.6554,-4.6941,-4.7908,-4.9165,-4.9552,-5.021,-5.0906,-5.0906,-5.0906,-5.0906,-5.0906,-5.0906,-5.0906,-5.0906,-5.0906,-5.0906,-5.0906,-5.1235,-5.1738,-5.224,-5.3091,-5.3981,-5.4639,-5.5142,-5.5552,-5.5827,-5.5885,-5.5826,-5.5724,-5.5703,-5.5703,-5.5703,-5.5703,-5.5703,-5.5703,-5.564,-5.5573,-5.5504,-5.5456,-5.5402,-5.5403,-5.5403,-5.6071,-5.7734,-5.7794,-5.8378,-5.9985,-6.0026,-5.9982,-5.9885,-5.9885,-5.982,-5.9616,-5.9616,-5.9114,-5.8126,-5.7117,-5.6164,-5.5286,-5.426,-5.3678,-5.3518,-5.4349,-5.4852,-5.5115,-5.5633,-5.6343,-5.7072,-5.6762,-5.6812,-5.7087,-5.6899,-5.6689,-5.6437,-5.629,-5.6049,-5.5861]}]]